GFSSW_sfc_thetae_000.txt.gz
Theta_e
317 318 318 318 318 318 319 319 320 320 321 321 321 323 325 327 327 325 320 325 325 340 336 325 324 323 320 315 317 313 299 295 300 302 305 312 310 313 311 309 309 309 312 320 326
316 317 317 317 317 317 318 318 319 319 319 320 320 322 324 325 318 316 329 336 339 342 321 319 316 318 313 313 313 307 300 299 305 307 308 311 311 311 308 309 308 308 315 324 325
316 316 316 316 316 317 317 317 318 318 318 319 320 322 324 323 311 312 334 337 341 339 322 322 320 318 312 313 310 308 302 306 305 311 311 309 309 313 308 307 311 309 313 319 323
315 315 316 316 316 317 317 317 317 318 318 320 321 323 324 318 296 314 335 337 341 335 324 318 316 312 310 308 311 304 308 307 308 311 309 307 311 309 310 310 312 312 315 318 321
315 313 314 314 315 315 316 316 316 317 318 319 321 323 317 308 307 324 337 338 333 331 319 315 313 312 308 309 309 306 306 308 308 309 309 310 306 308 309 313 313 313 313 317 318
314 314 314 314 314 314 315 315 316 318 319 320 320 322 311 301 318 322 331 330 328 327 319 316 315 316 311 309 305 307 308 307 309 309 310 306 306 306 310 313 311 311 310 311 316
315 314 314 314 314 314 314 314 316 317 318 319 320 318 309 307 319 323 330 329 329 323 318 318 319 315 313 306 309 307 302 305 306 307 306 306 302 303 309 310 309 310 309 311 312
315 314 314 314 314 314 314 315 317 317 318 318 316 315 303 316 327 324 327 327 325 324 321 320 321 315 310 308 306 302 301 296 305 306 305 303 296 305 309 309 307 309 308 309 312
314 314 312 313 314 315 315 316 317 317 318 316 309 309 300 319 318 324 327 321 321 321 322 324 316 308 307 300 298 299 292 295 299 306 304 302 298 306 308 306 305 306 306 308 309
313 312 312 315 316 315 316 317 316 315 312 311 307 301 306 304 317 322 325 323 318 316 312 313 308 301 301 296 290 293 293 296 296 302 302 300 299 304 304 304 303 304 302 304 305
316 315 315 316 315 316 315 312 304 301 303 302 302 302 305 318 323 321 322 318 316 313 305 307 299 295 298 300 300 300 297 295 298 303 298 298 299 300 301 301 302 301 302 303 304
316 316 316 316 317 317 315 306 306 307 301 310 310 310 312 314 308 310 318 308 309 306 308 302 295 300 303 304 302 299 296 295 299 302 298 298 298 299 300 299 300 301 302 304 305
315 315 316 315 315 315 311 309 314 312 302 306 310 308 310 313 307 307 313 310 308 306 304 297 298 304 305 301 300 298 295 296 296 299 301 297 296 296 300 302 303 304 305 305 305
315 315 315 315 311 314 310 314 314 314 294 298 302 306 311 311 303 313 314 309 304 303 301 298 302 303 301 300 300 294 300 300 299 295 290 297 287 293 298 300 301 301 303 304 304
315 315 315 316 313 310 314 314 314 310 284 300 302 315 311 304 304 305 314 306 300 300 299 295 298 299 299 300 301 298 302 298 297 293 292 293 289 292 298 297 300 301 303 304 304
315 315 314 314 314 315 314 314 312 297 284 297 302 302 302 305 304 305 308 311 305 299 300 298 302 301 301 302 302 302 297 297 295 292 286 289 289 289 295 298 300 302 303 305 305
315 315 312 314 309 315 312 310 297 289 298 296 297 302 300 299 302 304 300 298 296 291 291 296 296 297 300 296 298 297 292 287 285 285 286 290 288 291 297 301 302 302 303 304 305
315 313 314 314 316 314 312 303 290 295 296 302 301 301 296 300 300 302 298 297 301 300 294 292 289 296 299 297 295 294 293 289 284 285 286 291 287 293 299 301 302 304 305 305 304
313 316 316 320 318 313 309 296 294 298 300 299 301 296 297 301 301 301 299 299 302 302 295 294 292 298 299 298 296 295 292 294 291 291 287 291 294 297 299 298 299 301 304 303 303
308 313 316 320 318 315 307 298 299 304 304 303 297 299 295 298 298 299 300 303 303 305 304 299 291 297 297 298 296 292 295 289 291 283 281 288 289 290 294 295 298 300 301 303 304
310 309 317 320 320 313 300 300 302 306 306 301 301 300 300 299 301 299 299 302 304 304 304 301 298 294 296 294 293 292 291 291 290 289 284 282 287 295 296 298 297 300 303 303 302
312 303 317 320 307 306 299 304 304 304 308 305 305 303 301 301 299 298 298 301 306 306 300 301 298 292 293 296 299 295 293 294 287 286 287 284 286 298 298 300 302 302 304 302 303
307 306 318 318 299 299 303 301 304 303 303 304 302 305 305 301 297 301 300 305 306 304 300 302 297 290 290 293 296 294 296 295 294 293 289 284 286 298 298 300 302 301 302 302 303
307 302 310 310 306 302 300 300 299 305 304 305 303 305 302 301 303 299 299 303 306 304 304 303 296 292 288 290 294 292 295 296 293 288 288 290 291 296 298 299 300 299 302 301 302
306 300 303 299 299 300 301 300 298 299 304 305 302 302 301 297 298 297 299 300 302 303 302 301 293 294 294 295 294 293 293 294 293 294 288 292 293 297 298 299 301 301 301 301 301
303 301 302 300 301 298 298 298 297 298 299 300 300 302 302 297 299 297 299 299 297 298 298 298 291 291 289 293 291 290 292 292 293 294 294 294 293 300 301 299 300 298 301 301 300
308 307 303 297 298 296 296 297 298 299 300 301 302 301 298 297 298 298 300 302 300 297 296 294 291 288 284 290 290 286 291 292 293 294 293 289 295 299 297 300 300 300 300 301 299

GFSSW_sfc_thetae_003.txt.gz
Theta_e
318 318 318 319 319 319 319 319 320 320 321 321 321 321 322 325 325 321 312 325 329 336 333 322 321 320 319 310 311 307 296 290 294 297 299 308 307 311 309 306 307 308 310 315 322
317 317 317 318 318 318 318 318 319 319 320 320 320 320 322 324 316 312 320 334 338 340 323 314 314 315 308 307 308 302 295 296 300 301 301 307 306 307 307 306 305 309 318 321 321
316 316 317 317 317 317 317 318 318 318 318 319 319 320 322 322 308 307 325 333 338 340 327 319 317 313 307 308 306 303 298 304 306 307 306 305 306 308 306 303 307 306 314 319 318
316 315 315 315 316 317 317 318 317 317 317 318 318 320 322 315 293 308 325 331 337 336 329 317 313 308 306 304 308 302 306 306 308 308 307 305 306 304 305 307 310 309 314 319 319
315 313 313 313 315 316 316 317 318 317 317 318 319 320 315 305 304 315 330 333 331 331 324 316 311 308 304 306 306 302 305 307 306 306 305 308 305 303 305 310 310 312 316 317 319
315 315 314 314 314 314 314 316 316 316 316 318 319 320 309 297 314 317 323 327 327 327 324 316 312 312 307 307 304 304 304 304 305 305 305 305 304 303 306 309 308 309 310 314 316
315 315 315 314 314 315 315 315 315 316 317 319 320 315 305 302 314 317 316 325 327 327 319 318 315 311 310 308 309 305 299 301 303 304 303 303 300 301 306 305 307 306 306 309 313
314 314 313 314 315 315 315 315 316 317 318 319 320 312 300 315 315 317 317 321 327 328 324 323 321 315 311 307 302 299 296 292 301 303 304 302 295 303 305 304 306 305 304 304 308
314 313 311 312 313 314 315 315 317 318 318 318 311 307 300 318 313 316 318 320 323 324 325 325 318 310 308 298 294 294 289 291 295 302 302 299 296 302 304 303 302 302 302 303 303
315 315 313 313 315 316 315 316 316 316 314 311 308 302 306 304 313 319 324 324 319 317 316 315 310 302 300 295 287 290 289 291 291 298 299 297 297 301 301 299 298 297 298 300 303
316 316 316 316 315 316 314 312 302 301 304 298 299 301 305 311 316 317 322 321 316 312 304 309 301 297 297 295 296 295 292 291 294 300 298 296 296 299 300 298 298 297 299 301 303
315 315 316 315 317 317 314 305 306 305 294 302 304 305 312 315 307 313 322 312 309 303 306 302 298 299 299 300 297 295 293 292 296 300 296 294 296 297 297 297 298 301 301 301 303
315 315 315 315 315 315 311 309 313 310 299 302 303 306 309 314 308 309 315 311 307 304 305 299 300 302 301 298 297 295 291 292 294 298 297 295 293 293 297 299 300 301 302 303 303
316 316 315 314 310 312 309 314 314 312 292 295 301 306 310 311 304 314 314 311 307 304 304 301 301 300 298 298 297 291 298 298 296 292 288 294 285 290 295 296 298 298 300 300 301
317 316 315 315 310 308 312 315 314 308 282 297 301 314 311 304 306 306 313 309 305 305 301 295 297 296 296 297 298 296 300 297 295 290 288 290 287 290 295 294 296 298 300 300 301
317 316 314 313 313 314 315 314 311 293 282 293 302 302 301 303 302 305 306 310 308 301 298 295 300 299 299 299 300 300 295 294 292 290 284 288 288 287 293 295 296 298 300 301 301
316 316 314 315 308 315 313 309 294 287 296 293 297 301 299 297 299 301 300 299 294 288 287 293 292 294 299 295 295 295 290 285 283 283 284 289 287 289 296 299 300 299 300 301 301
315 315 313 313 316 312 310 300 289 294 294 301 299 300 295 298 299 299 297 294 297 295 289 287 286 293 296 294 292 291 291 287 283 283 286 289 285 291 297 301 302 302 302 301 301
314 312 312 314 315 314 307 294 293 296 299 298 298 295 296 300 299 298 296 297 300 298 293 290 288 296 297 296 295 293 290 294 289 288 285 288 291 294 296 297 299 300 301 300 300
303 306 309 316 315 312 302 297 298 303 303 303 294 298 293 297 297 298 298 301 302 303 302 296 288 295 295 296 294 291 293 289 288 282 280 285 287 288 291 293 296 299 299 300 300
304 302 310 315 314 305 296 296 301 305 305 301 300 298 298 297 298 297 297 301 303 303 302 299 295 292 295 292 292 292 289 289 289 287 282 280 285 292 294 294 296 298 300 300 300
303 295 310 317 301 299 296 301 303 303 306 305 305 302 299 300 297 297 297 300 305 304 298 300 295 289 292 294 297 293 292 291 286 285 285 283 285 295 296 296 299 300 301 300 301
299 301 313 309 293 293 299 301 302 302 302 303 302 304 303 299 296 299 298 303 305 303 299 300 294 288 289 292 294 293 294 293 292 290 286 283 285 296 295 298 299 299 299 300 302
299 295 301 300 299 297 296 298 298 303 302 303 302 303 301 299 301 297 297 302 304 302 304 302 295 291 286 288 292 291 293 294 292 286 286 288 289 293 295 296 298 298 299 299 301
297 294 298 292 294 295 296 297 297 298 302 303 300 301 299 296 296 295 298 299 301 302 299 298 290 291 292 293 292 292 292 292 292 291 288 289 290 294 294 294 296 299 298 299 298
296 294 296 294 296 294 294 293 295 296 298 299 299 299 298 294 297 296 298 297 297 298 297 296 290 290 287 291 290 288 290 290 291 292 291 292 292 298 298 296 298 297 298 298 296
300 300 296 294 293 292 292 293 295 297 299 299 299 298 295 294 296 296 298 298 299 296 294 293 289 286 282 288 289 287 290 290 289 290 290 287 292 295 295 298 298 298 298 297 295

GFSSW_sfc_thetae_006.txt.gz
Theta_e
318 319 319 319 319 320 320 321 321 321 322 322 323 322 323 323 324 318 311 318 329 338 339 321 321 318 318 310 310 305 295 290 292 293 297 303 302 308 309 305 306 310 308 312 316
317 317 318 318 318 319 319 320 320 320 320 321 322 321 322 323 315 310 319 326 333 341 326 315 313 314 308 307 306 301 294 296 300 298 300 303 304 305 306 305 303 309 317 317 319
316 316 316 317 318 318 318 318 319 319 319 320 320 320 322 320 307 305 324 327 330 338 332 322 315 312 306 306 304 302 297 302 304 306 306 304 303 305 303 303 305 305 313 317 316
316 316 316 316 317 317 317 317 318 318 319 319 319 319 321 314 291 307 324 328 332 332 329 321 313 306 304 303 307 300 304 304 306 308 305 302 305 304 303 305 308 309 311 317 316
316 315 315 315 315 315 316 317 317 318 318 318 318 319 314 303 301 313 323 326 323 329 325 317 310 307 303 304 305 302 305 307 307 306 303 304 302 303 303 307 306 309 315 317 317
316 316 315 315 315 314 315 315 317 317 317 317 318 319 308 296 311 313 314 317 322 326 325 318 311 312 306 305 304 305 304 303 303 304 303 302 302 301 304 306 305 307 310 314 317
315 315 315 315 315 315 315 314 315 316 317 317 318 313 305 300 310 313 313 316 324 325 321 320 317 312 308 305 308 304 299 301 301 302 302 302 299 299 304 302 303 305 305 308 312
315 314 315 314 315 315 315 315 315 316 316 317 319 311 299 311 312 311 315 314 321 326 325 324 321 313 311 307 301 297 295 292 298 300 302 301 293 301 304 299 301 303 300 302 303
316 315 315 312 312 314 315 315 315 316 317 317 310 304 295 318 309 311 312 311 316 322 325 325 319 309 309 300 295 293 289 290 294 300 299 298 295 301 301 301 301 298 297 300 302
316 316 317 315 314 315 315 315 314 315 314 313 310 300 304 303 311 314 315 314 315 316 318 316 312 304 299 296 290 289 289 290 290 295 297 295 296 299 300 297 296 295 297 300 302
315 315 315 316 316 316 314 310 301 299 305 299 299 300 303 309 315 313 318 313 316 313 305 311 303 298 300 299 296 294 291 289 293 298 296 295 295 298 298 296 295 296 298 300 302
315 315 315 316 315 316 312 305 304 304 295 302 302 303 310 311 303 311 320 309 308 302 307 304 300 304 304 300 296 294 291 290 294 298 296 293 294 297 294 296 297 299 299 301 301
315 315 316 316 315 313 308 308 313 309 294 299 303 301 306 309 305 307 315 312 304 302 304 301 304 306 302 296 296 293 290 290 293 296 296 294 292 291 295 297 298 299 300 301 302
316 316 316 315 309 312 308 313 314 312 292 292 298 303 307 310 304 314 315 312 306 301 304 301 302 302 300 296 295 290 296 296 295 291 287 292 285 288 292 295 296 296 298 300 302
317 316 315 315 310 307 311 314 314 307 281 295 298 312 309 304 306 306 314 310 303 302 299 299 299 299 296 296 296 294 299 295 293 288 286 288 286 289 293 293 296 296 297 299 300
317 316 314 313 313 314 315 315 310 291 281 293 301 301 298 303 303 306 307 311 311 302 300 297 301 298 297 298 298 299 294 292 290 288 283 287 288 287 290 294 295 296 297 299 300
316 316 314 315 308 315 314 308 290 286 295 293 296 299 298 298 299 302 301 300 298 292 291 295 293 294 298 293 294 293 289 284 283 282 282 287 286 290 294 296 300 298 298 298 300
315 315 314 312 316 314 310 299 288 292 293 299 299 298 295 298 298 299 298 295 298 294 290 288 287 292 295 294 292 290 290 285 281 281 284 287 284 290 293 297 300 300 299 299 300
314 309 309 311 316 313 303 292 291 295 298 297 297 293 295 298 297 297 295 295 297 297 291 288 287 293 295 294 295 290 288 292 288 285 284 287 290 292 296 296 298 298 298 298 299
305 303 308 313 314 309 301 296 298 302 300 300 292 295 292 293 293 294 294 301 300 301 299 292 286 292 293 294 292 292 294 287 287 282 280 283 285 288 290 294 296 297 297 298 298
302 300 310 313 313 305 296 298 301 303 304 301 298 295 294 294 294 295 296 300 302 301 300 295 291 289 292 290 290 290 288 288 288 286 282 280 284 291 292 294 297 298 298 299 298
301 295 311 314 299 298 298 302 303 304 306 304 302 298 298 299 297 295 295 298 303 303 297 298 292 286 289 293 294 292 291 289 285 283 283 282 285 293 292 294 296 298 299 298 299
296 301 311 310 296 294 299 300 302 302 302 303 302 304 303 299 295 298 298 303 304 301 298 299 292 286 287 291 293 291 292 291 290 288 285 283 286 294 295 294 296 297 298 298 299
297 295 300 299 297 296 297 296 298 304 303 303 302 304 300 298 299 296 297 301 302 301 304 301 292 290 288 289 292 290 293 292 290 285 285 286 287 291 293 295 297 298 300 297 299
295 293 296 294 294 294 296 298 296 297 302 303 300 300 299 295 295 295 297 298 300 302 298 296 290 290 290 291 291 291 292 292 290 289 287 287 289 291 293 294 296 296 296 298 296
295 293 295 293 294 293 293 292 295 296 298 298 296 296 297 294 295 295 297 296 296 297 296 295 290 290 287 290 290 288 289 289 290 291 291 290 291 295 296 294 296 293 296 296 295
298 298 294 293 291 290 291 293 295 298 298 297 299 296 292 293 295 296 298 298 298 296 294 292 289 286 283 288 289 286 288 288 287 288 289 285 290 294 294 296 295 295 296 295 293

GFSSW_sfc_thetae_009.txt.gz
Theta_e
317 318 319 319 319 319 320 321 322 323 323 324 324 324 323 324 323 315 309 315 322 336 339 324 322 317 316 311 308 302 294 290 292 291 295 301 301 305 307 304 306 307 307 311 314
316 317 317 318 318 319 319 320 321 321 321 322 322 323 323 323 312 308 318 325 328 334 327 314 312 313 308 307 305 300 294 296 299 296 298 303 302 303 304 303 303 305 315 316 317
315 316 317 317 317 318 318 319 319 320 320 321 321 321 321 318 305 303 322 326 328 329 329 322 315 312 306 304 302 300 296 301 303 303 304 303 302 304 301 300 304 304 306 314 315
315 315 315 316 316 317 318 318 318 319 319 320 320 321 320 313 290 305 321 326 328 323 324 322 314 305 303 302 305 298 303 303 305 307 305 302 303 301 302 304 307 307 307 315 315
315 316 316 315 314 315 316 317 318 318 319 319 319 319 312 303 300 311 320 322 320 319 320 318 307 305 302 303 304 300 303 306 307 306 304 304 300 300 302 305 306 306 307 313 315
316 316 316 316 315 315 315 316 317 318 318 318 318 318 307 295 309 312 311 314 316 317 322 318 310 309 305 304 303 305 304 304 303 303 302 300 301 300 302 304 304 304 305 309 315
316 316 315 315 316 316 315 315 315 316 317 317 318 312 304 299 308 312 311 312 316 320 320 321 315 311 308 304 308 303 298 300 301 302 301 300 298 298 303 301 301 301 302 304 307
316 316 315 315 315 315 315 315 315 316 316 317 317 309 299 310 312 310 311 313 316 322 324 322 318 314 307 309 300 296 294 291 298 299 300 301 293 300 303 300 301 299 297 298 301
316 316 316 317 315 313 314 315 315 315 316 316 308 304 297 313 306 310 310 307 311 318 323 324 318 311 307 300 294 294 288 289 294 298 297 296 293 300 300 298 299 296 297 300 302
314 315 316 316 316 315 314 314 314 313 312 311 309 298 301 300 308 311 311 309 312 312 316 316 312 301 301 298 293 290 288 290 290 294 295 293 294 300 298 296 294 294 297 299 302
315 315 315 315 316 316 313 308 300 300 303 297 299 299 302 306 312 308 310 307 311 310 305 311 303 298 298 300 300 294 290 288 291 295 293 293 294 297 297 295 294 296 297 299 301
314 314 314 315 316 316 311 303 302 303 295 302 302 302 305 309 303 308 311 303 303 298 307 305 299 304 304 300 296 294 290 290 294 296 293 292 293 296 295 295 295 296 297 299 300
316 314 315 316 315 313 307 306 312 309 295 297 301 301 302 307 301 305 309 307 300 298 303 300 303 308 305 302 296 293 290 289 290 295 294 292 291 293 294 295 298 298 299 301 301
316 316 316 316 309 310 304 311 313 311 287 290 296 301 303 305 299 311 311 308 302 296 302 302 305 305 301 296 301 295 296 294 293 290 286 292 284 289 291 294 296 295 297 299 301
317 316 315 314 311 307 311 312 313 305 275 293 297 310 307 300 303 305 315 310 299 298 302 298 301 302 301 299 296 294 296 294 293 288 285 286 285 289 290 292 294 295 296 298 300
317 317 315 314 312 313 315 313 306 287 281 291 298 296 297 300 302 307 308 311 308 301 301 298 306 305 304 301 297 297 293 291 288 287 282 286 287 287 288 293 293 294 296 298 300
316 316 314 315 307 315 315 307 289 282 293 290 291 296 296 295 299 301 301 301 296 293 293 295 296 298 298 295 294 293 289 283 282 282 281 285 284 291 292 294 297 297 296 297 300
315 315 314 312 317 315 309 295 284 291 291 299 297 296 291 297 298 300 299 298 301 296 295 290 288 293 294 294 291 290 290 284 280 279 282 286 283 289 293 294 298 299 298 298 299
315 308 308 312 316 314 301 287 290 294 298 296 295 290 293 297 298 297 296 296 298 299 292 289 289 292 293 294 295 289 287 291 287 283 282 285 288 291 295 294 296 297 297 297 298
306 301 306 313 315 309 297 292 297 300 300 298 291 294 291 294 294 294 294 299 297 298 295 292 285 292 292 293 292 291 293 287 285 281 279 282 283 288 290 292 294 295 296 297 298
301 298 309 315 314 303 295 296 298 302 304 300 295 294 294 293 295 294 294 299 302 300 300 292 289 287 291 289 289 288 286 287 287 285 281 279 284 290 291 294 295 296 297 297 297
298 293 310 313 301 301 297 302 301 301 306 304 300 297 294 294 295 296 294 296 303 301 296 295 289 286 287 292 292 290 289 288 284 282 281 280 284 291 293 294 297 297 297 297 298
295 300 311 309 295 296 301 301 304 303 303 302 298 300 301 296 295 295 297 301 302 300 298 298 290 285 286 290 291 290 290 289 288 287 283 281 284 293 292 293 294 296 297 298 298
296 292 300 304 298 299 297 298 299 304 303 303 302 303 298 296 297 294 296 300 301 300 303 300 291 288 286 288 291 289 291 290 289 284 284 284 286 290 293 294 295 296 298 296 298
294 292 294 290 293 297 297 299 297 298 303 303 301 301 299 294 293 294 297 297 300 301 298 295 289 289 288 290 291 291 291 290 288 287 286 286 287 289 290 292 294 296 296 297 297
293 292 293 292 293 294 294 294 295 296 300 299 298 298 299 296 295 294 296 296 296 296 294 293 288 288 284 288 288 286 288 291 290 290 289 289 289 293 294 293 296 295 294 295 295
296 297 293 292 290 290 291 294 296 296 297 299 298 295 294 293 295 296 297 296 296 295 293 291 288 285 281 286 286 283 287 287 287 288 289 286 289 293 294 295 294 295 294 296 294

GFSSW_sfc_thetae_012.txt.gz
Theta_e
317 317 318 319 319 319 319 320 321 323 324 324 324 325 325 324 323 314 308 314 318 330 336 324 321 317 315 310 307 301 294 291 292 291 293 299 301 304 305 302 304 304 305 309 315
317 317 317 317 318 318 319 319 320 321 322 323 323 323 324 322 311 308 317 324 326 329 323 317 313 312 306 307 303 299 293 296 299 296 296 301 301 303 302 301 301 302 309 315 316
316 316 316 317 317 317 319 319 319 320 320 321 321 322 322 317 304 303 322 326 326 326 322 323 316 311 305 303 301 299 296 300 302 302 302 302 303 303 300 299 302 303 305 308 314
316 316 316 316 316 316 317 318 318 319 319 319 320 320 320 312 292 305 321 323 327 321 320 322 314 305 303 301 304 297 302 301 304 305 304 302 303 301 301 303 306 305 305 305 312
315 316 317 316 316 315 315 316 317 318 318 319 319 319 312 303 300 309 319 316 318 317 315 317 307 304 301 302 303 300 302 304 305 305 304 304 300 300 301 304 305 305 305 304 309
316 317 316 316 317 316 316 315 316 317 317 318 318 318 305 295 307 311 310 308 314 314 315 318 309 307 303 303 302 304 304 304 304 304 302 300 301 300 301 302 303 303 302 302 306
317 317 317 315 315 316 316 316 315 316 317 317 318 312 303 299 307 309 312 308 312 314 313 320 315 310 308 303 306 304 298 300 299 300 301 300 298 297 302 299 300 300 299 300 301
317 317 316 316 315 316 316 316 315 315 315 317 317 307 297 309 310 308 309 310 314 316 316 322 318 313 308 308 300 297 294 290 298 298 299 299 293 299 301 299 300 298 296 298 302
316 315 315 316 316 316 314 315 315 315 315 315 308 303 296 311 305 308 308 305 310 313 319 324 317 310 309 301 294 293 290 289 293 297 296 295 292 297 298 298 296 295 296 299 301
316 314 315 316 316 317 315 313 313 312 311 310 308 298 299 299 305 307 309 308 309 309 312 314 311 302 300 296 292 289 288 289 290 294 293 292 293 299 298 296 294 294 296 298 300
317 315 314 315 315 316 313 306 299 298 302 296 296 297 300 304 310 306 309 305 306 305 302 309 302 297 299 302 297 294 290 290 291 294 291 291 291 295 297 295 294 293 296 297 300
318 316 314 315 316 316 311 301 301 303 293 300 302 300 304 307 301 304 308 300 301 292 304 305 298 303 302 301 298 293 292 289 294 294 291 292 292 295 295 295 294 295 297 298 299
317 315 315 316 316 313 306 304 311 308 295 296 299 300 301 304 299 301 304 303 298 292 298 300 302 306 303 297 297 293 292 290 292 293 293 290 290 291 293 294 295 296 298 299 299
317 315 315 316 310 310 305 311 312 309 288 289 294 298 302 303 297 308 306 304 299 292 298 301 306 304 301 299 299 293 296 295 292 289 285 290 283 288 290 292 294 294 297 298 299
317 317 315 315 309 305 309 312 312 305 275 291 295 306 303 297 299 302 307 303 297 295 300 299 301 302 300 301 301 296 299 296 294 288 283 286 284 287 288 290 293 294 295 297 299
317 317 315 313 312 312 313 312 306 286 276 288 296 295 294 297 299 303 303 308 307 298 301 299 305 305 304 303 301 300 295 293 288 286 281 285 286 285 287 290 291 293 295 298 299
316 316 314 315 306 314 312 303 287 281 290 289 290 294 293 292 295 298 297 296 294 289 292 295 299 301 301 297 297 296 292 285 281 281 281 284 283 287 291 292 295 296 295 297 299
315 315 313 312 315 313 307 293 283 289 286 296 293 292 289 293 294 296 295 293 300 292 291 289 288 295 295 298 294 293 289 283 280 279 281 284 282 288 291 294 295 298 297 297 298
315 309 308 311 316 312 297 286 287 293 295 294 293 288 289 293 296 294 294 294 299 297 289 290 289 293 296 296 299 289 288 290 285 281 281 284 287 292 293 293 293 295 296 296 297
305 302 304 313 316 307 293 288 293 300 298 296 288 292 286 290 293 292 293 299 299 299 295 291 284 292 292 295 293 291 293 286 285 280 279 281 282 286 290 292 292 293 294 295 297
301 296 309 314 313 301 289 290 298 302 300 297 294 291 292 290 294 292 292 298 300 297 295 291 287 287 292 288 288 288 287 286 287 284 280 278 283 289 290 291 294 294 295 295 297
297 292 311 312 298 299 292 299 301 301 305 302 300 297 293 295 294 293 293 297 302 300 293 293 288 284 287 291 291 289 288 287 284 281 280 280 283 290 291 292 294 295 296 296 297
294 301 311 309 295 296 301 300 302 301 301 301 297 300 299 296 293 297 298 302 302 299 295 295 288 284 288 290 290 289 288 287 287 285 280 280 284 292 290 292 294 295 296 297 297
294 292 302 304 302 297 298 298 298 304 302 303 300 301 298 296 298 295 295 300 301 301 303 301 290 287 285 286 290 287 288 287 288 283 282 283 286 290 291 292 293 295 296 296 296
293 291 296 293 295 296 298 300 298 298 303 303 299 299 297 292 293 294 295 295 297 302 297 295 289 288 287 290 291 290 291 288 287 288 286 287 287 290 291 292 293 294 295 295 296
292 291 292 292 294 296 294 296 297 296 299 298 297 298 298 296 295 293 295 295 293 294 294 293 288 287 284 287 287 286 290 289 288 288 286 287 288 292 291 293 295 293 295 295 296
295 298 293 293 292 292 293 295 296 297 298 297 299 297 293 294 294 296 295 295 296 294 292 290 287 286 282 285 285 282 286 289 288 289 290 287 290 292 293 295 295 295 295 295 295

GFSSW_sfc_thetae_015.txt.gz
Theta_e
317 317 317 318 318 319 319 320 321 322 324 325 325 325 325 325 323 316 308 314 317 326 327 325 323 322 317 314 309 305 299 295 297 295 299 302 304 308 309 307 307 309 311 315 320
317 317 316 317 317 318 318 319 319 320 321 322 323 324 323 322 314 310 317 324 325 326 319 319 315 315 310 311 307 303 298 298 302 300 300 303 305 307 306 305 306 308 312 317 320
316 316 316 316 317 317 318 319 319 319 320 321 321 322 321 317 307 306 323 327 327 325 319 321 321 313 308 307 305 302 299 302 304 304 303 304 305 308 304 304 306 307 310 311 315
316 316 315 316 316 316 317 317 319 319 319 319 320 320 320 311 292 306 322 321 326 322 317 317 318 307 306 303 305 300 303 304 306 307 307 305 307 305 305 308 310 310 309 308 309
316 315 316 317 317 316 315 316 317 318 318 318 319 319 312 303 302 311 317 315 314 318 313 312 312 307 305 305 304 301 304 305 306 307 306 306 305 305 305 308 309 307 308 307 307
317 317 317 317 316 317 316 316 315 317 318 317 318 318 306 296 308 312 310 309 309 314 313 313 313 309 306 305 305 306 306 306 307 307 305 303 305 303 308 307 306 306 306 305 305
317 318 318 317 317 316 316 316 316 315 317 317 317 312 303 300 308 310 310 309 309 313 310 315 318 309 308 304 307 306 302 303 303 304 304 303 300 299 307 305 305 304 303 303 305
317 317 317 317 317 316 316 316 316 316 315 316 316 308 298 310 311 309 309 307 313 314 314 316 318 314 309 307 303 301 300 297 302 302 302 302 298 302 302 302 303 302 302 304 305
317 316 315 315 317 317 317 316 315 315 314 314 307 304 295 311 305 307 307 304 308 314 315 316 317 311 309 300 296 296 294 293 298 301 301 299 296 301 303 302 302 301 302 304 305
318 318 315 315 315 316 317 314 313 312 311 310 308 298 300 299 305 307 308 307 305 309 309 308 309 304 303 299 292 292 292 292 294 298 297 296 296 299 301 300 301 301 302 303 304
318 318 316 314 314 315 315 308 299 297 302 296 297 296 300 303 308 305 307 304 304 305 297 303 302 297 300 301 300 295 294 295 297 297 295 295 294 298 301 299 299 298 301 302 303
318 318 316 315 315 315 312 301 300 301 292 300 300 300 303 306 300 303 307 298 298 294 299 300 297 303 303 302 299 296 294 292 296 296 296 295 295 299 299 299 299 298 300 302 303
317 317 314 314 316 314 307 303 310 307 293 296 298 299 301 302 297 299 303 301 298 293 295 296 300 306 302 300 298 295 293 292 295 296 295 293 293 295 298 298 298 298 301 302 303
317 317 316 314 311 311 305 310 310 307 287 290 292 297 302 302 295 304 305 302 299 292 295 298 305 303 301 298 300 294 297 297 295 294 290 294 287 292 296 295 296 298 300 301 303
317 317 317 313 309 305 309 311 310 303 277 292 293 305 303 296 298 300 305 302 296 293 296 296 302 300 298 299 301 297 300 298 297 293 289 289 288 292 292 293 295 297 299 301 303
317 317 316 311 311 312 312 311 305 286 276 288 295 294 294 296 297 301 299 304 306 296 297 300 307 305 303 303 303 297 294 294 292 290 284 288 289 290 292 293 294 296 298 301 302
317 316 313 313 306 314 312 302 286 280 291 288 289 293 291 291 293 295 294 292 291 287 288 295 301 304 305 297 298 297 295 286 284 284 284 287 286 291 294 295 297 298 298 300 302
316 315 312 311 314 312 306 293 282 287 286 294 292 292 288 292 293 294 291 289 295 294 288 288 288 297 300 300 295 296 295 287 282 281 284 286 285 291 295 297 297 299 300 301 301
315 309 308 309 313 310 297 284 285 289 290 291 291 286 287 291 292 293 292 290 294 295 287 288 289 297 296 298 301 293 291 293 286 285 284 287 290 295 296 296 295 296 298 300 301
305 303 305 312 314 304 290 287 291 296 295 294 285 288 284 288 290 291 289 297 295 299 295 292 286 292 293 296 294 295 296 289 287 283 281 285 285 289 292 293 295 295 297 299 300
303 297 309 313 311 297 287 288 293 299 298 293 291 289 287 287 291 290 290 297 300 299 295 291 289 287 292 291 289 290 289 289 290 287 283 281 286 292 292 293 294 295 297 299 300
296 295 311 312 296 295 291 294 298 300 301 299 298 294 290 290 290 291 292 295 303 300 291 292 288 286 287 292 293 292 291 290 286 283 283 283 286 293 292 292 294 296 297 299 300
294 301 310 308 292 291 296 296 297 300 299 300 298 298 295 291 291 294 296 300 302 300 294 295 288 284 288 291 292 289 288 289 288 287 282 283 287 294 294 296 296 296 297 298 299
294 296 301 302 301 297 297 297 297 304 302 303 298 299 295 294 298 293 296 300 302 300 303 300 290 288 286 287 290 288 288 288 290 285 284 284 288 292 294 296 296 297 298 298 298
293 291 297 293 295 296 299 299 295 297 302 303 299 298 295 292 294 294 296 296 299 303 298 296 290 288 287 290 291 290 290 288 288 290 289 289 288 292 294 295 297 298 298 297 297
292 290 292 293 294 297 297 297 297 298 299 298 297 298 299 293 294 293 295 296 295 296 294 294 289 288 285 288 290 289 290 290 290 288 289 289 289 293 295 296 296 297 296 296 297
295 295 293 295 292 294 294 296 297 298 300 296 299 297 297 294 295 300 299 297 297 294 291 292 287 287 284 286 286 284 287 289 290 289 292 288 294 293 294 295 296 296 297 297 297

GFSSW_sfc_thetae_018.txt.gz
Theta_e
317 317 317 317 317 318 318 319 320 321 323 324 325 325 326 326 324 319 312 316 318 324 325 324 327 328 326 319 316 313 305 301 303 303 306 307 309 314 315 313 313 315 315 319 323
316 317 316 316 317 317 318 318 319 319 320 321 322 323 324 324 318 312 321 325 326 326 317 319 320 323 318 316 315 311 305 304 309 309 307 309 310 312 312 312 312 313 317 318 318
316 316 316 316 316 316 317 318 319 319 319 320 321 322 322 321 309 308 324 327 328 326 320 319 322 319 315 315 313 311 305 309 309 310 309 309 311 313 311 310 312 311 314 317 317
317 316 315 316 316 316 316 316 318 319 319 320 320 321 321 315 294 314 323 322 322 324 319 314 315 312 310 310 313 306 310 311 311 311 311 310 313 311 313 313 318 318 318 316 315
317 316 316 317 317 317 316 315 316 318 318 319 319 319 315 305 304 318 318 315 315 318 315 310 311 312 309 312 311 308 310 311 312 311 311 312 310 312 312 317 319 318 316 314 315
318 317 317 317 317 316 317 316 316 316 318 318 319 319 309 297 312 315 316 314 312 314 313 312 312 315 312 311 310 311 311 311 312 311 312 309 311 310 313 317 316 314 314 314 312
318 318 319 318 317 317 316 317 316 316 316 318 318 314 306 303 312 313 312 311 312 311 310 314 316 314 313 310 313 312 307 309 310 311 310 311 307 308 314 312 309 311 312 310 312
318 319 318 317 317 317 316 317 316 317 315 316 316 312 299 311 315 311 312 310 313 312 313 315 316 313 311 314 308 307 307 301 308 310 311 308 301 310 311 309 308 308 309 311 311
318 319 318 316 316 317 316 317 316 316 316 315 310 306 297 311 306 310 311 306 310 312 312 314 311 309 311 302 300 303 298 300 303 310 309 306 303 309 309 308 308 310 309 310 311
318 318 318 317 315 315 316 316 314 315 313 311 309 300 302 299 305 307 310 308 305 309 306 307 304 302 305 301 292 296 298 300 301 306 304 304 303 307 309 307 308 309 309 310 310
318 318 318 317 314 314 314 309 301 299 303 298 297 298 300 306 310 306 309 305 304 304 295 303 295 294 300 304 303 302 300 299 303 306 302 303 304 305 309 310 308 308 308 309 310
318 318 318 317 316 315 313 301 301 303 294 301 301 301 304 306 299 303 308 299 298 294 298 297 292 301 305 305 302 302 299 299 303 303 301 303 303 307 309 308 308 309 308 309 309
317 318 317 316 314 313 309 304 310 308 292 295 299 299 301 303 298 300 304 299 296 293 293 293 296 303 303 302 300 301 298 299 300 301 304 301 301 304 304 304 304 305 309 309 309
317 317 317 316 309 311 307 310 309 307 286 290 293 296 301 303 296 304 306 299 297 292 294 295 301 300 302 300 302 297 303 302 301 300 296 301 294 301 304 303 303 304 307 308 309
318 317 317 314 309 305 308 310 308 302 278 293 293 304 301 297 298 298 307 300 294 294 293 292 298 299 299 301 304 299 305 303 302 299 295 299 295 300 300 300 301 304 307 308 309
317 317 316 313 312 312 312 309 304 285 278 289 294 293 293 296 295 300 300 302 301 296 295 297 304 304 304 305 305 305 302 299 297 294 292 298 295 298 299 300 301 304 306 307 308
317 317 314 313 307 314 311 302 285 281 291 288 289 293 292 291 293 295 294 292 287 288 287 291 292 305 307 301 301 303 299 290 288 289 290 293 292 299 301 301 303 303 306 307 309
317 316 314 311 315 313 305 292 282 288 288 293 293 293 289 293 292 293 292 289 294 293 288 286 288 300 306 303 296 298 299 293 286 288 291 291 291 298 300 302 303 306 307 308 308
316 312 310 311 315 311 297 284 286 289 292 291 291 287 288 292 292 292 291 290 293 295 288 287 288 299 302 302 302 296 295 299 291 292 291 294 297 301 301 301 301 303 306 306 308
306 304 304 312 314 305 291 287 290 295 293 293 287 289 286 290 290 291 289 294 293 298 299 294 288 295 295 302 299 300 302 292 293 287 285 291 292 297 299 299 300 301 304 307 308
305 298 308 312 310 296 286 289 292 298 296 292 290 289 290 290 291 290 291 295 297 298 301 298 295 290 293 296 296 296 293 294 295 293 290 289 293 300 299 300 300 302 305 307 307
304 296 310 310 293 293 289 293 297 296 298 295 296 293 291 292 291 291 291 296 301 301 296 300 297 292 293 296 301 302 298 299 292 289 292 292 294 300 300 300 300 303 304 307 307
300 301 310 308 290 291 294 294 295 294 295 294 296 296 296 292 289 293 295 300 304 301 298 300 295 290 290 295 296 295 300 301 299 295 292 291 294 299 302 303 302 303 304 306 307
302 296 300 301 301 296 293 292 293 299 299 299 299 300 294 292 296 292 296 300 304 303 304 302 297 294 290 293 297 294 297 298 298 293 293 293 296 298 301 302 302 303 305 305 305
300 298 300 292 293 296 296 296 294 296 302 303 299 298 295 290 294 295 300 300 303 304 303 300 294 296 295 296 297 296 295 295 295 297 294 297 295 300 302 303 305 305 304 304 304
298 297 298 300 299 297 295 295 296 296 298 296 297 299 299 295 297 295 299 299 299 302 301 301 295 294 292 294 296 293 296 297 298 299 298 298 297 303 303 303 302 304 304 303 304
300 301 299 298 296 296 296 297 299 299 300 299 302 300 298 300 304 305 306 304 303 300 299 299 297 293 291 292 292 290 295 295 296 298 298 294 300 301 299 300 302 303 303 303 304

GFSSW_sfc_thetae_021.txt.gz
Theta_e
318 318 317 317 317 318 318 319 320 321 322 324 325 326 326 326 324 320 313 319 320 324 325 322 321 326 327 322 321 319 306 302 303 304 306 312 309 314 317 314 315 316 316 320 321
318 318 317 316 317 318 317 318 318 319 320 321 322 323 324 323 318 313 323 326 325 326 319 316 314 319 319 318 317 312 305 304 310 310 309 311 311 313 313 313 313 316 318 320 320
318 317 317 316 317 317 317 317 317 319 319 320 320 322 322 322 311 311 326 328 329 327 321 317 317 319 314 318 315 313 305 310 311 312 312 310 311 315 312 310 314 313 316 319 320
318 318 317 316 317 318 316 317 316 318 319 319 320 321 322 316 295 315 322 320 325 325 320 316 311 311 311 310 315 308 311 311 313 313 312 310 313 311 313 314 318 319 320 320 319
318 318 317 316 318 318 317 316 315 317 317 319 319 320 316 306 305 320 319 317 317 317 316 313 308 308 306 310 312 309 310 312 313 313 312 313 310 310 312 317 320 319 320 319 319
318 319 318 318 318 318 317 317 317 315 316 318 319 319 310 297 312 315 318 316 314 314 314 314 309 311 308 307 308 311 311 311 312 312 312 310 310 312 313 317 317 317 317 317 317
318 318 319 318 319 318 318 317 317 316 315 317 318 315 306 303 313 314 314 312 313 313 311 315 315 310 310 306 312 311 306 309 310 311 310 313 307 308 314 316 313 311 313 314 314
318 318 320 318 318 318 318 317 317 317 316 315 316 312 300 313 315 312 313 311 313 313 311 314 316 310 309 313 309 306 308 299 308 310 311 310 301 310 314 312 310 311 311 312 314
318 319 320 318 317 317 317 317 318 316 316 315 310 307 298 313 307 311 312 307 309 311 311 312 312 306 306 303 300 303 298 300 303 310 309 308 303 310 313 311 310 311 311 312 313
320 319 319 319 317 316 315 317 316 315 314 312 309 300 303 301 307 309 312 310 306 306 305 305 305 300 300 299 291 296 299 300 301 306 308 305 305 309 311 310 311 311 311 312 313
321 319 319 319 318 315 313 309 301 298 304 300 300 300 301 306 309 306 308 306 305 301 295 302 295 292 295 301 302 302 301 299 304 307 306 305 304 306 310 310 310 311 311 311 312
320 319 319 318 318 316 313 302 302 304 295 303 303 302 305 307 300 304 309 299 298 292 297 295 290 298 299 300 301 300 299 300 304 306 305 303 302 307 309 310 312 312 310 311 311
319 318 318 318 316 313 308 305 311 307 293 294 301 300 301 303 297 299 304 301 296 293 293 291 294 299 297 298 298 299 299 299 299 304 304 302 301 304 309 311 312 311 312 312 311
319 318 318 316 309 311 307 311 309 308 286 290 294 297 300 301 295 303 306 301 296 291 293 292 297 293 296 295 301 297 303 301 300 300 295 304 293 302 306 305 305 307 309 311 311
318 318 317 316 312 307 308 309 308 303 278 294 294 304 301 296 298 299 305 302 293 293 291 289 293 291 294 294 302 299 304 301 302 299 299 298 296 300 306 302 305 307 309 310 311
318 318 317 313 312 312 310 308 304 285 279 289 294 293 293 295 296 299 299 303 300 293 294 293 299 299 298 300 302 305 301 301 300 299 291 297 297 298 301 303 305 306 308 309 310
318 317 315 313 306 314 309 301 285 281 292 288 289 292 292 291 293 294 293 291 289 284 285 291 290 297 301 298 303 302 297 289 287 288 289 299 297 300 301 303 305 305 307 309 310
317 316 314 311 315 311 305 290 282 288 288 292 292 292 289 291 292 292 290 289 293 290 287 286 284 292 298 301 298 299 298 291 285 286 291 296 291 298 304 305 306 308 309 309 309
316 314 310 311 315 310 297 283 286 290 292 290 291 288 288 291 292 291 289 290 293 292 286 288 287 293 301 304 303 298 296 300 294 296 294 295 299 301 303 303 304 306 308 307 308
309 306 305 314 314 305 292 287 290 296 294 293 287 290 287 288 288 290 290 295 293 295 294 293 286 290 299 302 301 301 304 294 295 288 287 293 295 296 299 301 303 303 306 307 309
304 298 308 315 311 298 286 288 292 297 296 291 290 289 290 289 291 290 290 295 296 295 297 296 289 288 297 296 295 297 298 299 298 296 291 289 293 303 301 302 303 304 307 308 308
302 293 310 311 294 294 288 290 296 295 297 295 296 294 292 292 291 291 290 294 299 299 294 298 295 286 291 296 304 302 299 300 294 291 295 294 293 302 303 303 303 305 307 309 309
299 301 309 306 289 289 292 292 294 294 296 294 294 297 296 293 290 293 295 299 301 299 296 300 294 287 287 292 297 298 300 302 301 298 294 291 294 303 305 304 304 305 307 309 309
300 295 300 300 300 295 291 291 291 298 295 297 296 299 295 293 295 293 295 300 303 300 304 303 297 294 290 293 296 295 298 300 300 295 295 296 296 300 303 303 304 305 307 308 308
299 297 300 292 293 295 296 295 293 293 298 298 297 297 295 290 292 293 296 299 301 303 302 301 294 296 297 298 299 298 298 299 298 300 295 298 297 301 303 305 306 307 307 307 307
296 296 302 298 297 295 294 293 293 294 298 295 295 297 298 292 293 294 297 299 298 302 300 303 295 297 294 297 298 295 298 299 299 300 299 299 299 307 307 307 306 306 306 306 306
302 303 301 299 299 296 296 294 294 297 299 301 299 299 297 297 300 305 305 304 304 301 298 298 296 295 291 295 295 291 296 297 298 300 300 296 302 307 302 303 304 306 306 306 306

GFSSW_sfc_thetae_024.txt.gz
Theta_e
317 318 318 318 318 319 318 319 320 321 323 324 325 326 326 326 326 320 313 319 322 326 326 318 318 317 323 320 321 318 303 299 301 302 304 308 306 310 312 309 311 312 310 313 318
318 318 318 318 318 318 318 318 319 320 320 321 322 323 324 324 317 313 323 328 328 326 317 313 311 313 311 316 317 310 302 302 307 307 305 309 308 310 309 309 309 310 314 314 315
318 318 317 318 317 318 317 318 318 319 319 319 320 322 322 321 310 309 329 330 330 327 321 317 314 312 310 314 313 311 303 308 308 310 311 308 308 311 308 307 310 309 313 315 315
319 318 318 317 316 318 318 317 318 318 320 319 319 321 322 315 294 315 325 322 326 324 319 315 311 305 307 306 312 306 310 310 310 312 311 307 310 308 308 309 314 314 315 315 314
318 319 318 317 317 318 318 317 316 317 318 319 319 320 314 305 303 319 321 319 318 318 314 311 308 305 302 306 310 308 309 311 311 311 311 311 307 307 308 312 314 315 316 314 314
318 318 319 318 318 318 318 317 317 317 316 318 320 319 309 297 312 313 317 315 313 312 311 312 309 309 304 304 303 310 311 310 311 310 310 308 307 308 309 312 312 313 312 312 312
319 319 320 319 318 319 318 318 317 317 317 316 318 315 305 301 312 313 313 312 313 311 307 312 312 308 306 302 308 306 303 309 309 309 308 309 304 305 310 312 310 311 309 309 309
320 319 320 320 319 318 317 317 318 318 317 316 317 312 300 312 314 311 312 310 311 311 309 311 313 309 307 308 306 303 303 297 306 309 308 307 298 307 311 309 309 309 305 306 310
321 320 320 320 319 318 316 316 317 318 317 316 310 306 296 314 307 310 311 306 308 309 310 310 307 304 304 298 296 299 293 296 300 308 306 304 300 307 311 309 306 305 306 306 308
322 320 320 319 319 317 315 314 315 315 315 313 309 300 302 300 306 308 310 309 305 305 304 303 301 298 298 295 287 291 294 296 298 305 305 302 301 306 309 306 304 305 305 305 308
322 321 319 319 319 317 313 309 302 299 305 299 300 299 302 307 308 305 308 305 304 301 293 299 293 290 293 296 296 296 296 296 300 306 303 301 301 304 307 307 305 305 305 304 307
321 320 319 319 318 316 313 303 303 304 295 303 303 302 305 307 299 302 308 298 297 292 295 293 289 294 297 297 296 296 295 296 301 305 303 301 301 304 304 305 306 306 305 304 306
321 320 319 318 317 314 309 306 311 307 293 297 301 301 302 303 298 300 303 300 294 292 292 288 292 297 295 294 293 293 294 295 294 301 303 299 296 299 303 305 306 307 308 306 306
320 319 318 316 308 309 305 313 310 308 287 290 293 298 302 301 294 303 304 300 295 290 292 291 295 293 293 292 294 289 297 299 297 297 291 298 286 296 301 302 305 304 304 305 306
319 319 317 315 311 307 309 309 309 304 278 293 294 304 302 295 297 298 304 300 292 291 292 288 291 291 290 291 295 292 299 298 298 296 296 297 292 295 300 299 302 300 301 305 306
318 318 317 313 311 310 310 309 304 285 277 289 294 293 293 295 295 298 297 301 300 293 293 291 297 294 293 295 295 296 296 296 298 296 288 293 293 292 296 299 299 300 302 305 305
318 317 314 312 304 311 309 302 285 281 292 288 289 292 291 291 291 293 292 290 288 284 284 288 289 294 296 291 294 294 292 285 286 287 286 295 291 294 296 300 302 301 302 304 305
317 317 315 311 312 309 305 291 279 288 288 293 292 291 288 291 290 291 290 287 292 290 285 282 280 290 294 291 292 293 288 287 281 283 285 294 288 293 299 301 303 303 304 305 304
316 314 310 311 312 308 297 283 285 289 292 290 290 288 288 290 290 290 289 288 290 292 284 285 284 294 295 297 298 291 286 296 291 290 287 288 291 294 299 298 299 302 303 303 304
311 309 307 312 311 304 293 286 289 295 294 293 286 289 285 288 287 288 288 293 290 295 294 288 283 292 295 298 300 297 299 292 291 283 283 287 289 289 294 295 298 301 301 303 304
305 299 307 312 310 298 286 288 291 296 296 291 290 289 289 288 289 288 289 293 295 294 294 291 287 289 291 291 290 295 295 295 294 293 286 283 287 296 296 298 297 299 303 303 304
302 294 309 311 295 295 289 292 295 294 297 294 294 293 291 291 289 289 289 293 298 296 290 292 289 285 289 296 300 300 297 296 288 288 290 287 286 298 297 298 300 299 304 304 305
298 300 309 307 289 289 293 292 293 293 294 293 292 295 296 292 288 291 293 298 300 296 294 295 290 285 286 294 299 296 299 297 297 295 289 285 286 299 298 298 299 299 303 304 305
300 294 299 300 299 294 291 290 289 295 294 296 295 296 294 292 293 291 293 299 300 297 302 301 292 288 287 291 296 294 296 297 295 289 289 289 289 295 297 298 299 300 302 304 304
299 296 298 290 292 294 295 293 291 289 295 296 294 294 294 289 290 290 294 297 300 300 300 299 292 294 295 297 297 296 296 296 295 295 289 292 292 295 298 298 299 300 302 303 303
295 295 299 298 296 294 294 292 292 293 295 294 292 296 296 291 291 289 295 295 294 299 296 298 292 295 292 297 297 295 297 297 297 297 296 296 294 301 298 301 300 299 301 302 303
302 302 299 297 296 294 294 293 294 296 296 298 297 296 296 297 297 301 300 300 301 297 296 296 294 292 288 293 292 288 293 297 298 299 298 294 298 301 298 300 300 300 301 302 302

GFSSW_sfc_thetae_027.txt.gz
Theta_e
318 318 318 318 318 318 319 319 319 320 322 324 325 326 326 327 326 320 312 317 320 325 326 316 315 314 314 315 318 314 299 296 298 299 301 305 304 308 310 306 308 308 307 312 319
318 318 318 318 318 318 318 318 319 320 320 321 322 323 324 325 318 313 322 328 330 326 316 312 309 310 304 310 313 307 299 301 305 304 302 306 305 307 307 307 306 307 311 311 315
318 318 318 318 317 317 317 317 318 318 320 319 320 322 323 322 309 308 326 330 331 328 320 317 314 309 304 305 308 308 303 306 307 309 308 306 305 308 304 303 308 307 310 312 313
318 319 319 318 317 317 318 317 316 317 318 319 319 320 322 315 295 313 323 326 328 324 319 315 310 302 300 302 308 304 309 310 310 311 309 305 308 305 305 305 310 311 311 311 312
320 318 319 319 318 317 318 317 317 315 317 318 318 320 314 304 303 318 323 322 317 317 314 311 306 303 297 300 303 303 306 310 311 311 310 309 305 305 305 309 311 312 312 311 311
321 319 319 319 318 318 318 318 317 317 316 316 318 320 309 296 310 312 315 312 312 314 312 311 308 307 302 300 300 304 306 307 310 310 309 306 305 305 307 309 309 309 310 310 310
322 321 320 320 318 318 319 318 318 317 316 315 316 314 305 300 309 310 313 312 312 310 304 309 311 307 306 300 304 304 300 302 303 308 307 309 302 302 307 309 307 309 308 310 306
323 321 320 320 319 318 317 317 317 318 317 316 315 310 298 311 312 310 310 308 309 308 308 308 309 304 304 306 301 298 298 293 301 305 307 306 298 305 307 306 306 307 305 304 308
323 322 320 320 320 319 316 315 315 317 318 317 309 304 296 313 306 309 309 305 307 307 307 308 304 301 301 298 292 294 289 292 296 305 305 304 299 305 307 306 305 303 303 303 305
322 322 320 320 320 319 316 313 314 315 315 314 310 299 302 299 306 308 309 308 304 303 303 302 297 292 293 293 285 287 288 292 293 299 302 301 301 303 305 306 306 304 303 301 305
322 321 320 319 319 318 312 306 301 300 305 298 299 298 301 306 307 305 307 304 302 298 292 297 290 286 289 293 293 292 290 290 296 301 300 299 300 303 304 304 301 302 300 301 303
321 320 321 319 319 317 310 301 303 304 295 303 303 302 304 307 299 302 307 297 295 290 293 291 287 292 295 294 295 292 290 290 296 301 300 299 299 303 305 304 306 303 303 301 303
320 319 320 318 317 313 307 303 308 306 294 297 302 300 302 304 298 299 302 298 293 290 291 287 289 295 293 292 291 291 289 289 291 297 299 297 296 299 302 305 304 305 305 305 304
319 319 318 317 308 307 304 310 308 308 288 290 293 299 301 302 295 304 305 300 295 290 291 290 294 292 291 290 291 287 294 293 292 293 288 297 288 294 299 300 300 300 300 304 304
318 318 318 314 304 302 306 309 309 305 276 292 294 305 302 296 298 298 305 300 293 291 291 288 290 289 288 290 294 289 295 293 293 292 293 293 291 292 296 296 300 303 299 303 304
318 318 316 310 309 309 309 308 303 286 274 289 293 291 293 295 296 298 297 301 299 293 293 290 296 294 291 293 294 295 292 292 292 291 285 291 292 289 293 298 299 300 301 302 303
317 317 314 312 302 309 308 299 285 278 290 288 289 292 290 290 291 293 292 290 287 283 281 288 290 293 295 290 292 292 286 280 279 281 282 292 291 293 296 297 300 298 301 302 304
317 316 314 310 310 308 304 292 279 286 286 293 292 291 288 291 291 290 290 287 290 288 285 280 278 288 293 290 287 288 287 279 275 279 283 293 286 291 303 298 300 302 302 302 303
316 314 310 309 310 308 296 283 281 286 292 290 291 288 287 290 290 288 286 287 289 289 283 282 282 293 294 293 292 287 284 290 286 286 286 289 290 292 295 296 300 300 301 301 302
310 309 307 310 310 303 292 285 287 294 294 293 286 289 284 286 286 286 286 290 289 292 293 288 281 289 290 294 293 292 294 283 285 279 281 284 285 286 291 293 298 299 299 301 302
307 301 308 311 308 297 285 288 291 296 297 291 289 288 289 287 287 285 287 291 293 293 293 290 286 286 289 289 289 289 289 289 290 287 282 280 285 292 293 296 297 299 300 301 302
303 295 308 309 293 293 289 291 295 294 297 294 293 292 290 290 287 286 287 291 297 295 289 292 289 283 286 296 298 296 292 292 283 285 288 285 284 294 295 296 299 299 301 302 303
299 300 308 306 288 289 293 293 294 293 293 292 291 293 294 290 288 288 290 297 298 294 291 292 286 284 286 291 296 292 294 294 293 294 289 283 284 296 294 295 297 299 301 302 302
300 293 299 301 299 293 291 291 290 295 293 294 293 295 294 290 292 289 289 296 297 296 299 296 290 286 286 290 292 289 293 297 295 289 289 288 289 291 293 295 296 300 301 301 302
300 295 297 290 292 294 294 293 290 288 293 295 291 294 292 288 289 289 293 295 297 299 298 297 288 291 292 292 295 295 295 295 293 294 291 289 291 293 294 295 297 300 301 301 301
296 296 298 294 295 293 293 292 292 292 293 291 291 294 293 290 290 287 293 294 294 297 295 297 289 292 292 297 295 294 296 296 296 296 295 294 292 295 296 296 296 299 301 301 301
301 302 300 297 294 292 292 292 293 295 295 297 295 295 293 294 297 297 298 298 298 295 292 294 292 292 286 294 294 289 294 295 295 295 296 292 295 295 296 298 297 297 301 301 301

GFSSW_sfc_thetae_030.txt.gz
Theta_e
318 318 318 318 318 317 317 318 318 319 320 323 325 327 327 326 326 320 311 316 318 326 324 315 313 312 312 310 316 312 298 294 297 297 300 304 303 306 306 304 307 307 306 309 315
318 318 318 318 318 317 317 317 318 318 319 320 322 324 325 324 318 312 322 328 330 328 315 311 308 310 303 306 310 306 299 300 303 303 302 304 304 304 305 305 304 305 309 313 317
319 319 319 319 318 317 317 317 317 317 319 319 319 321 322 321 308 307 324 330 331 328 319 316 313 308 301 303 304 307 302 305 306 308 307 305 304 306 303 302 306 306 307 310 311
320 319 319 319 318 316 317 317 316 316 318 318 319 320 320 314 290 311 324 325 330 325 318 313 309 301 298 300 305 300 307 309 310 310 309 305 306 304 304 304 308 309 309 308 309
322 320 319 319 318 317 317 317 317 316 316 318 318 319 313 303 303 314 321 322 317 319 314 311 305 302 297 298 300 299 303 307 309 310 310 310 306 304 305 308 309 310 310 309 309
323 321 320 319 319 318 318 318 317 317 316 315 318 319 307 293 309 311 311 311 312 313 311 311 307 307 301 299 297 300 301 303 306 307 308 306 306 304 306 308 307 309 308 308 309
324 323 321 320 319 318 318 318 318 317 317 316 316 314 304 299 308 309 310 308 310 312 306 311 311 305 303 299 303 301 297 300 301 301 303 308 303 304 306 307 306 306 307 307 309
324 323 322 320 319 319 318 317 316 317 317 317 315 309 297 311 311 309 309 307 308 308 307 306 306 302 301 303 300 296 294 289 298 301 303 306 297 305 307 304 304 305 305 304 306
324 323 322 320 320 320 319 316 315 316 317 317 310 304 293 311 306 308 308 304 306 306 306 308 303 297 299 296 292 291 286 288 294 302 302 302 298 305 307 303 303 303 303 304 303
322 321 321 320 319 319 317 314 314 314 315 315 310 299 301 299 306 307 307 307 303 302 301 300 297 291 291 290 283 287 285 288 290 297 299 298 299 303 305 303 303 305 306 302 302
322 321 320 320 319 319 313 306 299 298 305 300 299 298 300 305 307 306 307 303 301 297 292 295 289 285 288 291 292 291 287 287 290 297 296 296 297 300 304 303 300 302 301 300 301
320 320 320 320 319 317 308 299 301 301 293 303 303 302 304 306 299 302 306 297 295 290 292 291 287 293 292 292 292 291 288 287 291 295 296 295 295 300 303 304 304 305 302 300 301
319 319 319 319 318 313 306 302 306 306 293 297 301 301 302 304 298 299 302 298 293 290 290 287 289 294 292 290 289 288 288 288 287 292 294 292 291 296 301 304 305 306 306 301 303
318 318 319 318 309 306 303 308 306 309 287 290 293 299 302 303 296 305 305 300 295 289 291 290 293 291 290 289 290 285 292 292 290 289 282 294 285 292 297 300 302 304 301 301 304
317 317 318 314 304 302 304 308 309 305 268 290 293 305 302 297 298 298 305 300 292 291 291 287 289 289 287 288 293 288 293 290 291 288 287 287 285 290 297 296 300 302 301 302 304
316 317 317 311 309 308 308 309 304 280 271 288 293 292 293 296 296 299 298 302 300 294 292 291 296 293 291 293 293 295 291 291 290 288 281 285 285 286 293 296 298 302 299 300 303
315 316 314 310 303 309 308 300 283 271 289 287 288 290 290 290 291 293 292 291 288 283 282 288 289 292 295 289 293 291 286 279 278 278 276 286 285 287 294 299 300 301 299 301 303
314 315 314 309 310 308 303 292 276 284 285 292 291 290 287 289 290 290 289 287 290 288 284 275 274 288 292 289 287 287 286 280 271 271 277 290 284 289 298 301 303 300 301 301 302
312 312 310 309 310 307 296 282 280 285 291 289 290 286 287 290 289 289 287 285 289 289 282 278 279 292 292 292 292 285 283 288 282 284 280 284 288 294 298 295 296 298 299 300 302
307 307 306 310 310 303 290 285 286 294 294 292 284 288 285 287 286 286 284 288 288 291 291 286 278 289 291 293 293 289 291 281 283 270 274 282 284 286 291 292 295 296 298 300 302
305 300 306 310 307 296 285 288 289 296 295 290 288 288 288 287 287 284 285 289 291 291 291 289 286 285 289 285 285 286 284 286 284 283 278 280 285 294 295 295 295 297 299 300 301
302 291 307 308 294 292 288 291 295 293 297 294 293 292 290 291 288 284 284 288 294 293 287 291 288 282 284 291 292 289 287 287 280 278 284 283 283 294 294 297 299 298 300 301 302
299 298 306 305 286 288 292 292 294 293 293 292 291 293 294 290 287 287 289 294 296 294 291 292 286 280 284 287 293 287 290 289 289 289 282 281 283 295 292 294 298 297 299 300 301
299 291 298 300 298 292 290 290 290 296 294 294 292 294 292 290 292 289 289 293 296 296 298 295 288 284 282 287 291 288 289 291 288 283 283 285 288 292 291 293 296 297 299 299 301
299 294 297 289 291 293 293 293 290 290 294 295 290 291 291 288 288 287 291 293 296 298 296 293 286 286 287 288 290 292 291 292 288 289 284 287 289 294 293 293 296 298 299 299 299
296 295 296 293 295 294 293 291 291 292 292 290 289 292 293 290 289 285 290 292 293 295 294 296 286 287 288 295 292 291 293 293 292 291 288 295 294 297 294 294 295 297 299 299 299
301 300 298 294 294 292 292 292 293 295 295 296 293 292 292 293 296 296 296 296 297 295 292 292 290 287 287 293 292 287 289 294 291 296 298 293 295 296 294 295 296 297 299 299 300

GFSSW_sfc_thetae_033.txt.gz
Theta_e
319 318 318 318 319 319 318 318 318 319 320 322 324 327 327 327 327 321 313 317 319 325 324 314 313 312 310 307 314 308 297 294 296 295 298 302 301 305 305 301 305 304 306 308 314
320 319 319 319 318 319 318 318 317 318 319 319 322 324 325 324 318 314 322 329 330 329 314 309 306 309 302 303 308 306 299 298 301 300 299 303 302 304 304 304 303 303 307 313 317
321 320 319 319 319 318 318 318 316 317 318 318 319 321 322 320 307 306 324 329 332 329 317 315 311 307 300 301 303 304 301 304 305 306 306 303 303 305 302 301 305 305 306 309 314
323 321 320 319 319 318 317 318 317 315 317 318 318 319 320 313 290 308 324 325 328 324 317 313 307 299 297 298 304 297 303 307 308 310 308 304 306 303 302 303 306 307 308 307 308
324 322 321 319 319 319 317 318 317 316 315 317 318 319 312 302 302 311 323 318 319 320 314 310 304 300 295 296 298 297 300 304 307 308 308 309 306 304 305 307 308 308 308 307 307
325 324 322 320 319 319 318 318 318 317 316 315 317 318 306 291 307 310 310 310 311 314 312 311 306 306 300 299 296 298 299 300 302 303 304 304 304 305 304 307 306 307 307 308 307
324 324 322 321 319 319 318 319 318 317 317 315 316 313 303 298 307 307 309 307 307 311 308 311 310 304 303 298 302 300 295 298 299 300 300 303 299 301 307 307 304 305 305 307 308
324 323 323 321 320 319 318 319 317 317 317 316 315 308 296 310 310 309 308 306 307 307 307 308 307 304 301 303 298 294 292 288 296 299 300 302 293 302 307 308 304 304 303 304 306
322 323 322 321 320 320 320 318 315 315 316 317 310 301 292 309 305 307 307 304 305 304 304 308 304 296 298 294 289 289 285 285 291 299 299 299 294 301 307 304 302 302 302 304 304
321 321 321 320 320 319 318 316 314 313 314 315 309 299 300 299 304 307 306 306 302 302 300 299 296 293 294 291 280 282 287 287 287 294 296 295 295 300 303 303 302 302 302 303 303
319 319 320 320 320 319 314 305 299 297 305 300 300 299 300 305 307 305 306 303 300 297 290 294 288 285 288 290 290 289 286 285 289 294 292 291 293 297 300 301 302 301 302 302 302
316 319 319 319 320 318 308 298 299 301 294 302 303 301 304 306 298 301 306 296 294 289 291 289 286 290 291 291 290 289 287 286 290 293 291 290 290 294 296 297 301 303 303 303 300
315 315 318 319 318 313 306 302 306 303 291 296 300 300 301 303 298 299 301 297 291 289 289 286 287 293 291 289 287 287 285 286 286 290 292 289 287 289 295 299 302 304 305 306 303
314 313 318 317 311 309 304 306 304 308 287 290 293 298 302 303 296 304 304 299 294 288 289 289 293 290 289 287 288 284 290 289 288 286 279 288 279 287 291 295 299 302 304 304 301
312 312 317 317 306 303 304 307 307 303 269 289 293 305 303 297 298 297 306 300 292 291 289 286 288 288 287 288 292 287 292 290 290 286 283 284 280 283 292 291 296 298 303 301 301
311 310 315 311 308 307 308 308 305 284 272 287 292 293 293 296 297 298 298 302 300 293 293 291 296 291 289 292 292 293 290 290 289 286 278 283 282 281 285 291 295 299 301 301 302
311 310 312 311 302 309 308 302 284 276 288 286 287 290 290 289 292 294 291 291 289 284 283 287 289 293 293 288 291 290 286 279 277 278 276 283 282 284 288 293 297 298 298 300 300
310 310 311 311 310 309 303 291 277 283 284 292 290 290 285 289 289 290 290 287 291 289 283 277 275 286 291 289 285 286 285 279 273 275 276 285 279 284 292 295 296 298 299 298 300
310 307 307 309 310 308 297 282 279 283 290 289 289 286 286 290 290 289 288 286 287 289 283 279 278 289 290 292 290 285 283 287 281 283 279 281 284 288 294 295 295 296 297 297 300
304 303 304 310 310 303 291 284 284 291 292 291 283 287 284 287 286 287 286 288 288 290 289 283 276 287 291 292 292 288 289 281 282 273 273 277 280 283 287 290 293 293 295 297 300
299 296 306 310 308 296 285 288 288 295 294 289 287 287 287 286 287 285 284 287 290 290 291 287 285 284 289 286 285 286 284 285 283 280 274 272 280 289 291 292 291 294 296 299 300
299 288 307 308 288 291 288 290 294 293 295 293 293 291 289 289 288 284 283 287 292 291 286 289 287 281 283 290 292 290 286 286 279 275 279 280 280 292 291 292 295 297 298 300 300
292 296 306 302 284 286 292 291 294 292 292 291 291 293 294 290 288 288 287 292 293 291 288 291 285 279 282 286 289 287 288 287 286 284 278 275 279 293 292 294 295 297 300 301 300
293 287 297 296 296 291 290 290 289 295 294 294 292 294 291 290 292 287 288 292 294 293 298 295 288 283 280 284 287 285 287 287 285 281 281 282 284 288 291 293 294 296 299 300 300
295 290 293 286 289 291 292 290 289 290 294 296 292 291 290 288 288 288 289 291 294 297 296 293 284 287 287 288 289 288 286 286 284 285 282 285 285 289 293 294 296 298 298 298 299
293 295 297 293 294 292 291 290 290 292 292 290 290 291 291 289 289 285 289 290 290 295 294 294 286 287 285 290 289 287 289 288 289 287 288 290 288 295 296 298 296 297 298 298 298
300 301 297 295 293 291 291 292 292 295 295 295 293 292 291 293 296 296 294 295 294 293 292 290 288 286 284 289 289 285 290 288 290 291 289 286 292 295 294 295 296 297 299 299 299

GFSSW_sfc_thetae_036.txt.gz
Theta_e
321 320 319 318 319 319 318 318 318 319 320 320 323 326 327 328 327 321 313 317 318 326 323 313 311 311 308 306 312 306 296 293 294 294 296 300 299 304 304 300 303 303 305 306 314
323 321 320 319 319 319 319 318 317 318 319 319 320 323 325 324 319 316 323 329 331 329 315 309 305 308 301 302 306 304 297 296 300 299 298 301 301 303 303 302 302 303 306 312 317
324 323 321 320 319 319 318 318 317 317 318 319 319 320 321 320 306 306 323 330 332 330 316 313 310 306 299 300 301 302 299 302 304 306 306 303 302 304 301 300 304 302 305 309 315
324 324 322 321 319 319 318 318 317 316 317 319 318 319 319 312 291 306 323 323 326 325 318 312 306 298 296 296 302 295 302 305 307 309 307 304 306 304 302 303 306 305 307 306 306
324 324 323 321 320 319 319 317 318 317 315 317 318 319 311 300 301 310 320 316 319 319 315 311 303 299 294 295 297 295 299 302 303 303 305 307 304 305 305 307 310 310 308 307 306
323 324 323 323 321 320 319 317 318 317 316 315 317 317 304 289 304 308 308 308 311 317 313 311 305 304 298 297 295 297 298 298 300 300 301 301 302 302 305 308 306 306 306 307 306
321 322 322 322 321 319 320 318 318 318 317 316 316 312 302 296 306 308 308 305 306 311 309 311 310 303 303 296 301 299 294 296 297 299 298 301 297 298 305 307 306 307 306 306 306
318 320 321 321 321 320 319 319 319 318 317 317 315 307 294 308 308 308 307 304 305 306 307 310 311 305 301 299 297 294 293 286 294 297 298 299 291 299 303 304 304 305 304 305 307
315 318 320 321 320 320 320 318 317 315 316 317 308 299 293 308 302 306 306 302 304 303 304 308 303 297 297 292 289 292 283 285 290 296 297 296 292 299 302 301 301 302 302 304 304
313 315 318 319 320 319 319 317 315 312 312 314 308 298 299 298 303 305 305 305 301 301 300 298 298 291 292 290 279 281 282 285 286 292 293 292 292 297 300 300 300 301 301 301 303
311 314 315 318 319 319 315 306 298 295 303 299 300 298 300 304 306 304 305 302 300 296 290 293 288 286 288 289 289 287 284 284 288 293 290 289 290 293 296 297 297 300 301 301 302
311 313 315 315 319 318 310 300 298 299 292 301 302 301 304 305 298 301 305 296 294 288 291 289 285 289 290 289 289 287 286 286 289 292 290 289 289 293 294 296 297 298 301 302 303
309 310 314 313 317 314 306 302 305 303 290 294 299 301 301 303 298 298 300 296 291 288 288 285 287 292 291 288 286 286 285 285 284 288 290 288 285 287 292 294 296 298 299 303 304
308 309 311 314 311 309 304 307 307 304 281 287 293 297 301 301 295 303 303 297 292 287 288 288 292 290 288 286 287 283 289 288 286 284 279 286 278 284 288 290 291 294 298 301 302
308 308 310 312 308 304 306 306 308 296 268 289 292 305 303 295 297 297 304 300 292 290 289 286 287 287 286 287 289 285 291 288 288 284 282 283 279 281 286 287 290 293 296 300 303
307 308 310 308 310 309 308 308 301 278 273 287 293 293 294 296 297 298 299 302 299 293 293 290 295 291 289 291 291 292 289 288 288 286 279 282 280 282 284 286 289 293 296 300 302
308 308 307 309 304 309 309 302 284 277 287 285 287 291 291 290 292 293 292 292 288 284 284 288 289 293 294 288 290 288 285 277 275 276 275 283 280 283 286 288 290 292 295 298 300
307 308 308 309 310 309 304 290 275 283 283 291 289 289 286 289 289 291 290 287 292 290 284 280 275 287 293 289 284 285 284 275 268 272 275 283 278 282 290 293 294 295 295 297 297
308 302 304 309 310 308 296 282 279 283 289 288 288 284 284 288 288 288 288 287 289 291 284 280 277 287 289 291 290 285 282 287 280 279 276 281 282 288 290 290 292 293 293 292 296
298 299 302 309 311 303 290 284 284 290 291 290 282 285 282 286 285 287 286 287 288 290 291 283 274 285 288 291 291 288 290 281 281 273 271 275 277 280 286 288 290 292 292 295 297
298 293 304 310 307 295 284 286 287 294 293 289 285 285 285 286 287 286 284 287 289 289 291 286 282 281 288 286 284 286 284 285 284 281 271 270 276 285 288 290 293 292 291 294 297
298 288 305 308 289 289 287 291 294 292 294 292 290 289 287 288 287 286 283 287 291 290 286 289 286 280 281 289 292 289 286 286 279 275 278 275 278 291 291 293 295 294 294 296 298
293 294 306 303 283 285 291 291 292 292 291 290 289 291 292 289 286 289 288 292 292 290 287 289 284 276 277 286 289 286 287 287 286 285 278 273 277 290 291 292 295 295 296 297 297
293 288 295 295 294 290 289 288 288 294 292 293 291 293 291 290 291 287 289 293 293 292 295 294 287 282 279 283 287 284 286 286 285 280 279 279 281 286 289 292 293 294 298 298 296
293 288 292 285 287 292 292 291 288 288 292 294 291 291 289 288 288 288 291 290 293 295 294 292 285 286 287 288 288 287 287 286 284 284 279 282 283 288 291 293 291 296 298 299 296
293 292 295 290 293 291 292 287 288 290 290 290 289 291 291 289 290 287 289 290 289 292 291 293 286 288 285 289 289 286 288 288 287 287 285 285 284 293 295 291 293 294 297 299 297
300 300 293 291 292 290 290 290 290 293 293 293 293 292 290 292 295 296 295 295 293 292 292 291 288 286 283 289 288 285 287 288 288 289 288 283 288 293 293 296 295 295 298 299 298

GFSSW_sfc_thetae_039.txt.gz
Theta_e
326 324 322 320 319 318 319 319 319 319 319 320 320 324 327 328 328 321 313 318 320 328 323 316 313 312 311 309 314 309 301 297 297 296 300 305 303 308 309 306 308 310 311 313 320
324 325 324 321 319 319 319 319 318 318 318 319 319 322 324 324 320 316 325 329 330 329 318 311 307 309 304 306 310 308 301 299 303 302 302 304 304 305 307 306 307 309 312 317 321
324 324 324 323 321 319 319 318 318 317 318 319 318 319 321 319 307 308 322 329 332 330 317 314 311 308 302 304 305 306 300 304 305 307 309 307 306 308 305 305 308 308 310 312 319
322 323 324 324 322 320 319 318 318 318 316 318 318 318 319 313 293 308 323 323 326 326 317 313 307 301 299 298 303 299 303 306 307 309 308 306 309 308 306 308 310 310 311 311 312
319 322 323 324 323 321 320 319 318 318 316 317 317 318 311 300 302 311 318 314 321 319 315 311 305 301 297 298 299 299 301 303 305 303 303 307 306 307 307 312 312 313 314 313 313
316 318 320 322 323 322 320 319 317 318 317 315 316 316 304 289 304 308 309 308 314 317 313 311 308 305 301 299 298 299 300 300 302 302 302 302 303 304 306 311 311 311 312 312 311
314 315 317 319 322 321 320 320 318 319 318 316 316 312 302 296 307 309 309 306 308 315 312 313 311 305 303 299 303 300 296 298 299 300 300 302 297 298 305 308 308 309 310 312 313
312 313 315 316 320 321 320 320 319 319 318 317 316 308 294 308 309 308 308 305 307 310 311 314 312 307 302 302 298 296 295 289 296 298 300 300 290 300 304 304 304 306 308 310 312
311 311 313 315 316 320 320 320 319 317 317 316 308 300 294 308 302 306 307 303 304 305 306 313 305 299 299 293 289 290 284 287 291 298 298 297 293 300 304 302 302 303 306 307 309
310 311 311 313 314 318 319 318 316 313 313 313 310 298 300 298 303 305 306 305 302 301 301 300 298 293 294 291 281 283 284 287 288 293 294 292 292 296 300 300 301 302 303 305 306
309 310 311 312 314 317 316 308 300 298 303 296 299 297 300 304 307 303 305 302 301 298 291 295 290 287 289 290 289 288 287 286 290 293 291 290 291 294 297 298 297 299 301 303 305
308 309 310 311 314 315 311 301 298 299 291 300 301 301 304 305 297 301 305 296 295 289 292 290 286 291 291 290 289 288 286 285 289 292 290 289 288 292 294 295 297 298 299 301 304
307 308 309 310 312 310 306 303 305 303 290 294 298 300 301 302 297 297 301 296 292 288 289 286 288 292 290 289 287 287 285 285 285 289 290 288 286 289 293 294 296 298 299 301 302
307 308 308 308 305 305 304 307 307 305 281 287 293 297 301 301 294 303 302 297 292 288 289 288 292 290 288 287 288 283 289 288 287 285 280 288 278 287 290 291 293 294 296 298 300
306 307 307 307 302 303 307 308 307 300 267 289 293 305 302 296 296 297 303 299 291 290 290 286 288 287 287 287 290 286 290 288 288 285 283 284 281 286 288 288 290 293 295 296 300
306 306 307 304 304 306 310 308 301 282 269 287 293 294 294 295 296 298 298 302 299 293 292 290 294 291 289 291 291 292 288 289 288 286 278 283 282 283 287 289 291 293 295 298 300
306 307 305 305 299 309 309 301 283 275 286 285 287 292 292 290 293 293 293 290 288 284 284 289 290 294 294 289 291 289 286 277 275 276 275 283 281 284 289 291 292 292 294 296 300
306 307 305 305 307 309 304 289 278 283 283 290 289 290 287 290 290 292 290 288 292 289 284 281 277 288 293 290 286 287 286 278 269 272 276 283 279 284 291 294 295 295 296 297 299
308 302 302 303 308 308 293 283 280 283 289 287 288 285 284 288 288 288 288 288 290 292 283 281 280 287 290 291 291 285 282 287 279 280 276 280 283 288 292 291 293 293 295 296 296
300 295 297 305 308 303 289 285 284 290 291 290 283 285 282 284 284 285 285 288 289 293 293 286 280 284 288 291 291 287 290 280 281 274 273 277 279 281 286 288 291 294 297 296 296
298 290 302 308 307 292 284 286 287 293 292 288 285 284 285 285 285 285 284 288 290 289 292 288 283 281 288 285 283 285 283 285 284 282 276 275 278 286 287 290 293 295 297 297 294
297 287 304 307 287 286 286 289 295 292 293 291 291 288 286 287 286 286 285 286 291 290 287 289 286 278 280 288 290 288 286 285 279 278 281 279 279 292 292 294 295 296 298 298 298
291 291 305 301 283 285 291 291 293 292 291 290 289 291 291 288 285 288 289 292 291 289 286 289 285 278 277 284 288 286 287 288 286 284 280 276 279 290 291 291 294 296 299 297 296
292 286 291 294 292 288 288 288 289 295 292 292 291 292 291 289 291 288 289 293 292 292 295 293 286 280 277 282 287 284 286 286 284 280 281 281 282 287 288 290 293 295 299 297 295
293 287 291 285 288 291 291 290 288 287 292 292 289 290 289 286 287 287 290 290 292 294 293 291 284 286 286 287 288 286 286 286 283 284 281 284 283 287 290 292 293 296 299 298 294
291 289 294 290 291 291 291 289 289 289 290 289 288 290 291 288 289 286 289 289 288 292 291 293 286 288 285 289 289 286 289 288 288 287 285 286 285 292 292 295 295 296 298 298 295
297 299 293 292 290 290 290 289 290 292 291 292 292 290 290 291 294 295 296 295 294 292 291 291 288 286 282 288 288 286 289 288 288 289 288 284 288 292 291 293 295 297 299 300 296

GFSSW_sfc_thetae_042.txt.gz
Theta_e
325 325 325 324 321 320 319 319 320 319 319 319 320 322 325 327 328 323 316 321 323 328 325 320 317 315 316 313 318 317 303 299 300 301 303 309 307 311 313 311 313 314 315 318 323
322 323 324 325 323 321 320 320 320 319 318 319 319 320 323 323 322 317 325 328 330 329 320 316 312 312 309 310 313 310 303 301 306 307 305 307 308 310 309 310 311 314 316 320 323
319 322 323 324 324 322 320 320 319 318 317 318 319 319 320 321 311 313 327 332 332 331 324 318 315 311 306 309 309 309 303 306 308 309 310 310 310 312 309 307 312 312 315 317 320
315 318 320 322 323 323 321 321 319 318 317 317 318 318 319 316 296 316 323 322 327 328 320 316 312 307 304 303 307 302 307 308 308 311 310 309 312 310 310 310 315 316 316 317 318
312 315 317 318 321 322 322 321 319 319 318 316 317 318 313 304 306 314 316 315 322 324 316 312 309 308 303 303 304 302 304 306 307 308 307 308 306 308 309 314 317 318 318 318 319
312 312 314 316 318 321 322 321 320 319 318 316 316 317 307 294 309 312 312 313 321 319 317 314 309 310 305 303 302 303 303 304 305 305 306 304 305 306 308 311 311 312 314 316 318
310 311 312 313 315 318 321 321 320 319 319 317 316 313 304 301 310 313 311 311 314 319 314 316 314 309 308 302 306 304 299 302 303 304 303 305 300 301 308 309 308 310 312 313 315
310 310 311 312 314 316 319 321 320 320 319 318 317 310 300 310 313 310 311 309 316 318 318 318 315 309 305 305 301 298 298 294 300 301 302 302 294 302 307 307 307 308 310 311 313
309 310 310 311 312 314 315 320 320 319 319 318 311 306 299 310 305 309 310 306 310 311 314 317 313 304 303 297 294 295 290 292 294 301 300 300 297 303 308 306 306 307 309 311 312
308 309 309 311 312 312 314 320 319 317 315 314 311 300 303 300 304 307 310 309 306 307 306 304 302 297 297 294 288 290 289 291 291 296 298 296 296 301 304 304 304 306 308 309 310
307 308 309 310 310 311 312 312 300 299 304 299 299 299 301 306 309 305 308 306 305 303 295 299 293 290 294 296 295 292 291 290 293 296 294 293 294 296 299 300 300 302 304 305 308
307 307 308 309 309 310 310 302 302 305 295 302 303 303 305 306 299 303 308 300 299 294 297 294 288 295 296 295 293 292 290 290 293 295 293 293 292 296 298 299 300 301 302 302 304
307 307 307 308 308 307 303 302 309 307 296 296 301 301 303 304 299 299 303 300 296 293 294 291 292 295 294 292 290 291 289 290 289 292 294 292 291 295 297 299 300 301 302 303 303
307 307 307 307 304 304 299 309 308 306 291 290 294 298 303 303 296 305 305 300 296 292 293 293 296 292 291 290 292 287 293 291 290 288 284 291 284 292 296 297 299 300 301 302 303
306 307 307 307 300 298 304 310 308 302 279 292 294 306 303 297 298 299 305 300 293 292 293 290 291 291 288 290 293 288 293 291 290 287 285 287 282 289 294 292 295 298 301 302 304
307 307 306 304 304 304 308 309 302 285 279 288 294 294 294 295 296 299 298 302 300 294 293 293 296 294 293 294 294 294 291 291 290 287 280 286 285 287 291 293 295 298 300 301 303
306 307 305 305 298 307 308 299 283 282 290 286 288 293 292 290 293 295 293 291 290 285 286 291 291 295 295 290 293 291 288 282 279 278 279 287 285 288 293 295 296 297 299 301 303
306 308 306 304 308 307 302 286 280 286 287 291 291 292 288 291 292 292 291 288 293 291 288 285 284 291 295 292 289 288 287 282 275 278 281 286 282 288 295 297 298 299 300 302 304
306 304 302 306 308 306 294 282 285 287 290 288 290 286 286 289 290 289 289 288 292 293 286 285 283 291 294 294 293 288 284 290 283 285 280 283 288 293 295 295 296 297 300 301 303
301 301 302 308 308 300 289 286 287 293 293 292 285 287 283 286 287 287 288 292 291 295 296 289 283 288 290 294 294 291 292 282 284 275 276 282 284 285 291 292 295 296 299 300 303
300 294 303 308 306 290 285 287 290 295 294 291 288 287 288 286 288 287 288 291 294 294 296 291 287 286 288 286 286 286 285 287 286 284 278 277 283 293 291 292 294 297 299 301 303
296 286 304 307 288 287 288 289 295 293 296 294 293 291 289 290 288 288 288 290 295 295 290 292 287 282 284 292 293 292 288 287 281 280 282 282 282 294 294 295 297 297 298 301 304
292 290 304 303 286 287 291 292 294 293 293 292 291 294 294 290 287 290 291 295 295 293 291 292 285 281 284 288 290 287 289 289 288 286 281 279 283 294 295 296 297 296 298 301 302
292 286 292 295 295 292 289 290 290 296 293 295 293 295 293 290 292 289 290 294 295 294 296 295 288 285 282 286 289 285 287 288 285 282 284 284 286 291 292 293 295 296 297 302 302
290 287 292 287 290 292 293 292 290 289 294 295 292 292 291 288 289 289 291 292 294 294 294 292 285 287 288 289 289 289 287 287 285 285 282 287 287 291 293 293 295 296 299 301 300
288 287 292 292 293 292 293 291 291 291 292 291 291 292 292 290 291 288 290 290 290 294 292 293 286 288 285 290 290 287 291 291 291 290 287 287 287 295 297 297 296 298 298 299 300
297 298 293 292 291 291 290 292 292 294 294 295 294 293 291 293 296 296 296 296 295 293 291 290 287 286 283 290 289 288 291 291 291 290 290 285 291 296 295 296 295 297 299 300 299

GFSSW_sfc_thetae_045.txt.gz
Theta_e
319 322 323 324 325 323 322 321 320 321 320 319 319 320 322 325 327 322 316 323 325 329 327 321 318 317 317 314 316 318 305 299 302 301 304 310 307 312 314 311 313 315 315 321 325
316 318 320 322 323 324 323 321 320 320 319 318 319 320 321 323 321 316 325 328 329 330 321 316 313 314 310 311 313 310 302 302 306 307 306 309 309 310 310 310 310 313 317 321 324
313 314 316 319 320 323 324 322 321 320 319 317 319 319 319 320 313 314 330 331 332 330 324 320 317 313 307 309 310 309 302 306 307 310 311 309 308 312 309 307 311 311 315 318 321
311 312 314 316 318 320 323 323 321 320 319 317 319 319 319 317 298 318 324 331 332 328 323 318 314 308 306 304 308 303 307 308 309 311 311 309 311 309 310 310 314 316 318 318 318
310 311 312 314 315 317 319 322 322 320 319 317 318 318 313 307 307 320 318 318 321 323 319 315 310 309 304 306 307 304 306 307 309 309 309 310 308 308 310 314 316 316 317 318 319
310 309 310 312 313 313 317 320 322 321 320 318 317 318 309 297 311 316 316 316 319 319 317 316 310 312 307 305 304 306 306 306 307 307 307 305 305 307 308 312 312 313 314 316 318
309 309 310 311 312 312 315 317 321 321 320 319 317 314 306 303 311 312 314 315 320 317 315 317 315 308 308 303 307 306 301 303 304 305 304 306 301 302 308 310 309 310 312 312 314
309 308 309 310 311 312 314 315 317 321 320 319 317 311 302 312 314 311 313 313 321 321 317 317 316 310 307 306 302 299 300 295 302 303 304 303 295 304 309 308 307 309 310 311 313
309 308 308 309 310 311 313 313 315 320 319 318 312 308 301 311 306 311 311 308 315 317 319 317 314 306 304 298 295 297 292 295 298 303 302 301 298 304 308 308 306 308 309 310 311
308 308 307 308 309 310 311 312 314 318 316 315 311 302 304 302 307 309 311 310 308 309 308 307 304 298 299 296 289 292 292 294 294 299 299 297 297 302 305 305 305 307 309 310 310
308 307 307 308 309 310 309 306 305 302 306 301 302 300 303 307 309 307 309 307 307 304 297 300 295 292 296 297 297 294 293 293 296 299 296 295 296 298 302 302 302 303 304 306 308
307 307 307 308 308 309 307 298 299 302 295 304 303 304 306 307 300 303 309 301 300 295 298 294 291 297 299 298 296 295 292 292 296 298 295 294 294 298 300 301 302 302 303 304 306
307 307 307 307 308 306 303 301 307 304 295 299 303 302 303 305 300 300 305 302 298 295 294 292 294 297 296 294 292 293 291 292 291 295 296 294 292 297 301 302 303 304 304 305 305
307 306 307 307 303 303 300 305 306 308 288 290 295 300 304 304 298 306 306 302 298 294 295 295 297 293 293 292 293 289 295 293 292 290 287 294 285 293 297 299 300 301 303 304 305
306 306 307 306 302 299 303 307 305 302 280 294 295 306 304 298 300 300 306 301 294 294 295 291 293 292 290 292 294 290 294 292 291 288 286 288 285 291 296 294 297 301 302 303 305
306 306 306 303 304 304 307 306 300 283 280 288 294 293 294 296 298 300 299 302 300 294 295 294 298 296 295 295 295 295 291 291 290 288 281 288 287 288 292 295 297 300 301 302 304
306 306 304 305 296 307 306 299 282 278 291 286 289 293 292 290 293 295 293 291 290 285 285 291 292 295 296 291 294 292 288 282 280 279 280 289 287 289 295 297 297 298 300 302 303
306 307 306 305 307 307 301 287 279 286 287 292 292 292 288 291 292 292 291 288 293 292 289 285 284 292 295 292 289 289 288 283 277 280 283 289 283 289 297 298 299 300 301 302 302
307 305 303 305 308 307 294 281 284 288 291 290 291 287 288 290 291 291 290 290 292 293 288 287 286 294 296 296 294 289 284 291 284 285 281 284 289 294 297 297 298 299 300 300 302
300 300 303 307 308 301 289 284 287 294 294 293 286 288 285 288 289 289 289 294 291 295 297 291 285 291 293 295 295 292 294 282 283 276 277 284 287 288 293 295 297 297 298 300 303
300 293 304 309 307 293 285 287 290 295 296 292 289 288 288 287 289 288 289 293 296 295 296 293 289 286 290 288 288 288 286 287 288 285 280 280 285 296 294 295 295 297 299 301 302
296 287 304 307 289 289 288 291 295 294 297 295 294 292 290 291 289 290 289 292 297 297 291 293 289 284 286 293 294 292 289 288 281 282 284 283 284 296 296 297 297 297 299 301 302
292 290 306 304 287 288 292 292 294 293 294 294 293 294 295 291 288 291 293 296 297 296 293 293 287 282 285 288 292 288 290 290 289 287 282 280 284 297 297 297 298 298 299 300 300
291 287 293 295 297 291 290 289 291 297 295 297 295 296 294 292 294 291 292 294 297 296 297 296 289 286 284 287 290 285 289 290 286 282 284 285 287 292 295 296 297 297 299 300 300
290 288 292 288 291 292 294 292 290 290 296 297 294 294 293 289 291 291 293 293 295 296 295 293 286 288 289 289 290 289 289 290 286 286 282 286 287 292 295 296 297 298 298 298 301
290 289 292 294 294 293 293 292 291 292 293 292 293 294 294 291 292 290 293 292 291 294 293 293 286 288 285 290 291 290 292 293 292 291 290 290 288 296 298 299 297 297 297 298 299
298 297 293 293 293 292 292 293 293 295 295 296 296 294 292 294 297 298 298 297 297 293 291 290 287 285 283 290 290 288 293 293 292 293 291 287 293 297 295 296 296 297 298 299 300

GFSSW_sfc_thetae_048.txt.gz
Theta_e
314 316 318 319 321 322 324 324 322 321 321 321 320 320 320 322 325 322 314 322 325 330 326 323 318 316 316 312 313 313 300 297 298 299 301 306 304 308 309 306 309 307 308 316 326
312 313 314 316 318 320 321 324 323 322 321 320 319 319 320 321 317 314 323 330 331 330 318 315 311 312 308 309 309 306 300 301 305 304 303 306 305 306 305 305 305 307 311 318 319
312 311 312 313 315 318 319 321 323 322 321 320 318 320 319 318 311 311 329 330 331 330 323 319 315 311 305 307 307 305 300 305 305 306 309 307 306 307 304 303 306 305 309 314 318
311 311 311 311 313 315 316 318 321 323 321 319 318 319 319 314 296 318 331 331 332 328 321 317 313 306 303 301 306 301 306 306 307 309 308 306 309 306 305 305 310 310 311 313 313
311 310 310 311 311 312 313 315 318 322 322 320 318 319 313 305 306 322 324 322 326 324 318 315 308 306 302 304 304 301 303 306 307 307 306 309 306 305 306 309 311 312 313 312 312
311 311 310 309 311 311 313 314 316 319 322 320 318 319 307 296 312 318 317 315 317 319 318 317 311 311 306 304 303 305 304 304 306 305 305 303 303 304 304 308 308 310 310 310 312
311 311 310 309 310 310 312 313 316 316 319 320 318 313 305 301 311 312 315 312 318 316 315 317 315 309 308 303 307 305 299 302 303 303 302 304 299 300 305 307 306 306 307 309 310
310 310 310 309 309 309 310 312 313 315 316 321 319 310 300 313 314 310 311 311 316 318 318 318 317 310 307 306 302 299 299 292 299 302 303 301 292 301 305 304 303 305 306 307 308
310 309 309 309 308 309 310 311 312 313 315 320 312 307 299 312 307 310 310 308 314 315 317 318 314 306 304 297 293 294 288 291 295 301 299 298 293 301 304 302 301 302 304 306 307
309 309 308 308 308 309 309 310 311 311 313 315 312 302 304 301 307 309 310 310 310 311 309 308 305 298 297 293 285 288 288 291 291 296 297 295 294 299 301 301 300 302 302 303 305
308 308 308 308 308 308 307 305 300 300 306 301 301 301 302 308 309 306 308 306 307 306 297 302 295 290 293 295 295 294 291 290 293 297 294 292 293 295 298 298 298 300 301 303 305
308 308 307 307 308 308 305 297 298 300 292 305 305 304 305 307 300 304 308 300 300 294 298 294 288 296 298 297 295 293 290 289 293 296 293 291 291 295 297 297 298 299 299 301 302
307 307 307 307 307 305 301 300 305 302 289 297 303 302 302 305 299 300 304 301 296 294 294 290 293 298 295 294 291 291 289 289 289 293 293 290 288 292 296 298 299 300 301 301 301
306 307 306 307 302 302 298 306 305 303 285 290 296 300 303 304 297 305 306 302 297 293 294 293 297 293 292 292 292 287 293 292 291 287 282 290 279 288 292 294 296 296 297 299 301
306 306 306 306 300 297 301 306 305 298 274 293 295 307 303 298 299 299 306 301 294 294 294 290 292 291 290 291 294 289 294 291 290 285 283 284 279 285 291 290 292 294 296 298 298
306 306 306 303 302 302 306 304 299 282 275 288 294 295 295 298 297 299 299 302 301 295 295 294 298 295 293 295 295 295 291 290 288 285 278 283 282 282 287 289 291 294 294 297 297
306 306 305 305 295 304 304 297 281 277 288 287 289 294 293 292 293 294 293 291 288 284 285 290 291 295 296 292 294 292 287 276 276 276 274 287 284 285 292 293 294 294 292 295 294
307 307 306 305 307 304 300 287 276 286 286 292 291 292 288 292 292 292 291 288 293 290 287 283 281 291 295 291 288 289 287 278 272 273 278 286 279 284 293 295 295 296 295 296 295
307 303 303 304 307 303 292 279 282 287 290 290 290 287 287 290 291 290 289 288 291 292 287 284 286 294 295 295 293 288 284 288 281 281 274 280 283 289 293 292 293 293 295 295 296
300 299 300 307 307 299 288 284 286 290 293 293 285 289 284 287 288 288 288 292 291 294 295 291 284 291 294 295 294 290 291 281 279 268 270 278 280 283 288 290 293 292 292 294 296
299 292 302 308 305 293 283 286 288 294 296 291 289 288 288 287 289 287 288 293 294 293 295 292 287 285 290 287 286 287 286 285 284 279 272 273 279 289 289 291 291 292 294 295 295
294 286 304 306 288 288 287 289 293 293 297 295 294 292 289 290 288 288 287 292 296 296 290 293 289 283 284 291 293 292 287 286 276 274 279 276 280 294 292 291 293 293 295 296 297
291 291 304 302 283 284 291 291 292 293 294 294 293 294 293 290 286 291 291 295 297 295 292 292 286 279 283 286 291 285 288 288 287 284 279 277 280 293 294 295 297 297 296 296 297
292 286 293 295 294 290 289 288 290 296 296 297 294 295 292 291 293 290 290 294 296 296 299 296 289 280 277 284 288 281 286 287 286 281 281 282 283 289 292 295 297 297 298 297 298
292 288 291 287 289 292 293 291 289 290 296 297 294 294 292 289 290 289 292 292 295 296 293 291 283 285 287 288 288 287 286 287 285 285 282 284 286 291 294 295 295 297 298 298 298
290 288 290 291 294 292 293 290 291 292 293 292 292 294 294 291 292 289 291 291 289 292 292 293 283 287 281 288 288 285 288 289 289 290 289 290 290 296 298 296 296 297 298 298 298
298 297 293 293 292 291 291 291 293 295 296 297 295 293 292 294 296 296 297 296 295 291 290 290 287 284 281 288 288 284 289 290 292 294 293 288 293 297 295 297 296 297 298 299 298

GFSSW_sfc_thetae_051.txt.gz
Theta_e
313 313 313 313 314 317 319 321 322 324 322 321 321 320 320 320 321 319 312 318 323 332 326 321 317 315 313 308 309 306 294 292 296 297 298 304 301 306 306 304 305 305 308 319 328
312 313 313 312 312 313 316 319 320 322 323 322 321 320 319 320 314 311 322 328 332 333 320 314 311 311 305 305 305 300 295 296 302 302 300 304 304 304 303 302 301 303 312 316 326
313 312 312 312 311 312 313 314 317 319 322 322 321 319 319 318 308 308 327 330 332 331 319 316 314 309 303 304 302 300 295 303 305 306 306 305 304 306 302 300 302 302 306 313 317
313 313 312 312 311 311 311 313 314 316 319 322 321 318 319 313 293 316 331 330 332 327 321 316 312 307 300 299 303 298 302 304 305 307 306 304 307 304 303 302 307 307 308 310 312
313 313 312 312 311 310 311 311 313 315 318 320 320 318 314 303 304 321 328 330 325 322 317 314 309 305 299 300 301 297 300 304 305 305 304 306 303 303 303 307 309 309 309 308 310
313 313 312 311 311 310 310 310 312 313 316 318 321 319 308 295 311 321 320 319 321 319 316 316 311 308 303 302 300 302 303 301 303 302 302 302 301 301 302 307 304 305 305 306 308
312 311 310 310 311 310 310 310 311 312 314 317 319 314 304 300 308 315 316 312 316 317 314 317 316 309 306 301 304 304 298 299 300 301 300 302 297 298 303 304 303 303 303 306 306
311 310 310 309 310 309 309 310 310 311 313 315 317 311 298 312 311 310 309 310 314 316 315 318 317 310 307 303 301 297 295 290 298 301 301 300 291 300 303 301 302 304 304 303 305
310 309 309 309 309 309 308 309 310 311 312 313 310 306 296 315 307 309 308 307 311 314 317 319 314 306 304 297 293 294 285 289 293 299 299 298 292 300 303 300 298 301 302 304 306
309 308 308 308 308 308 308 309 309 309 308 309 311 299 303 301 307 308 308 309 309 311 309 308 305 298 295 293 284 286 286 287 288 294 295 293 292 297 300 298 296 298 299 300 303
308 308 308 308 308 308 305 300 294 296 300 299 300 300 302 307 308 306 307 305 309 306 297 303 295 289 291 293 293 292 288 288 290 295 291 291 291 293 295 296 297 297 296 300 302
307 307 307 307 307 308 304 294 295 297 290 300 302 303 305 306 299 303 307 300 301 296 297 295 290 296 297 296 294 292 288 287 291 294 291 289 289 293 295 295 297 297 296 298 301
307 307 307 307 307 303 299 298 303 302 289 293 296 302 302 304 298 299 302 300 296 293 294 289 292 297 294 293 291 288 286 286 287 291 290 288 286 289 294 295 297 299 299 299 299
307 307 307 307 300 299 296 304 304 303 284 289 293 299 302 303 296 304 305 301 297 293 294 292 296 294 291 291 291 285 291 291 289 285 280 287 278 284 290 291 293 294 295 298 299
306 306 306 306 298 295 300 304 301 296 271 291 293 308 303 298 298 298 305 301 293 294 293 289 291 291 289 291 293 288 293 289 288 283 280 282 278 282 288 288 290 289 292 294 297
306 306 307 303 301 300 305 303 299 279 271 288 295 295 294 296 297 299 299 301 300 295 294 292 297 294 292 293 293 293 289 288 286 283 274 280 280 280 285 288 288 290 293 293 295
306 307 306 305 296 302 302 296 275 268 286 285 288 293 293 292 292 294 293 290 287 284 284 289 290 293 295 289 291 290 283 271 278 277 273 284 280 281 289 292 292 292 292 293 294
308 308 304 304 306 302 297 286 271 282 284 293 293 292 289 291 291 292 290 286 290 288 282 278 277 289 293 289 286 286 284 273 269 270 276 283 278 283 290 294 293 294 293 293 293
308 301 300 304 307 301 291 278 278 283 289 289 290 287 287 290 291 290 289 287 289 289 282 280 282 293 293 293 291 286 281 286 277 277 271 278 281 286 290 290 290 292 293 292 294
300 298 298 304 305 297 285 282 285 288 289 292 285 288 284 287 287 287 287 290 289 292 292 290 282 291 293 295 295 288 290 278 274 266 268 276 277 281 286 288 290 290 291 293 295
298 292 301 304 300 290 280 284 287 290 294 291 288 287 286 287 287 286 286 291 292 291 294 292 285 285 291 287 285 287 285 284 281 276 270 271 277 286 287 289 288 291 293 294 294
293 286 300 303 285 287 286 289 289 291 296 294 292 289 287 289 287 288 286 289 294 293 288 293 288 280 281 289 291 289 286 284 272 271 273 277 278 291 291 290 292 294 297 298 298
292 292 300 297 280 282 290 288 289 293 294 294 292 293 292 289 285 289 290 294 296 294 291 291 286 279 282 287 290 285 289 287 284 280 272 273 277 290 290 292 295 296 297 298 300
292 284 291 293 293 289 287 287 288 296 295 296 294 294 292 289 291 289 288 294 296 296 299 296 287 277 275 280 285 280 284 285 285 277 279 278 282 288 290 292 295 297 295 295 297
292 288 290 286 288 291 291 290 289 290 295 296 292 293 292 289 290 289 290 290 294 296 294 291 279 283 285 287 287 285 284 285 280 284 281 284 284 288 292 295 297 299 297 299 300
291 288 291 289 293 291 291 290 290 292 292 291 290 294 292 289 290 288 290 288 288 289 289 290 279 285 279 286 287 284 286 286 287 287 287 287 287 295 298 298 298 297 298 298 299
297 297 292 290 292 290 289 290 292 294 295 295 293 292 291 292 294 294 294 294 292 289 289 289 284 282 277 286 285 280 286 287 287 290 291 287 293 298 298 297 295 296 297 297 298

GFSSW_sfc_thetae_054.txt.gz
Theta_e
314 313 314 313 313 312 313 313 317 319 320 323 323 322 321 320 320 315 310 316 320 331 327 320 316 314 313 306 307 304 293 291 293 294 296 301 301 304 305 301 304 303 310 319 326
313 313 314 313 313 312 312 312 312 314 317 320 323 322 321 320 313 308 318 328 329 330 323 313 312 311 304 304 304 299 293 295 301 300 298 302 303 304 302 301 300 304 314 323 326
314 314 314 314 313 313 312 311 311 313 315 317 320 322 320 318 305 306 322 328 330 330 323 318 313 308 302 302 301 299 294 301 303 305 305 303 303 305 301 299 301 301 312 316 322
314 314 314 313 313 312 312 312 310 311 313 315 318 321 319 313 290 313 329 327 331 327 318 314 311 305 300 299 302 296 301 302 304 306 304 302 305 302 303 303 306 306 306 308 313
314 313 313 313 312 312 312 312 311 311 311 314 316 320 314 301 301 315 328 328 324 322 316 311 307 305 298 299 300 296 299 302 304 304 302 303 302 302 303 307 307 306 308 307 307
312 312 312 311 311 311 311 311 311 310 310 312 315 317 308 294 310 314 321 321 321 319 315 314 310 308 302 301 299 301 301 300 302 301 302 300 300 300 301 306 304 304 304 304 306
311 311 310 310 310 310 310 310 310 310 310 312 314 313 304 298 308 319 319 317 320 318 313 315 315 308 305 300 303 302 297 298 299 300 299 301 298 296 303 303 302 302 303 304 304
311 310 310 309 309 309 309 310 309 309 310 312 313 308 299 311 311 309 310 310 313 317 318 319 317 310 305 302 299 296 295 290 297 299 300 300 292 298 302 300 300 301 302 303 305
310 309 309 308 309 308 308 309 309 310 310 311 306 303 297 313 306 308 308 307 310 313 316 319 314 307 305 296 293 291 285 287 292 299 298 296 291 299 303 298 298 298 299 301 303
309 308 308 308 308 308 308 309 309 308 306 307 305 298 301 300 306 308 308 308 308 311 309 308 306 299 298 294 285 286 286 287 288 292 294 292 292 297 298 298 297 297 297 298 301
308 308 307 307 308 308 305 299 292 291 298 293 295 297 301 306 308 305 306 304 309 305 298 303 296 292 292 296 291 291 290 286 289 294 289 289 289 292 295 294 295 296 296 297 299
308 307 307 307 308 308 302 293 294 295 288 296 297 300 304 306 299 302 306 299 302 295 298 296 291 296 297 295 293 291 288 286 290 293 289 288 288 292 294 295 296 297 298 297 298
307 307 307 307 307 302 298 297 302 301 288 291 297 296 300 304 298 298 302 302 299 295 294 291 294 297 294 292 291 288 285 286 286 290 288 287 286 288 292 293 296 298 298 298 298
307 307 306 307 299 298 294 303 304 302 282 286 290 294 303 303 296 303 304 301 297 294 294 293 296 295 293 290 290 285 290 290 288 285 279 286 277 284 288 289 291 291 293 296 298
307 307 307 306 299 295 299 304 303 297 264 290 289 301 303 297 297 298 306 301 293 294 294 289 291 291 289 290 292 287 291 289 287 282 279 280 279 282 287 288 288 288 290 292 296
306 306 307 303 302 302 302 303 299 274 267 286 292 292 294 296 296 299 299 301 301 295 293 291 296 293 291 293 293 293 288 286 285 280 270 279 280 280 284 287 287 290 292 293 292
306 308 306 305 297 303 301 296 275 270 285 284 286 292 292 291 292 294 293 291 288 285 285 289 289 292 294 289 291 289 281 270 269 269 272 282 279 281 287 291 290 291 291 292 292
308 307 303 304 305 301 298 285 272 281 282 286 292 292 289 291 292 293 290 286 290 288 283 281 279 288 292 289 286 285 282 273 268 271 274 282 277 283 289 291 291 291 291 292 293
307 299 298 303 304 301 289 275 278 282 286 287 291 287 287 290 291 290 289 287 288 289 282 280 280 292 292 292 290 286 279 285 275 274 270 276 280 284 288 289 290 291 292 292 293
298 297 298 305 303 295 284 281 284 289 287 291 285 288 283 286 288 288 287 289 289 291 291 286 278 291 292 295 294 287 289 278 272 265 267 274 276 278 284 286 289 290 291 294 297
293 292 298 303 300 290 280 283 287 290 289 290 286 286 286 285 287 286 287 290 291 290 291 289 283 286 291 287 284 286 283 280 279 275 269 269 276 284 285 287 288 290 292 294 296
291 286 298 303 284 286 284 288 289 289 295 294 291 290 287 287 286 285 285 288 292 292 287 290 285 281 284 288 290 288 285 282 272 270 270 277 276 289 286 288 290 293 295 298 297
292 289 298 296 282 284 288 288 289 291 294 294 290 291 291 287 285 287 287 293 294 291 289 289 283 276 279 284 290 284 286 286 282 278 271 271 276 289 288 293 294 293 297 297 296
287 283 288 291 291 289 286 286 289 295 294 294 291 292 290 288 290 287 289 294 295 295 299 294 285 277 275 279 283 278 284 285 283 274 276 276 280 287 289 292 295 297 299 299 297
292 287 290 285 288 290 291 291 291 290 294 294 291 291 290 288 288 287 290 291 294 297 294 290 279 281 283 286 286 285 283 283 281 283 276 281 282 287 291 293 296 300 298 299 300
290 289 291 290 293 291 291 290 290 291 292 291 290 293 292 289 289 287 289 288 287 291 291 290 279 284 279 285 285 283 286 285 285 285 284 285 284 292 295 300 299 296 296 296 296
296 297 292 290 289 290 289 290 292 293 294 295 295 292 290 292 293 293 293 292 291 288 287 287 282 282 276 284 283 278 284 286 285 287 288 284 289 296 297 298 295 291 292 292 290

GFSSW_sfc_thetae_057.txt.gz
Theta_e
315 314 313 314 314 313 313 312 312 312 314 315 317 320 323 322 320 314 306 312 318 327 331 321 319 315 312 306 306 302 293 289 292 293 295 299 299 303 303 300 302 302 311 315 324
315 315 315 314 315 314 313 312 312 311 312 314 316 318 322 321 313 308 316 322 326 327 320 313 310 310 304 304 303 298 291 293 299 298 297 300 301 302 302 300 299 304 316 322 326
316 315 315 315 314 314 313 313 312 311 311 311 314 317 318 318 304 302 318 324 326 328 322 318 314 309 302 301 300 298 293 299 302 304 304 301 301 304 300 299 299 300 304 311 321
313 314 314 314 313 313 313 313 312 312 311 311 311 314 317 312 289 309 325 326 325 325 318 314 309 303 299 299 302 295 300 301 303 305 303 299 302 301 302 303 305 305 306 306 309
313 313 312 312 312 312 313 312 312 312 311 311 311 312 311 302 298 310 320 327 318 321 316 311 305 304 298 299 299 296 298 302 303 304 302 302 299 300 301 306 305 307 306 305 305
313 312 311 311 311 311 311 311 311 311 310 310 310 311 305 295 307 310 309 320 317 318 314 311 307 307 302 299 299 300 300 300 301 301 301 299 299 299 300 304 304 303 304 304 304
311 311 310 310 310 310 310 310 310 310 310 310 310 307 302 301 307 309 313 319 319 319 313 314 313 307 304 299 303 301 296 297 298 300 299 300 296 295 301 303 301 303 301 303 303
310 309 309 309 309 309 309 309 309 309 310 310 310 305 297 311 313 308 310 312 319 319 316 317 316 309 303 301 298 296 294 289 297 299 300 299 291 298 301 301 299 300 301 302 302
309 309 308 308 308 308 308 309 309 310 310 309 303 299 295 311 305 309 307 307 309 314 317 318 314 306 305 296 290 290 284 288 292 299 298 296 290 297 301 298 297 298 299 299 301
309 308 308 308 308 308 308 309 309 308 305 305 302 294 298 299 305 307 307 306 307 309 309 310 307 301 299 295 286 286 286 286 288 291 294 292 291 297 299 296 297 298 298 298 299
308 308 308 308 308 308 304 297 290 289 297 290 292 292 300 305 309 305 305 303 306 305 298 304 295 293 296 297 293 290 288 285 288 293 289 288 288 292 294 293 293 295 297 298 299
308 308 307 307 307 307 301 292 293 295 287 294 295 296 299 304 299 302 305 297 300 297 299 297 292 297 299 299 294 292 287 285 289 291 288 287 287 291 294 294 295 296 297 297 297
307 307 307 307 307 301 295 295 302 301 288 290 294 294 297 303 298 299 301 300 299 296 295 292 294 298 295 293 291 288 285 285 286 288 287 285 284 288 291 293 294 295 297 298 298
306 307 307 307 300 299 294 302 303 302 280 284 290 293 298 302 296 304 303 302 298 294 295 293 295 294 292 290 290 285 289 289 287 284 279 285 277 283 287 288 290 291 292 293 295
306 306 307 307 300 295 299 303 302 297 262 287 287 300 300 297 297 298 305 301 294 294 293 290 290 292 290 290 291 287 291 288 286 282 278 280 278 282 285 286 289 288 289 291 292
307 307 308 305 303 301 304 301 298 273 268 284 289 287 289 295 296 298 299 302 302 294 294 291 296 293 291 293 293 292 287 285 283 280 271 278 279 279 282 285 287 289 290 290 291
308 309 305 305 296 303 301 296 273 267 285 283 284 286 291 291 292 294 293 292 290 285 286 289 289 292 294 288 291 287 282 272 270 269 271 281 279 281 286 289 289 289 288 291 293
309 306 302 304 304 301 294 280 271 281 281 287 288 289 289 291 292 293 290 286 289 288 284 281 281 288 291 289 286 284 282 274 268 269 273 280 277 282 288 289 289 290 290 293 294
305 301 300 303 303 297 288 275 277 283 285 284 289 286 287 290 291 290 289 287 289 288 283 279 279 290 291 292 290 285 277 283 275 274 270 276 279 283 287 287 289 291 293 293 295
294 294 298 304 301 296 284 280 285 288 285 287 285 287 284 288 288 287 288 290 288 290 290 284 279 290 291 293 292 286 288 277 272 267 269 274 275 277 282 285 288 289 290 292 296
291 288 296 303 300 287 280 282 286 289 290 290 285 285 285 286 287 285 286 289 290 289 290 287 283 286 290 287 285 284 281 280 279 275 270 270 276 283 283 286 287 289 291 293 295
289 279 297 300 284 285 282 287 290 290 295 293 291 289 286 288 286 286 285 287 292 291 286 289 284 283 285 288 290 287 284 281 272 271 271 275 275 287 287 288 288 291 293 296 297
287 286 296 295 280 283 289 289 290 291 292 292 289 291 291 286 284 286 286 292 293 291 288 289 281 272 281 286 289 284 285 282 280 276 269 270 276 287 286 288 291 295 298 301 300
286 281 288 289 290 288 286 287 289 293 291 292 290 291 289 287 289 286 287 293 293 293 298 293 283 277 274 278 282 276 283 283 283 274 274 275 278 284 288 289 293 295 297 297 300
289 286 291 285 286 290 292 292 289 288 292 293 290 291 290 286 287 286 289 290 292 297 292 289 279 281 283 285 285 283 283 283 280 281 275 278 281 285 289 291 293 297 297 296 297
290 288 292 290 293 290 291 289 290 290 291 290 289 291 291 288 288 286 288 287 287 289 289 288 279 282 278 284 285 282 285 284 284 285 284 285 284 292 294 295 298 295 293 293 292
296 297 292 287 286 287 288 289 290 292 295 296 294 291 290 291 292 292 292 291 290 288 286 287 281 280 274 283 283 278 283 284 285 285 287 283 288 294 295 298 297 292 291 290 290

GFSSW_sfc_thetae_060.txt.gz
Theta_e
316 317 316 316 316 315 315 315 313 313 312 312 313 316 318 320 322 315 307 311 314 325 327 320 319 319 311 306 305 301 292 288 292 293 295 300 297 302 302 298 300 302 305 314 328
314 314 315 316 316 316 315 314 314 314 312 312 312 313 315 318 314 308 316 322 323 325 315 316 313 312 304 304 303 297 291 292 298 298 297 300 299 301 300 300 298 299 310 322 332
314 314 314 314 314 314 314 314 314 313 313 312 312 312 313 314 305 303 321 325 324 323 319 315 314 308 302 301 300 298 292 297 301 302 303 301 299 302 299 298 299 299 303 314 322
315 314 314 313 313 313 313 313 313 313 312 312 312 311 312 308 292 303 322 321 325 318 318 315 309 304 301 297 301 295 299 300 302 304 302 299 301 298 300 301 304 305 305 305 317
313 313 313 312 312 312 312 312 312 312 312 311 311 310 306 302 300 308 317 313 320 315 314 311 305 304 299 300 299 297 298 301 303 303 301 302 299 299 300 304 304 306 306 304 304
312 312 311 310 310 310 310 310 311 311 310 311 310 309 300 293 309 309 308 311 315 313 314 312 307 306 300 298 298 300 300 300 301 300 300 299 298 298 299 301 302 303 304 304 306
311 310 309 309 309 309 309 310 310 310 310 310 310 305 298 296 308 307 309 314 315 313 313 315 311 306 302 298 302 300 295 296 298 299 298 299 295 295 301 302 300 300 301 303 303
310 309 309 309 309 309 309 309 309 309 309 310 309 303 292 308 309 309 308 311 317 318 317 317 314 308 302 301 298 296 294 289 297 298 299 299 289 297 300 299 299 300 298 300 303
309 309 309 308 308 308 308 309 309 309 310 309 302 298 289 309 304 308 307 303 314 316 315 317 313 305 303 293 291 294 285 287 292 299 298 296 290 296 298 297 297 297 298 299 300
309 308 308 308 308 308 308 309 308 307 304 305 302 292 294 296 304 308 307 305 306 310 308 308 306 299 298 294 285 288 287 286 289 291 293 291 290 295 298 297 296 296 296 297 299
308 308 308 308 308 307 304 296 290 288 295 289 290 290 294 301 307 304 306 302 306 305 298 303 296 293 295 297 292 290 287 286 288 292 288 288 287 290 294 292 292 294 295 297 299
308 307 307 308 308 308 300 291 292 295 287 293 293 294 297 299 297 302 306 296 299 295 299 294 287 297 301 298 293 291 288 286 289 291 288 287 286 291 294 293 294 295 295 295 296
307 307 307 307 307 302 296 294 302 300 287 289 293 292 294 296 296 299 301 298 296 295 296 291 292 300 298 295 292 290 288 285 285 287 286 285 284 286 290 292 292 294 294 294 294
307 306 307 308 299 299 295 301 302 302 280 282 288 293 295 296 296 304 303 300 297 294 295 293 297 297 295 292 292 285 290 289 287 283 280 284 277 284 286 288 289 289 289 290 290
308 309 309 308 299 293 297 302 302 296 264 285 288 300 298 292 297 297 304 302 295 295 295 290 292 292 291 291 292 287 291 287 285 281 278 280 279 282 284 285 286 287 288 290 292
309 309 307 302 299 300 303 302 298 276 268 282 288 287 288 292 296 297 299 302 300 295 293 291 296 294 291 292 292 290 286 284 282 279 271 277 278 279 282 283 286 287 289 291 293
309 307 304 305 295 302 298 295 275 271 284 280 283 286 286 291 292 294 293 292 290 285 285 289 289 291 294 289 291 287 282 271 269 269 271 279 277 280 285 287 287 287 290 292 294
308 306 302 304 301 299 293 280 270 280 282 287 287 286 286 292 291 292 290 288 291 289 284 279 280 288 291 289 286 283 282 274 267 269 274 280 276 280 286 286 289 290 291 293 295
305 296 301 303 302 299 289 275 278 281 285 284 286 285 288 291 291 289 288 285 289 288 284 280 280 291 291 291 290 283 277 283 274 272 270 275 279 282 286 286 288 289 291 291 294
293 292 294 301 300 296 285 280 283 288 286 285 284 288 285 287 287 287 286 288 288 289 289 283 278 289 290 293 291 286 286 278 273 268 268 273 274 277 282 284 288 288 289 291 294
291 286 295 300 299 288 280 283 285 290 288 289 284 285 287 285 287 283 284 288 290 288 289 286 283 286 290 287 284 284 281 280 278 274 270 271 275 282 284 286 286 288 290 291 294
288 278 295 297 285 285 285 288 290 291 293 291 290 288 285 286 284 284 284 287 292 291 286 288 285 282 284 287 289 287 284 280 273 272 273 274 276 285 285 287 289 290 292 296 297
284 285 295 296 284 285 289 290 291 291 291 290 288 291 290 285 283 285 286 291 292 291 288 288 281 277 281 286 288 284 284 282 279 276 274 271 275 286 285 286 288 290 296 297 297
286 282 288 292 292 289 288 287 287 292 291 291 289 291 289 286 288 286 287 292 292 292 297 292 282 277 275 278 282 277 283 282 279 272 274 274 278 283 286 287 289 291 297 294 297
287 285 290 286 289 290 292 291 288 287 292 293 290 290 288 285 286 286 288 288 292 297 290 288 280 280 282 284 284 283 283 282 278 279 275 278 279 284 287 290 291 295 295 293 292
289 288 291 289 290 288 290 289 289 290 290 289 288 290 290 287 287 285 287 285 286 288 287 287 278 281 278 284 284 282 284 283 283 284 282 283 283 292 293 294 293 295 292 290 289
295 296 292 286 284 284 285 288 290 291 294 294 293 290 288 290 291 291 291 289 289 287 286 285 281 278 274 282 282 278 283 284 283 284 285 280 288 293 293 294 297 292 290 288 288

GFSSW_sfc_thetae_063.txt.gz
Theta_e
317 316 315 315 316 316 316 316 316 315 315 314 312 313 313 315 316 312 311 313 315 324 326 320 319 320 313 309 307 304 297 292 295 295 298 301 300 305 306 304 305 307 309 317 329
316 317 316 315 315 315 314 314 314 314 314 314 314 312 312 313 307 306 319 324 324 323 313 312 312 314 309 306 305 301 295 295 299 301 299 302 303 305 305 304 305 306 313 328 333
315 315 315 314 314 314 314 313 313 313 313 314 313 313 311 310 302 304 323 328 326 323 317 314 316 312 306 304 302 300 295 299 301 302 304 303 303 306 304 303 305 305 308 323 330
314 314 313 313 313 313 312 312 312 312 313 312 313 312 311 305 290 306 320 325 327 321 314 314 311 306 303 300 302 297 300 301 303 305 304 302 304 303 304 306 307 309 309 312 327
313 313 312 311 311 311 311 311 311 311 311 311 311 311 305 295 297 310 319 315 314 318 310 311 307 306 300 302 301 298 300 302 304 304 303 304 302 302 303 307 308 308 309 309 310
312 312 311 310 310 310 310 310 310 310 310 310 311 310 300 288 307 309 309 309 315 314 310 312 308 308 303 302 300 301 302 301 302 302 303 300 300 301 303 305 305 305 307 308 309
311 310 310 310 310 309 309 309 309 309 309 310 310 305 297 292 304 307 305 306 312 313 309 314 312 307 303 300 303 300 297 299 300 300 300 301 297 297 303 304 304 304 305 306 308
310 310 309 309 309 309 309 309 309 309 310 310 310 302 291 304 304 303 303 307 313 315 314 317 314 308 304 303 300 297 297 291 298 300 300 300 291 299 302 302 302 303 303 303 306
310 310 309 309 309 309 309 309 309 310 310 309 302 297 289 304 300 302 308 304 310 312 315 317 312 306 302 295 293 295 288 290 294 300 299 298 292 299 301 300 300 301 301 302 303
309 309 308 308 308 308 309 308 308 305 304 305 301 291 294 291 303 304 309 308 306 309 308 306 304 299 299 294 284 288 287 290 291 295 296 294 293 297 299 298 299 299 301 301 301
308 308 308 308 307 308 304 298 291 289 294 288 290 289 293 298 303 303 306 303 305 305 297 301 295 292 295 296 293 292 289 288 291 294 292 291 290 293 295 295 295 297 298 299 301
308 308 307 307 307 307 301 291 291 294 286 293 292 293 296 298 293 302 306 297 299 295 299 294 290 295 299 298 294 292 289 288 291 292 291 289 288 293 295 295 296 297 298 297 298
309 309 310 309 307 303 297 294 302 299 287 288 292 292 293 294 291 298 302 299 296 295 296 290 290 298 298 296 292 291 289 287 288 289 289 287 287 289 292 293 293 294 294 295 294
309 309 309 308 298 298 294 302 303 301 279 281 287 292 294 294 291 304 304 301 297 293 296 292 297 295 293 291 292 289 292 290 288 287 284 287 282 287 288 288 290 292 293 294 295
309 309 309 305 295 293 296 302 301 296 267 285 288 299 296 290 294 298 304 301 293 294 295 289 293 293 288 288 293 289 292 289 286 284 284 284 282 285 287 286 288 291 293 295 296
309 308 307 301 298 301 302 302 297 275 262 282 288 288 288 287 292 298 298 303 300 294 294 292 297 295 292 295 294 291 287 285 283 282 277 280 281 282 285 287 289 291 294 295 297
309 307 305 304 296 301 300 294 276 271 283 278 283 285 285 289 291 294 293 292 290 285 285 288 290 293 295 289 292 289 285 276 274 275 276 281 279 283 287 289 291 292 294 295 297
308 305 302 302 302 300 296 279 272 280 282 288 287 286 284 290 291 292 291 288 291 289 285 283 281 289 292 290 287 285 286 278 272 273 275 281 278 283 287 288 292 293 293 294 297
305 294 296 300 302 300 289 273 275 281 286 285 285 283 287 289 290 290 288 288 289 289 283 281 282 291 292 292 291 285 282 283 275 275 274 278 281 286 288 290 291 292 293 294 297
292 291 292 300 301 297 284 282 284 288 287 286 283 287 284 286 287 287 287 289 289 290 290 285 282 290 290 293 291 287 287 280 276 270 273 275 276 280 285 288 290 291 292 294 297
290 286 294 299 296 289 281 284 286 292 290 289 284 285 284 284 286 284 286 289 290 289 289 287 284 286 290 287 284 285 282 280 280 277 274 273 277 283 286 289 289 291 292 295 298
287 280 294 296 288 287 286 289 292 291 293 291 289 288 285 285 284 283 284 287 291 291 286 288 285 282 284 288 290 287 284 281 275 274 275 275 278 287 287 289 289 290 293 298 298
284 284 294 294 285 286 290 291 292 290 289 289 288 289 288 285 283 285 286 291 292 291 288 288 281 279 281 285 288 285 285 283 281 279 275 274 278 287 288 288 289 290 293 297 297
286 282 288 289 291 290 288 284 286 292 290 290 289 290 287 285 287 285 287 291 292 293 296 291 283 279 277 280 284 279 283 283 281 277 277 276 279 285 288 288 291 292 296 296 293
287 285 290 285 285 288 288 288 287 287 291 292 289 289 287 284 285 285 287 288 292 294 290 288 280 281 283 285 285 283 284 282 278 280 278 280 280 284 287 289 291 293 295 294 291
287 288 290 288 286 286 288 287 287 289 289 288 287 289 289 286 286 284 286 285 285 288 287 287 280 282 279 284 284 283 284 284 283 284 282 283 283 291 293 294 294 295 293 292 290
294 296 292 286 283 284 287 287 288 290 293 293 291 289 287 288 290 290 290 289 289 287 285 285 282 279 276 282 283 279 283 284 284 285 286 282 287 292 292 294 296 294 292 290 288

GFSSW_sfc_thetae_066.txt.gz
Theta_e
316 318 317 317 316 316 316 316 315 315 315 315 315 315 314 313 313 309 306 316 320 323 326 319 318 320 320 312 312 311 301 297 300 300 302 307 306 310 311 309 310 312 313 321 330
316 316 316 316 315 315 315 315 315 314 314 314 314 314 315 313 306 303 314 324 327 324 316 315 311 315 312 310 308 304 299 299 303 304 303 304 306 307 307 307 308 311 317 328 333
315 315 314 314 314 313 313 312 313 313 313 313 314 314 313 312 301 299 318 324 328 326 318 315 315 313 308 310 306 304 299 303 304 305 306 304 306 310 307 306 309 309 314 326 330
314 314 313 313 312 312 311 311 311 311 311 312 312 312 312 307 288 313 319 324 328 324 317 313 311 307 304 302 308 300 304 304 305 307 306 305 308 307 309 309 312 315 315 318 329
313 313 312 311 311 311 311 311 311 311 310 311 311 311 307 297 297 309 315 315 315 317 313 309 307 307 301 303 306 302 303 305 305 306 306 307 306 306 308 312 313 313 313 314 319
312 311 311 311 310 310 310 310 310 310 310 309 310 309 301 290 306 307 310 309 311 313 313 311 308 310 305 304 302 305 305 304 305 305 305 303 304 305 307 312 311 312 312 314 314
312 311 310 310 310 310 310 310 310 310 310 310 310 306 299 295 305 306 308 305 306 308 311 312 314 308 308 302 307 304 300 303 304 303 302 305 300 301 308 309 308 309 310 311 313
311 310 310 310 310 309 310 310 310 310 310 310 310 305 293 304 307 304 305 301 304 310 315 313 316 310 306 308 305 301 300 294 301 302 303 302 293 301 306 307 306 307 308 309 311
310 309 309 309 309 308 309 309 310 310 310 310 304 300 291 304 300 303 303 300 307 312 315 314 313 306 305 299 295 297 291 293 296 303 301 300 295 301 305 305 305 307 308 308 309
309 309 309 309 309 308 308 309 309 306 305 306 302 294 297 293 299 303 305 305 304 308 307 307 304 299 299 296 288 291 291 293 293 299 300 297 296 301 304 303 305 306 307 308 308
309 310 310 310 310 308 306 303 296 294 298 292 292 291 294 298 302 301 304 303 304 305 296 302 295 291 295 299 297 296 294 292 295 297 299 298 298 299 303 304 303 304 305 306 307
310 310 310 310 310 307 304 295 294 297 288 294 294 295 297 299 292 299 306 298 299 295 298 296 290 296 300 300 297 295 293 292 293 298 296 295 295 298 301 301 302 303 304 305 305
310 310 310 309 308 303 298 297 304 300 288 290 293 292 294 296 290 295 300 299 298 295 296 292 293 299 297 297 294 295 293 292 292 293 294 293 293 296 296 296 297 298 300 301 301
309 310 309 307 301 301 295 301 303 301 283 283 288 292 295 295 290 300 302 301 297 292 293 293 296 296 294 294 295 289 296 295 292 292 288 292 287 291 292 293 297 299 301 302 303
309 309 308 306 300 296 298 302 302 297 272 286 289 299 295 290 291 298 305 302 296 295 295 288 291 290 287 293 296 291 296 294 293 290 290 289 288 289 292 292 295 299 301 303 304
308 308 306 305 303 302 303 303 297 281 272 282 289 289 288 289 290 298 298 303 303 295 294 292 298 295 293 295 295 293 290 290 291 290 284 288 287 287 289 292 295 298 301 303 305
308 308 305 306 297 304 302 296 281 277 284 282 284 287 287 287 290 292 293 294 292 288 285 289 289 293 295 288 292 291 290 283 282 282 283 285 284 288 292 293 297 298 301 303 306
308 305 305 304 305 302 297 287 277 282 283 289 287 286 283 291 290 292 291 289 294 293 289 285 282 289 292 291 289 290 290 285 278 280 282 285 283 288 292 295 298 298 299 302 305
305 303 304 304 304 302 291 283 280 283 287 285 286 284 287 291 291 290 289 288 291 293 287 285 284 292 293 293 293 289 288 288 283 281 283 285 286 290 293 293 296 297 299 302 304
301 300 300 304 305 301 290 284 286 288 287 286 284 290 285 289 289 290 289 291 291 293 294 290 284 291 291 295 293 292 292 285 286 279 278 281 283 286 289 292 295 297 298 300 304
299 296 300 304 304 295 285 286 288 293 291 290 289 288 289 288 290 289 288 292 293 292 294 292 290 287 291 289 288 288 288 286 287 284 282 280 283 293 293 295 294 296 297 301 303
296 294 302 304 294 292 289 290 293 292 295 293 293 292 290 290 288 288 288 291 295 294 290 293 290 285 286 291 293 291 289 288 285 281 283 283 284 292 296 295 294 295 297 302 303
294 294 303 302 287 288 293 292 294 293 293 292 291 293 293 289 287 289 290 294 295 294 292 293 288 282 283 288 291 288 289 287 286 286 282 283 283 292 294 293 296 295 298 301 300
295 290 297 299 296 291 289 291 291 295 294 294 293 294 292 290 292 288 290 293 295 295 296 295 288 286 283 284 288 285 287 287 287 284 284 285 286 290 292 294 297 298 299 301 299
296 289 292 288 292 291 294 293 291 290 295 296 293 293 291 287 288 288 290 292 295 295 294 293 286 286 286 287 287 287 287 286 284 287 286 286 286 291 293 295 298 300 300 299 296
291 290 292 292 291 293 293 291 291 293 293 292 291 292 293 290 290 288 291 291 291 293 292 292 286 287 284 287 287 285 287 288 287 288 287 287 287 295 298 297 297 300 298 296 293
297 298 294 291 291 292 289 290 292 294 296 296 294 293 291 292 294 295 295 295 294 292 290 290 288 286 282 285 285 283 286 287 288 289 289 286 292 296 295 295 297 298 296 293 292

GFSSW_sfc_thetae_069.txt.gz
Theta_e
316 317 317 316 316 316 316 315 315 316 315 315 315 315 316 315 314 309 303 315 320 326 322 319 318 320 321 316 314 312 301 299 302 302 304 310 309 313 315 312 312 314 313 324 338
316 316 316 315 315 314 314 313 313 313 314 314 314 314 314 315 309 304 312 319 324 327 317 314 310 315 311 311 310 305 299 300 306 307 306 308 308 310 309 308 309 311 315 326 332
316 315 314 314 314 313 313 312 312 312 312 313 313 314 313 312 301 302 319 318 325 326 320 315 313 313 308 310 307 305 299 304 304 306 307 306 305 310 307 305 309 309 312 321 326
315 314 313 313 312 312 312 312 312 311 311 311 312 312 312 307 289 311 320 316 322 323 318 311 308 306 305 304 309 301 304 305 306 307 305 304 306 306 308 309 313 314 317 320 326
313 313 313 312 312 311 311 311 311 311 311 310 310 311 307 298 298 310 313 310 312 317 313 310 304 305 301 304 306 303 304 305 307 307 307 307 305 305 308 313 314 316 315 315 321
313 313 312 311 311 311 311 311 311 310 310 310 309 309 302 292 306 308 306 306 307 311 311 311 306 308 304 303 304 306 305 304 306 305 307 304 304 306 309 313 312 313 313 315 316
312 311 311 310 310 310 311 311 311 310 310 310 310 307 300 296 306 307 308 305 306 304 302 314 312 306 307 302 307 305 300 303 303 304 303 305 301 302 309 311 310 311 311 312 314
311 311 310 310 310 310 310 310 310 310 310 311 310 305 294 305 308 305 305 302 303 305 305 313 315 309 305 307 303 300 299 294 302 303 304 302 294 303 308 307 307 309 310 310 311
311 310 310 311 311 311 310 309 309 310 310 309 304 301 293 305 300 304 304 299 300 301 306 314 312 307 305 299 296 297 291 293 296 303 302 300 295 302 306 306 305 307 308 308 309
310 310 311 311 311 310 310 308 308 307 306 306 303 295 297 294 299 302 305 302 298 301 304 305 304 299 301 295 288 291 292 294 293 299 300 298 297 301 304 304 304 306 308 308 308
310 311 311 310 310 310 305 302 297 294 299 293 293 293 295 299 303 300 303 300 299 299 296 302 295 289 295 297 298 296 294 293 296 300 298 297 297 299 302 303 303 305 306 307 308
310 310 310 310 308 307 305 296 296 297 289 296 295 295 298 299 292 297 303 294 291 289 297 296 291 297 299 298 296 295 293 293 296 299 297 297 296 300 302 302 303 304 305 305 307
310 310 310 310 305 304 299 297 303 300 288 291 295 294 295 297 291 293 300 295 292 293 295 292 293 299 296 295 293 295 293 293 293 296 297 295 293 296 300 302 303 303 304 305 305
310 310 309 308 303 302 297 301 303 301 283 285 289 292 295 295 290 298 301 297 298 293 296 294 298 296 295 293 295 291 298 296 294 291 286 294 285 294 298 296 297 300 302 303 304
309 309 309 307 303 297 299 304 303 298 273 288 289 299 296 290 290 294 302 299 294 292 295 289 294 295 293 292 295 293 298 297 295 292 292 290 287 292 294 293 296 300 302 304 305
308 309 308 306 304 303 304 303 300 282 273 284 290 288 289 289 290 294 296 299 300 293 296 293 298 295 294 295 296 296 296 294 294 292 285 291 289 287 291 294 297 300 302 304 305
308 308 307 306 297 304 303 296 284 278 287 283 285 288 287 288 287 288 289 291 289 284 286 289 289 293 294 288 293 293 290 283 282 282 284 290 287 290 293 297 298 299 302 305 307
309 306 306 305 308 304 298 287 279 283 283 289 288 289 284 288 286 292 293 291 295 293 289 285 282 287 292 291 288 290 289 286 280 282 284 287 284 290 295 298 300 302 303 305 306
308 306 305 307 306 304 293 284 281 283 287 285 288 284 287 292 291 293 290 290 293 295 289 286 284 291 293 294 294 289 287 291 285 286 285 286 289 292 293 295 298 299 301 304 306
302 302 303 306 306 300 293 284 286 290 289 287 285 290 286 290 290 291 292 294 293 295 296 291 284 290 292 295 294 292 293 286 288 280 280 284 286 287 289 292 296 298 300 303 305
304 299 304 307 305 300 286 288 289 294 293 290 291 289 290 290 292 291 291 294 295 293 297 295 291 288 292 290 289 290 289 288 288 286 283 280 284 295 292 295 296 298 299 302 304
302 296 306 308 294 293 292 292 294 295 296 294 295 293 292 292 291 291 290 293 296 296 292 295 292 285 288 293 294 293 291 291 286 283 285 285 284 296 297 297 297 298 299 303 304
297 299 309 307 288 292 295 294 296 295 295 294 293 295 295 291 288 291 292 296 296 295 294 295 290 283 284 289 292 289 291 291 289 289 284 283 284 296 298 296 296 297 300 302 303
298 291 301 303 298 291 290 292 292 297 296 296 294 296 293 292 294 290 291 294 297 296 297 297 291 287 284 286 290 287 289 290 286 285 286 287 286 290 294 294 297 299 301 303 302
298 292 293 292 295 294 295 295 292 292 297 297 294 294 292 289 290 290 292 293 296 295 296 295 287 288 289 289 289 288 288 288 284 288 287 288 288 291 294 296 298 301 302 303 301
292 290 293 294 297 295 294 292 292 294 295 293 292 294 294 290 291 289 292 293 292 295 294 295 288 289 285 288 288 286 289 289 288 289 289 289 289 296 298 300 299 301 302 300 298
298 299 294 295 295 293 291 291 292 296 297 298 296 295 293 293 296 297 297 297 296 293 292 292 290 287 284 287 287 284 288 289 290 291 291 286 292 297 296 297 298 300 300 298 296

GFSSW_sfc_thetae_072.txt.gz
Theta_e
317 317 317 316 316 316 315 315 315 315 314 315 315 315 315 316 316 310 302 308 317 326 323 318 312 317 320 316 316 311 298 295 298 300 303 308 308 311 312 307 308 308 308 328 338
316 316 316 315 314 314 314 314 314 313 313 313 314 315 315 314 308 303 313 319 320 325 317 312 307 313 310 310 311 304 296 297 304 305 305 306 307 308 306 305 305 305 318 327 336
315 315 315 314 314 313 313 313 312 312 312 312 312 313 314 312 299 300 317 319 320 322 318 316 312 309 306 308 307 304 298 302 303 306 306 305 304 308 306 302 305 304 309 319 330
314 314 314 314 313 313 313 312 312 312 312 311 312 312 312 306 287 308 317 320 321 316 316 313 307 303 303 301 307 299 303 304 305 307 305 302 304 303 304 304 309 307 309 319 319
314 313 312 312 312 312 312 312 312 311 311 311 310 310 306 297 297 308 315 311 310 313 311 309 304 302 299 302 305 302 302 304 306 306 305 305 302 301 302 307 310 313 313 311 318
313 312 312 312 311 311 311 311 312 311 311 311 310 309 301 290 306 307 306 306 305 306 308 310 306 304 302 301 301 305 305 304 304 304 305 303 302 303 303 307 307 310 308 308 309
313 312 311 312 312 312 312 311 311 310 310 311 311 307 298 295 306 307 307 304 305 303 301 310 311 304 303 301 305 304 300 302 301 303 302 304 299 300 305 308 305 306 306 308 310
312 311 311 312 312 312 312 312 311 310 310 311 310 305 293 305 307 304 305 302 303 303 302 305 307 308 302 305 303 299 299 294 301 302 302 301 293 302 306 305 304 305 305 306 307
311 311 311 312 311 311 311 311 310 309 309 310 304 300 291 307 300 303 303 299 301 301 302 304 306 305 303 296 293 296 290 291 294 302 300 298 294 300 305 304 303 303 303 303 305
310 311 311 311 311 310 310 309 307 306 307 305 303 294 297 294 299 301 303 302 298 298 298 300 303 298 298 294 285 288 289 291 291 298 299 296 295 299 301 301 301 302 303 303 303
310 310 311 311 309 308 307 303 296 294 298 292 293 293 295 299 302 299 302 300 297 292 291 299 293 290 293 295 296 295 293 291 294 298 297 296 296 298 300 299 300 301 300 301 303
309 310 310 310 309 307 304 296 296 296 288 296 296 295 298 299 292 296 301 293 290 285 289 293 289 295 297 297 295 295 292 291 295 298 295 295 294 298 300 299 300 301 301 301 301
309 309 310 310 309 305 299 296 302 301 288 291 294 293 294 296 291 292 298 294 288 286 287 289 292 296 297 294 293 292 290 291 292 295 292 290 290 295 298 300 300 302 301 300 300
309 309 310 309 303 302 297 302 303 302 282 285 289 292 295 295 289 298 300 294 290 285 287 292 298 296 295 293 294 289 295 295 294 289 283 291 281 291 296 297 299 296 297 298 298
308 309 309 308 302 297 300 303 302 297 271 287 289 299 296 290 291 293 300 295 287 289 293 289 293 293 291 292 296 291 297 296 294 289 287 286 281 289 294 293 293 294 297 299 300
308 308 308 306 305 303 305 304 299 282 272 284 291 288 288 290 290 294 294 296 295 295 294 293 298 295 294 296 295 295 292 294 293 289 281 286 283 283 288 291 293 296 299 300 300
309 308 306 305 298 305 303 296 281 276 288 283 286 288 286 288 289 291 288 288 288 284 285 289 289 293 295 291 293 290 287 282 281 280 277 289 284 286 292 295 296 296 298 301 302
309 309 307 305 307 305 300 287 277 284 283 289 289 288 285 289 287 289 289 289 293 292 287 284 280 289 292 291 288 287 289 284 277 276 278 286 279 284 292 297 299 299 301 302 302
309 306 305 307 307 304 293 281 280 283 287 285 286 285 287 289 288 287 287 290 291 294 286 282 282 290 292 294 294 289 286 290 283 283 277 280 283 287 289 294 296 297 299 301 302
302 303 303 307 307 300 292 285 287 291 289 288 284 289 286 290 288 290 290 294 291 294 296 290 283 290 291 295 293 292 294 283 285 278 276 279 280 281 285 290 294 295 296 300 302
302 298 304 308 305 297 285 286 290 295 294 290 290 289 290 289 291 289 289 293 294 293 296 293 289 287 291 289 288 288 286 287 286 283 278 274 278 288 288 291 292 295 297 300 301
301 294 306 309 292 293 290 293 294 295 297 294 295 293 291 291 290 290 289 291 296 295 291 294 289 284 287 292 294 291 291 289 279 278 281 279 277 291 291 293 295 295 297 300 301
296 298 309 307 287 289 293 294 296 295 295 294 293 295 295 291 287 291 291 295 297 294 291 293 286 280 283 287 290 287 290 290 287 286 282 277 278 292 291 291 293 294 296 300 301
297 288 297 300 297 292 291 291 293 298 296 296 295 296 293 291 293 289 290 295 296 294 297 296 288 282 277 283 287 281 287 288 285 280 282 281 283 289 290 291 292 294 297 299 299
296 290 293 290 293 294 294 293 292 291 297 297 294 294 291 288 289 289 291 293 295 297 294 292 282 284 287 288 288 287 286 286 279 284 278 284 285 288 292 292 293 297 298 299 298
292 289 292 291 296 293 293 291 290 292 294 293 292 294 294 290 290 288 290 290 289 291 290 292 283 285 281 288 287 284 288 288 287 286 286 287 286 292 294 294 296 295 299 299 298
295 297 293 292 293 292 291 291 292 295 297 297 296 294 292 292 295 295 294 294 293 290 290 289 286 282 277 285 285 280 286 287 288 288 288 283 288 293 293 295 295 296 298 298 296

GFSSW_sfc_thetae_075.txt.gz
Theta_e
317 316 316 315 315 315 314 313 313 314 315 314 314 315 316 316 315 310 303 307 309 321 324 318 311 313 317 314 314 311 298 296 299 299 302 310 307 312 309 305 306 305 322 330 336
316 315 315 315 315 314 314 313 313 313 313 313 312 313 314 314 308 302 311 318 320 320 315 311 306 309 309 308 311 301 295 297 304 304 303 306 308 309 308 304 302 315 330 333 334
315 315 314 314 314 313 313 313 313 312 312 312 312 312 312 311 300 298 315 319 320 319 312 315 313 308 303 304 306 302 296 302 303 305 305 305 306 310 307 302 303 310 326 330 331
315 315 314 313 313 313 313 312 312 312 311 311 311 311 311 305 286 306 317 316 319 315 311 311 308 302 300 300 304 298 303 304 305 306 305 301 304 306 308 303 309 306 316 326 328
314 314 313 313 313 313 313 312 312 312 311 311 310 309 305 296 295 307 313 311 310 312 306 307 304 301 297 299 300 299 302 305 306 306 303 304 301 302 302 304 310 310 314 317 322
313 313 312 312 313 313 313 313 312 311 311 311 310 308 299 289 305 306 306 306 306 306 306 308 305 304 301 299 299 301 303 304 304 303 304 302 301 302 302 305 306 308 307 307 312
312 312 312 312 312 312 312 312 312 312 310 310 310 306 298 294 305 306 306 304 305 303 300 307 310 305 299 298 303 301 297 301 302 301 300 303 298 300 304 305 303 302 303 306 307
312 311 312 312 312 312 311 312 311 311 310 309 310 304 292 304 304 303 303 302 304 304 301 303 307 304 302 303 299 298 296 292 300 300 301 300 292 301 305 302 302 301 302 303 305
310 310 312 311 311 310 310 310 311 310 308 308 303 299 291 307 300 302 301 298 300 301 302 303 305 303 302 295 290 293 289 290 295 301 298 296 292 300 304 302 300 301 303 301 302
310 310 310 311 310 309 308 308 309 305 305 305 303 291 296 294 300 301 301 302 298 299 298 298 299 297 296 292 284 286 287 290 289 297 296 294 294 299 301 301 300 300 301 301 301
309 310 310 311 310 309 303 302 295 292 297 292 292 292 295 300 302 299 301 298 296 293 288 297 292 290 292 293 293 291 290 288 292 296 294 293 294 297 299 298 298 298 299 300 302
309 310 310 311 310 308 300 294 295 296 288 295 296 295 298 299 291 296 300 293 291 285 288 289 288 294 297 295 295 292 289 288 291 296 296 292 293 297 299 298 298 300 300 300 298
309 310 310 310 309 302 296 294 301 300 285 290 294 293 295 296 290 292 297 293 288 286 286 286 290 297 296 294 292 291 288 288 289 292 294 291 288 292 298 299 299 301 301 300 299
309 309 309 309 301 298 294 300 301 300 276 285 289 293 296 296 289 298 299 293 289 285 286 286 293 294 293 291 293 289 294 294 293 289 283 288 279 286 293 297 297 298 299 298 298
308 309 309 309 298 294 299 301 300 296 270 286 289 298 296 290 290 292 300 295 287 287 288 286 291 291 292 292 294 289 296 294 294 291 284 285 280 283 290 293 296 295 294 296 298
308 309 308 303 301 300 301 300 297 278 271 284 290 287 288 290 290 294 293 295 294 289 290 292 298 295 294 295 295 295 292 293 292 289 281 283 281 280 286 292 293 294 294 297 299
308 309 304 304 295 301 300 292 277 274 286 284 286 289 286 287 288 290 288 286 285 282 283 289 289 294 297 291 294 292 287 282 280 281 276 285 281 283 288 292 294 294 296 297 298
309 310 306 304 302 303 298 281 272 281 282 289 288 288 285 289 287 289 286 283 286 288 285 283 281 289 293 291 289 288 288 283 277 274 277 285 279 285 289 293 297 298 299 299 299
309 300 300 302 303 299 292 277 280 283 287 285 285 285 287 288 288 287 286 288 291 294 284 281 283 291 294 295 294 289 285 290 282 280 277 280 281 287 290 292 295 298 300 298 300
296 296 297 304 302 295 285 283 284 291 290 289 282 288 285 287 287 287 289 292 291 293 293 286 282 290 292 295 294 292 293 284 282 276 274 277 277 280 284 289 293 295 297 299 300
296 293 300 304 300 290 283 285 288 294 293 289 289 287 287 287 288 287 288 291 294 293 294 290 285 287 290 289 287 288 287 287 286 283 277 272 277 285 287 291 291 293 297 300 300
293 286 301 302 287 289 289 293 295 295 296 294 292 291 288 288 287 287 286 290 295 294 291 293 289 283 287 293 294 293 290 288 278 278 280 276 279 289 288 291 292 293 297 299 299
289 291 301 298 281 288 290 293 295 293 293 293 291 293 292 288 285 289 289 294 296 293 290 292 284 279 282 287 290 286 290 290 286 284 279 277 278 290 291 291 293 293 297 299 298
291 284 290 294 294 291 290 290 292 296 294 295 293 293 290 288 290 288 289 294 295 293 298 295 286 279 276 281 284 280 286 286 281 275 279 279 282 288 290 290 291 293 295 298 298
290 290 292 284 287 292 293 293 291 290 294 295 293 291 289 285 286 286 289 291 293 296 292 290 281 283 285 287 287 285 285 284 278 283 278 284 284 288 290 290 290 292 295 297 297
286 287 289 287 290 292 291 289 290 292 292 292 291 293 291 287 287 285 288 287 287 289 288 290 281 283 278 286 286 283 286 286 285 286 285 285 285 291 294 293 292 293 296 297 296
290 292 291 289 288 290 290 291 291 294 295 296 294 292 289 290 293 292 291 291 290 288 287 287 283 279 275 284 283 278 284 285 286 287 286 282 287 291 291 293 294 295 297 297 296

GFSSW_sfc_thetae_078.txt.gz
Theta_e
314 316 316 315 315 315 315 315 314 314 313 314 314 314 314 315 315 310 303 308 310 318 318 313 313 311 315 311 315 308 295 295 296 298 300 307 306 310 312 306 306 309 321 328 334
315 316 316 315 314 314 314 314 313 313 313 313 313 313 312 313 308 304 311 317 319 321 310 307 307 307 307 307 310 305 293 296 303 304 302 306 308 308 306 306 306 320 329 332 333
315 315 315 315 314 314 314 313 313 313 313 312 312 312 312 310 298 298 315 318 319 319 312 310 312 306 302 307 304 303 296 301 303 307 305 306 306 309 306 303 306 318 326 328 330
314 315 314 314 313 314 314 314 313 313 311 312 311 310 310 305 284 303 316 315 316 314 310 306 307 301 299 300 303 297 301 301 304 306 305 304 306 305 307 307 309 310 328 327 327
312 313 313 313 313 313 314 313 314 313 312 312 311 309 304 295 294 305 312 311 309 311 307 304 303 302 296 300 299 298 300 303 305 305 304 305 303 302 306 311 309 310 325 325 325
312 313 312 313 313 313 313 312 312 312 311 310 310 309 298 288 302 305 305 306 305 304 306 305 304 306 300 297 297 302 302 302 303 303 304 301 302 302 308 312 306 308 313 321 324
312 311 312 312 312 312 311 312 312 311 311 311 308 306 297 292 302 304 305 304 305 303 302 304 308 304 301 296 301 300 296 299 301 301 301 302 298 299 303 305 304 304 304 306 313
311 311 310 312 312 311 310 311 311 310 310 310 309 303 291 304 302 303 302 302 305 305 303 304 308 305 302 302 298 295 296 289 297 299 301 301 292 301 305 303 302 303 302 301 305
311 310 311 311 312 311 310 309 310 309 310 309 302 298 290 306 300 302 301 299 301 302 302 304 306 303 302 293 289 292 285 288 293 299 298 297 293 300 304 302 301 301 301 301 301
310 310 311 311 311 310 309 308 307 306 305 306 303 291 294 294 299 301 301 302 299 298 296 298 299 296 296 291 283 287 288 287 287 295 295 293 293 298 300 300 299 300 299 300 301
309 310 311 311 311 310 302 298 292 290 296 291 292 291 295 299 300 299 301 297 296 294 287 295 290 288 291 293 293 290 289 290 290 295 293 292 293 297 300 298 297 299 299 300 301
309 310 310 310 310 307 298 293 294 294 286 294 295 295 298 298 291 295 301 292 290 284 287 289 286 293 296 295 293 292 288 286 290 295 293 293 293 296 298 298 297 298 299 300 299
309 310 310 309 309 300 295 294 300 299 284 290 294 293 294 296 290 291 297 292 287 285 285 284 288 296 295 293 291 290 287 286 287 291 291 290 290 293 296 299 298 299 300 301 299
309 310 310 309 300 297 293 299 300 298 277 286 289 292 295 295 289 298 298 292 288 284 286 285 291 291 290 291 292 287 294 293 292 286 282 289 280 287 294 295 298 297 297 298 297
309 309 310 308 297 293 298 301 298 293 269 288 289 299 296 290 289 292 298 294 286 286 286 283 287 289 288 291 294 289 296 293 292 288 286 284 282 284 288 291 295 299 299 297 296
309 310 308 302 301 299 300 299 295 273 271 284 289 287 287 290 289 293 292 295 294 289 288 288 296 295 293 295 295 295 293 293 293 290 282 283 283 280 284 289 293 298 297 295 296
309 310 305 303 294 302 301 291 274 272 286 282 286 286 285 285 286 288 286 284 283 278 281 287 291 294 297 290 294 291 288 280 279 281 276 284 282 286 286 290 292 295 294 296 298
309 310 305 303 301 301 298 279 274 280 283 289 287 287 285 288 286 287 285 283 287 286 286 283 280 290 294 292 290 289 284 275 272 275 276 284 279 284 287 290 292 294 296 297 297
307 299 298 301 302 298 289 277 281 284 288 285 287 285 286 288 287 287 284 285 289 288 284 281 283 292 294 294 292 289 286 289 278 278 273 279 282 287 289 289 292 294 296 296 298
296 295 297 303 301 294 284 281 283 289 291 289 283 288 286 288 287 286 287 292 291 292 294 286 282 290 293 295 293 292 292 284 284 277 273 276 277 281 284 288 292 294 294 297 300
295 293 299 303 299 289 280 279 286 293 293 288 286 286 286 288 288 286 287 291 293 292 293 289 285 286 290 288 288 289 287 287 285 280 274 271 277 285 287 291 292 293 296 297 299
291 285 300 301 286 286 282 291 295 293 294 292 290 289 287 286 286 285 286 290 295 293 290 291 288 282 286 291 294 292 288 287 275 278 274 274 278 287 287 291 293 294 297 298 298
289 289 298 295 281 288 290 291 295 293 292 292 290 291 291 287 284 287 288 294 295 293 291 292 284 280 282 287 291 288 291 291 285 279 274 273 278 289 289 290 293 294 297 297 297
288 282 288 291 290 286 288 289 291 297 293 294 292 292 289 287 289 287 288 294 295 292 299 295 285 279 277 280 284 281 286 288 282 273 277 277 281 286 288 290 291 294 297 296 297
287 285 287 280 284 287 289 290 289 290 294 295 292 291 288 284 286 285 288 290 293 295 292 289 281 283 284 287 286 284 284 284 279 282 278 282 283 288 290 290 292 293 296 296 296
283 281 287 284 287 286 289 288 289 291 292 290 290 291 289 286 286 284 286 286 286 289 288 289 281 281 278 285 284 282 285 285 284 285 284 284 284 292 293 292 290 290 293 296 296
288 290 290 284 284 283 285 288 290 293 294 296 293 290 289 289 291 292 291 290 288 287 286 286 282 279 275 282 282 278 283 284 285 286 286 282 287 289 291 292 292 292 294 296 296

GFSSW_sfc_thetae_081.txt.gz
Theta_e
315 317 317 316 316 315 314 315 315 314 314 314 314 314 313 313 314 310 303 308 311 318 317 310 311 309 313 309 312 306 295 294 294 295 297 306 305 309 310 306 307 306 318 325 335
312 316 316 315 315 315 314 314 314 314 314 313 313 313 313 312 306 302 311 317 319 320 311 305 304 306 303 305 307 302 296 295 300 300 300 306 306 307 305 304 305 306 325 331 338
313 312 314 314 314 314 314 315 314 314 314 313 312 312 311 309 296 296 314 319 319 317 311 310 307 306 300 302 303 302 295 299 302 303 306 305 306 310 306 302 305 304 311 327 332
313 314 314 313 314 314 314 314 314 314 313 312 312 311 309 304 283 302 314 315 316 314 310 307 304 301 296 297 302 296 301 301 303 306 305 302 305 305 307 306 310 310 310 320 325
313 313 312 312 313 314 314 313 313 313 313 311 311 310 304 293 293 304 312 310 307 307 304 304 301 301 295 297 301 300 302 303 303 304 304 305 301 303 305 310 311 312 309 320 324
312 312 311 312 311 313 312 311 311 312 311 308 310 310 298 287 300 303 304 306 304 303 304 305 302 303 299 297 299 303 303 301 302 301 302 300 300 303 304 311 311 311 306 321 323
311 312 311 312 312 313 311 311 311 311 310 308 310 305 296 292 301 302 305 304 304 303 299 307 306 303 301 296 302 301 297 300 299 299 299 300 297 298 305 311 310 309 304 310 321
311 311 311 312 312 312 311 310 311 309 311 310 309 302 290 303 302 302 303 302 304 304 302 303 308 303 302 300 296 296 297 291 296 299 299 299 291 299 309 308 307 309 306 304 309
310 310 311 312 312 311 309 309 310 310 309 310 301 296 289 305 299 301 301 299 301 301 301 303 306 301 301 294 288 291 283 288 291 298 296 295 290 300 305 305 303 304 307 303 303
310 310 311 311 311 311 307 307 307 306 305 305 302 289 294 293 298 300 300 301 298 296 294 297 299 295 296 291 282 284 284 285 286 294 293 292 291 298 303 303 303 303 302 301 302
310 310 311 311 310 309 301 296 291 289 294 290 291 291 294 298 301 299 300 297 297 293 285 295 291 287 290 294 291 290 288 286 289 293 293 291 291 296 299 299 299 301 305 301 301
309 310 311 310 310 306 298 291 293 292 284 293 295 294 297 297 291 295 300 291 291 285 287 288 286 291 295 295 292 291 288 286 289 294 292 291 291 296 298 298 299 299 300 299 299
309 309 310 309 308 299 294 293 299 297 283 290 294 293 294 295 289 291 296 292 288 285 284 284 287 293 294 293 291 289 288 286 287 290 290 288 288 293 297 297 298 299 299 299 299
309 309 310 309 299 296 293 298 299 296 274 285 289 291 295 294 288 297 297 292 288 284 285 285 290 291 290 291 293 287 292 291 290 285 281 289 279 286 295 296 296 299 298 298 297
309 309 309 307 296 292 297 300 298 290 265 288 289 299 295 288 288 291 297 292 285 285 285 284 286 289 287 291 294 291 296 293 291 286 281 281 281 284 287 290 295 298 300 298 297
309 310 307 301 299 298 299 298 293 273 269 283 289 287 287 288 288 292 291 294 293 288 287 287 292 293 292 294 295 296 293 292 291 287 280 282 282 281 284 288 290 296 297 298 297
309 310 305 302 294 300 300 289 275 273 287 283 285 286 285 284 283 288 285 283 282 276 280 285 289 293 296 288 295 293 288 280 280 280 277 282 282 286 287 288 290 292 294 295 295
310 308 306 302 300 302 296 280 274 280 283 289 288 288 284 287 286 286 284 278 285 285 281 281 280 289 292 291 290 288 285 275 272 276 277 282 278 284 289 291 291 291 294 294 295
306 297 297 300 301 301 287 277 282 284 288 285 288 284 285 288 286 285 282 284 286 287 283 282 283 292 293 295 294 289 282 287 278 276 272 278 281 286 287 289 289 290 293 294 296
295 294 296 302 300 294 283 283 282 288 289 289 282 286 283 287 285 285 285 289 288 289 292 286 283 291 292 295 293 289 291 282 284 269 271 275 276 280 284 287 289 290 292 294 297
294 291 298 301 298 287 278 279 285 292 292 288 285 285 286 284 288 286 285 291 294 292 292 289 286 286 291 289 287 288 287 286 283 279 273 271 277 283 285 288 289 291 293 295 297
290 283 298 299 284 284 279 288 294 292 293 291 289 288 285 285 284 286 286 289 295 293 288 291 287 282 286 291 293 290 288 287 275 279 278 271 277 286 285 288 292 292 296 296 297
287 288 296 294 278 279 287 290 293 292 291 291 290 291 289 285 283 286 289 295 294 292 289 291 284 280 282 287 290 288 290 290 285 279 272 273 278 288 286 289 293 294 296 296 296
287 282 287 289 288 284 285 285 288 295 292 293 291 291 288 285 287 285 287 294 295 291 299 294 285 280 277 280 286 285 287 288 286 280 277 275 281 285 286 289 292 296 297 296 297
285 283 288 278 282 285 286 288 287 287 292 293 290 290 287 283 284 284 287 289 292 296 291 288 281 282 283 286 285 284 284 286 284 284 279 281 281 286 287 289 291 294 296 296 296
283 280 284 282 285 285 287 285 287 289 290 288 288 290 289 285 285 283 285 285 286 288 288 288 280 282 279 285 285 283 285 286 287 286 284 284 283 289 291 290 291 292 295 295 296
285 287 287 282 281 281 282 285 287 288 292 294 294 289 288 289 290 290 290 290 288 286 286 285 282 278 273 282 282 277 282 284 285 285 286 282 287 289 289 291 291 291 294 296 296

GFSSW_sfc_thetae_084.txt.gz
Theta_e
313 313 315 315 315 315 315 315 315 315 315 315 314 314 314 313 313 308 303 309 311 317 316 311 309 308 312 309 311 307 297 295 294 294 296 304 303 307 309 306 306 305 311 319 330
313 313 314 315 314 315 315 315 315 315 315 315 314 313 313 312 304 301 310 318 318 319 311 307 303 306 303 303 307 304 297 294 300 298 297 302 304 306 305 305 303 304 311 327 337
314 313 314 314 314 314 315 315 314 314 314 314 313 313 311 308 294 294 315 317 319 318 311 309 308 305 299 299 301 303 294 298 300 302 304 303 304 310 303 302 304 303 307 312 323
313 313 313 313 312 313 314 313 312 312 312 313 311 310 310 302 282 299 314 316 316 314 309 306 304 300 296 294 299 298 303 300 302 305 304 302 304 303 305 305 308 308 309 310 311
312 313 312 312 313 313 313 312 312 312 312 310 310 309 303 292 292 302 310 310 306 307 305 302 300 300 295 295 297 299 301 302 302 304 303 303 300 301 304 310 310 311 312 308 309
311 312 312 312 313 313 312 311 312 311 311 309 308 309 297 285 298 302 304 304 304 302 303 304 301 302 299 296 296 299 300 300 302 302 303 300 299 301 302 310 310 310 310 309 309
311 311 311 312 313 313 311 311 312 310 310 308 309 305 295 291 300 303 305 303 304 302 298 304 304 301 302 296 301 299 295 298 299 300 298 299 295 297 302 310 309 309 308 309 309
311 311 311 312 312 312 310 311 311 311 309 309 309 299 289 302 301 304 303 302 304 304 302 302 302 301 301 300 296 295 294 287 298 298 299 297 290 297 305 305 307 309 309 308 309
311 311 311 311 311 311 308 309 310 310 310 309 299 294 287 303 298 299 302 298 301 301 302 302 300 299 300 294 288 292 287 288 290 299 296 294 289 297 305 304 304 308 308 307 307
311 311 311 311 310 310 307 307 307 305 304 303 302 288 293 292 298 300 300 301 297 296 295 296 297 292 293 292 280 284 286 290 288 294 295 291 289 294 303 303 303 306 307 307 304
310 310 311 311 310 307 301 294 290 288 293 289 291 290 294 299 302 298 299 297 296 293 285 288 288 284 289 293 289 288 287 287 290 294 294 289 291 293 297 302 303 304 306 306 304
310 310 311 310 309 304 297 290 291 291 285 292 293 294 296 297 290 294 299 289 290 285 286 285 284 290 295 293 292 288 288 286 289 293 291 290 290 294 295 297 301 304 305 306 306
310 310 310 310 308 298 293 292 298 296 284 289 293 292 293 295 288 290 295 290 287 285 284 282 287 294 291 291 290 288 287 285 286 290 289 288 287 291 294 296 296 299 304 306 306
310 310 309 308 298 295 292 298 298 294 274 285 289 290 294 293 287 297 297 290 289 285 284 285 292 291 288 287 291 286 291 291 288 286 283 286 280 284 292 294 295 297 297 301 303
309 310 309 306 295 291 296 299 296 289 266 287 289 298 295 287 287 289 296 292 285 285 284 282 287 287 286 288 293 289 294 291 289 284 282 280 280 283 286 289 295 298 298 299 300
309 309 308 301 297 297 299 297 291 273 267 282 289 287 286 287 287 291 290 293 293 288 286 286 292 291 289 290 295 296 292 291 289 285 276 281 281 280 283 287 289 294 297 299 300
309 309 305 301 293 299 296 288 274 269 284 283 286 286 283 282 283 286 284 281 279 276 278 285 288 293 294 287 294 294 286 281 280 280 276 281 280 285 286 288 290 291 294 297 298
309 308 306 301 302 302 292 279 268 278 275 288 289 287 281 285 285 285 283 277 283 283 277 279 279 289 293 289 289 290 285 275 271 274 276 281 278 284 289 291 292 292 293 293 295
305 296 296 299 302 301 286 274 276 276 287 286 287 281 285 287 286 285 283 278 282 285 282 280 282 291 292 294 293 288 284 284 276 274 273 278 280 286 286 288 289 289 291 291 293
294 294 295 301 302 296 280 280 279 287 288 289 282 284 279 285 284 284 283 287 287 287 291 286 282 290 290 295 293 290 290 280 281 269 271 275 274 280 284 286 287 289 289 291 294
294 291 296 300 300 285 276 277 283 290 291 287 283 283 284 284 286 283 285 289 291 289 290 289 286 286 288 287 287 288 284 286 282 277 272 271 277 282 284 285 286 289 290 292 295
289 283 296 297 282 282 278 286 293 291 291 290 288 287 284 284 283 286 287 290 295 294 287 290 287 282 285 291 293 289 287 285 276 276 277 271 277 286 284 285 287 290 293 294 296
286 286 295 292 277 277 285 288 291 291 291 291 290 290 288 285 282 285 289 294 295 293 289 290 284 280 282 286 289 287 287 286 282 279 278 273 278 287 286 287 289 291 293 294 295
285 279 284 287 286 283 285 283 287 292 291 292 292 292 288 284 286 284 287 293 296 293 298 295 285 281 277 280 285 284 285 286 281 273 277 276 280 286 287 288 289 291 293 293 295
283 283 287 276 279 282 284 286 286 286 291 293 291 291 288 283 284 283 288 291 293 295 292 289 281 281 283 285 285 283 284 285 281 283 278 279 281 286 287 287 289 293 295 295 294
281 279 282 279 282 281 284 283 282 285 288 287 288 291 290 286 284 282 285 286 287 290 288 287 282 282 279 284 283 282 284 285 286 286 283 284 282 288 289 287 289 292 294 295 296
284 286 284 281 278 279 279 279 281 284 286 291 289 286 287 290 290 289 288 289 288 286 286 285 281 279 274 282 281 278 282 284 285 286 287 282 288 290 287 289 290 291 295 296 296

GFSSW_sfc_thetae_087.txt.gz
Theta_e
313 314 314 317 315 315 316 316 316 315 315 315 315 314 313 312 312 307 302 309 312 318 318 312 310 310 313 308 313 308 299 296 298 297 301 305 305 308 311 308 309 312 318 322 334
312 315 314 315 314 314 314 316 315 314 314 314 314 313 312 311 304 300 308 315 319 319 311 307 304 307 305 304 307 304 298 298 302 301 302 304 305 307 307 306 306 308 313 319 328
313 314 314 314 313 313 313 315 313 312 312 313 313 311 310 308 295 294 314 317 318 318 311 309 308 304 301 304 303 303 296 301 302 303 305 304 306 310 306 304 308 307 310 315 318
313 313 314 312 314 314 314 313 312 312 312 312 311 311 311 303 283 298 313 315 315 314 309 304 304 300 298 297 302 298 302 302 303 306 305 304 307 307 307 307 311 311 313 313 312
312 312 312 312 314 314 313 312 312 312 311 310 310 311 303 293 292 302 311 310 305 305 304 301 298 298 295 297 300 299 301 303 304 305 305 305 304 305 307 310 312 313 313 312 312
312 312 312 312 313 313 312 311 312 311 310 309 309 309 297 286 299 304 304 304 303 302 300 304 299 301 299 297 297 300 301 302 303 303 304 302 302 304 306 309 311 312 312 312 313
312 312 312 312 313 313 311 312 312 311 310 309 310 304 295 291 302 305 305 303 304 302 298 304 304 300 301 297 300 301 296 299 301 302 301 302 298 299 305 310 309 310 312 312 313
312 312 312 312 312 312 310 311 311 310 309 310 310 300 289 301 301 304 304 301 304 304 303 303 303 300 298 302 298 296 295 291 298 300 302 300 294 300 304 307 306 309 311 311 312
312 312 312 312 312 311 308 308 310 309 309 309 300 295 288 304 298 301 302 298 301 301 302 304 301 298 298 292 290 293 287 288 293 300 298 297 293 299 304 306 304 307 309 310 310
311 311 312 312 311 310 307 308 307 305 303 303 301 289 293 292 298 299 301 301 298 296 296 296 295 292 292 287 282 285 287 289 290 296 297 293 293 297 303 304 304 306 309 309 310
311 311 311 311 310 307 300 294 290 288 293 289 290 290 294 298 301 298 300 297 297 292 284 288 285 285 288 290 290 290 289 289 291 295 295 294 293 296 301 303 303 305 308 308 309
310 311 311 311 309 304 296 290 291 291 284 292 293 293 296 297 290 295 299 290 290 285 286 285 282 291 293 293 292 290 288 288 292 295 296 293 293 296 298 302 303 305 306 307 309
310 310 311 310 307 298 292 292 297 296 284 289 293 292 293 295 289 290 295 290 287 285 284 281 286 293 292 290 287 288 288 287 288 292 292 292 291 293 297 298 301 303 307 308 309
310 310 309 308 297 294 291 297 297 294 273 283 289 291 294 294 287 297 297 291 288 284 285 285 291 291 288 288 289 285 292 291 290 289 285 290 282 288 294 295 297 301 301 306 308
309 309 309 306 294 291 295 298 295 289 265 286 289 298 294 287 287 290 297 292 285 285 285 283 288 289 286 287 288 289 293 291 289 286 285 286 285 287 289 292 296 297 298 300 304
309 308 308 300 296 296 298 296 291 274 266 283 290 287 286 288 287 290 290 293 293 287 286 286 291 291 290 290 290 290 292 291 290 286 280 283 284 284 286 290 295 300 300 302 302
309 309 304 300 292 299 295 288 274 269 283 281 286 286 283 282 283 285 284 279 278 273 273 286 287 293 292 287 289 287 288 281 279 279 276 283 282 287 289 291 292 295 297 300 302
308 309 305 301 302 301 291 279 267 278 273 288 289 287 282 284 284 284 282 277 282 282 274 278 277 288 292 287 286 290 286 278 273 275 277 283 280 286 291 293 294 294 295 296 299
306 296 296 298 303 301 287 273 274 274 284 286 288 283 284 286 286 284 282 279 281 284 280 280 282 290 292 292 289 289 282 286 278 277 278 281 283 288 290 290 291 291 293 293 294
294 293 294 300 303 295 280 279 279 287 287 289 282 284 283 285 284 283 283 284 285 286 290 286 281 289 291 294 293 290 291 282 280 272 274 278 279 283 287 289 290 291 292 293 295
293 290 295 301 300 286 274 275 282 290 291 288 284 284 285 284 285 283 285 288 288 288 289 289 286 285 289 286 287 288 287 284 283 280 276 275 280 286 287 288 287 288 291 293 295
289 281 295 300 281 281 276 285 292 290 291 291 290 288 286 286 284 286 285 288 294 291 285 289 288 282 284 291 293 291 287 285 279 278 275 276 281 288 288 288 288 289 293 295 297
285 285 293 294 276 278 284 286 289 290 290 290 289 291 291 287 284 286 288 295 295 291 289 290 285 281 282 286 290 288 288 285 283 281 278 277 280 288 288 290 291 293 294 296 297
283 277 283 286 284 280 281 282 285 291 289 291 291 293 289 285 288 286 285 294 295 295 297 295 286 281 276 280 285 283 286 285 282 277 279 279 283 288 289 290 290 294 295 296 297
281 282 284 275 278 280 284 286 281 282 286 290 288 286 283 283 284 284 287 288 294 295 293 291 283 283 284 285 286 285 285 285 279 282 279 282 282 288 289 289 289 292 295 295 296
281 279 280 279 280 279 281 280 279 281 282 282 284 284 285 283 286 285 287 287 287 291 290 288 283 283 280 285 285 284 285 285 285 285 284 284 283 289 290 290 290 293 295 295 296
283 285 282 280 278 277 278 279 280 282 284 285 284 283 285 288 290 291 290 291 290 289 288 286 284 281 276 282 282 278 282 284 285 286 287 283 288 290 290 290 291 291 295 296 297

GFSSW_sfc_thetae_090.txt.gz
Theta_e
314 314 316 315 315 314 314 315 316 315 314 314 315 315 314 313 312 309 302 308 312 318 316 314 312 314 316 312 315 314 303 300 301 302 304 311 309 313 315 312 313 319 319 330 336
314 314 315 315 314 315 314 315 315 314 312 313 313 314 312 312 306 301 307 315 317 319 311 308 306 310 308 307 310 306 301 302 307 308 307 310 310 311 310 310 311 314 319 334 338
314 313 314 314 313 316 315 315 314 312 313 312 313 311 311 310 299 297 313 316 319 317 311 310 308 307 304 307 305 305 298 305 307 309 310 309 309 312 310 308 312 311 317 325 322
313 313 313 313 313 315 315 314 312 313 312 312 311 311 311 305 287 302 312 314 315 314 310 306 304 301 299 299 304 299 304 304 308 309 308 307 310 309 310 310 315 316 319 322 322
313 313 313 313 313 314 314 312 313 312 311 311 310 312 305 296 295 305 311 310 307 309 306 302 301 300 295 299 302 299 301 305 307 307 309 310 308 308 310 314 316 317 317 318 319
313 313 312 313 313 313 313 312 312 311 311 309 309 308 300 289 303 308 306 305 305 304 302 304 299 301 298 297 298 301 302 304 306 306 308 306 307 309 311 315 315 315 316 317 318
313 313 312 312 312 312 311 312 312 311 310 310 310 305 297 294 305 308 306 304 305 303 300 304 304 300 299 296 302 301 297 302 304 304 304 308 303 304 311 313 313 314 316 317 318
312 312 312 312 312 312 310 311 310 309 309 310 309 304 294 303 307 306 305 303 305 304 303 306 306 301 299 301 299 296 297 292 301 304 304 305 297 306 311 311 311 313 314 316 317
312 312 312 312 312 311 309 308 310 309 309 308 303 300 292 308 300 304 305 300 302 302 303 305 303 297 298 289 291 293 289 291 295 304 303 303 297 305 310 310 309 311 313 314 316
311 311 312 312 311 310 307 308 307 306 305 305 303 295 297 294 300 301 304 303 299 298 296 296 296 292 293 287 284 287 289 291 293 300 301 299 299 302 307 308 308 309 311 312 315
310 311 311 311 310 306 304 304 298 295 298 292 293 293 295 299 303 300 302 300 298 294 286 290 288 285 290 291 290 292 291 290 295 300 299 298 298 301 304 306 306 308 310 312 314
310 310 311 311 309 304 303 296 295 297 290 295 295 295 298 299 292 297 302 293 291 287 289 286 285 291 294 292 291 291 290 291 294 299 298 297 297 301 304 304 306 307 308 310 313
310 310 311 310 307 303 299 297 303 301 290 291 294 293 294 297 291 292 298 294 289 286 287 284 289 293 292 290 287 291 290 291 292 296 298 297 294 297 301 304 306 308 310 311 313
309 310 309 308 302 301 297 301 303 299 285 287 290 293 295 295 289 298 299 294 290 285 287 286 291 291 290 288 288 287 294 294 293 291 286 296 285 294 299 300 303 305 308 310 313
309 309 308 307 302 298 299 303 302 297 277 288 290 299 296 290 290 292 299 294 286 285 288 285 289 290 288 289 290 289 295 293 294 291 291 291 288 293 296 297 301 304 307 309 312
309 309 308 305 304 302 304 303 299 284 277 285 291 288 288 290 289 292 292 295 294 288 288 288 293 292 292 292 292 291 292 293 293 291 283 289 289 289 292 296 300 304 306 308 309
309 308 308 304 300 303 302 298 284 281 286 285 287 287 286 284 285 287 286 285 283 280 281 286 288 293 294 288 290 287 288 282 281 282 281 288 288 291 296 297 300 302 305 308 310
308 310 305 304 305 302 299 289 280 283 285 290 290 288 283 286 284 285 284 282 286 285 281 281 279 289 292 290 286 286 287 284 276 278 282 287 284 289 298 301 302 301 302 303 308
307 305 306 305 304 303 293 284 284 286 289 288 289 285 285 287 286 285 284 282 285 287 282 283 282 292 292 290 291 288 286 290 285 284 283 286 289 294 297 297 298 299 300 301 303
303 302 301 304 304 297 289 286 288 290 291 290 284 286 284 286 284 284 284 288 286 288 291 288 282 289 291 293 290 287 293 286 287 279 278 283 285 287 292 294 295 297 299 302 302
302 298 301 303 302 292 287 288 289 293 292 289 287 285 287 286 286 284 285 289 290 288 290 288 287 286 289 287 287 288 288 289 289 286 282 280 284 293 292 294 294 296 297 299 301
300 293 300 302 292 288 287 287 292 292 294 292 291 288 288 289 286 286 285 288 294 292 287 290 288 283 286 292 295 291 291 290 287 282 283 285 285 293 295 295 296 298 299 300 301
294 295 299 298 287 286 288 287 290 288 290 288 290 292 289 287 286 288 286 293 295 293 291 293 288 282 284 288 291 287 290 290 289 288 284 284 286 294 294 295 297 298 300 300 302
293 291 291 295 291 286 283 285 284 289 289 288 287 288 286 288 291 288 285 293 295 295 296 296 289 285 283 285 289 285 290 290 288 286 285 287 288 292 293 295 297 297 300 301 302
291 288 288 286 287 286 286 286 282 282 286 289 287 285 284 282 286 288 287 290 292 294 294 293 286 287 288 288 289 288 289 288 286 289 286 288 287 293 296 296 297 298 300 301 301
291 289 288 287 285 285 285 283 282 283 283 283 282 285 286 283 284 283 285 286 286 292 290 293 286 287 284 288 288 287 289 290 290 290 289 288 288 294 297 299 297 298 299 300 301
291 292 291 284 285 285 283 283 282 284 285 286 285 285 286 287 288 289 290 292 293 291 290 289 288 286 282 286 286 283 286 288 289 290 291 286 292 296 294 295 297 299 299 301 302

GFSSW_sfc_thetae_093.txt.gz
Theta_e
314 314 315 316 315 314 316 315 315 316 315 313 314 314 315 314 313 309 303 309 312 318 318 312 312 313 315 312 314 315 300 299 301 302 305 311 308 313 315 313 314 319 322 330 336
314 314 314 315 315 314 316 315 315 314 313 314 313 314 313 313 308 303 311 315 318 318 311 308 305 310 307 308 309 306 300 301 307 308 305 309 310 311 311 311 313 315 328 332 337
314 314 314 314 314 314 316 315 314 313 314 313 313 312 311 312 301 300 314 315 317 319 312 310 309 307 303 306 305 305 299 306 306 309 309 308 309 313 311 308 312 312 322 331 337
314 314 314 314 314 314 315 314 313 314 313 312 311 311 311 307 288 303 311 313 315 314 311 307 305 301 300 299 304 300 304 304 307 308 309 308 310 310 312 313 316 317 321 327 331
314 314 313 313 314 313 314 313 313 313 312 310 310 311 308 299 297 307 310 311 308 308 307 303 301 300 296 300 301 300 302 304 306 307 309 310 308 309 310 315 316 317 319 322 325
314 314 313 313 313 313 313 312 312 311 309 309 309 310 303 293 305 309 308 306 305 304 305 304 301 303 299 298 298 302 302 302 305 306 307 306 307 308 310 315 314 315 317 318 321
313 313 313 313 313 313 312 311 311 309 309 310 309 307 299 296 306 308 307 305 305 305 301 305 304 301 302 296 302 300 296 300 303 304 304 307 302 304 311 314 313 313 315 318 319
312 313 313 313 313 312 311 309 310 309 309 311 310 305 296 305 308 305 306 304 305 305 303 306 306 301 300 301 298 294 297 291 299 303 303 304 296 304 310 311 311 312 314 316 318
312 312 312 312 313 311 310 308 309 310 309 309 305 301 294 308 301 304 305 301 302 303 305 304 304 295 296 293 290 292 289 291 293 302 301 302 297 304 309 310 309 311 312 314 316
311 311 311 312 312 310 307 308 308 307 307 306 304 296 298 295 300 302 305 303 299 299 297 297 296 291 291 289 284 288 289 291 291 299 300 298 298 303 308 308 308 309 311 313 314
310 311 311 312 311 307 306 305 299 297 299 295 295 294 296 300 303 300 303 301 299 296 287 291 287 286 289 291 293 292 291 290 293 300 298 298 298 301 305 307 307 308 309 311 313
310 310 311 311 310 305 305 298 298 300 291 297 297 296 299 300 293 297 303 294 292 287 291 287 284 291 293 294 291 290 290 290 294 300 298 297 297 301 304 305 307 307 308 309 312
310 310 310 310 308 305 301 299 305 303 292 293 296 295 295 298 292 293 298 294 290 287 287 285 289 293 292 290 288 289 290 291 291 296 299 296 294 297 302 305 306 307 309 310 310
309 310 310 310 304 305 301 303 305 303 287 289 291 294 295 296 290 298 299 294 290 286 287 288 291 291 291 288 289 287 295 294 293 292 286 296 286 294 298 300 303 305 307 308 311
309 310 309 308 305 302 302 305 305 300 278 290 291 300 296 291 291 293 300 295 287 286 287 286 288 289 289 290 292 289 295 293 294 291 290 291 287 292 297 296 300 304 306 308 311
309 309 308 306 307 304 306 305 301 284 278 286 292 290 289 290 290 293 293 296 294 288 289 288 293 293 292 294 293 292 293 293 293 291 283 290 288 289 294 297 300 303 305 307 310
308 308 308 307 301 306 306 300 284 281 289 287 288 289 287 286 287 288 287 286 284 281 283 287 289 293 295 288 290 289 289 282 280 280 281 290 288 291 296 299 301 303 305 308 310
308 310 306 307 306 303 302 290 281 285 289 293 291 289 284 287 286 286 285 283 287 286 285 283 280 289 293 290 287 287 287 283 277 279 282 289 284 290 298 301 302 303 305 308 309
310 309 306 306 305 305 295 286 285 285 290 288 290 285 287 287 287 286 284 285 286 288 284 284 283 292 292 292 292 287 285 292 286 287 284 286 289 295 298 298 300 301 302 303 306
307 305 301 305 306 302 291 286 286 292 293 292 284 288 284 285 284 284 285 289 286 289 293 288 282 290 291 292 291 287 290 285 288 279 278 284 285 287 292 295 298 299 301 303 305
306 301 302 305 305 297 287 286 288 294 294 289 287 286 287 286 285 284 286 290 290 288 292 289 287 285 288 287 286 287 287 290 290 288 282 280 284 294 294 296 296 298 299 301 304
304 296 304 305 295 295 288 288 292 289 293 291 291 289 286 288 287 286 285 289 293 291 287 290 288 283 286 292 295 293 290 291 286 284 286 286 285 296 297 297 298 300 301 302 303
297 298 303 301 287 288 289 288 289 287 289 287 287 288 289 287 286 290 285 294 296 292 291 292 288 282 283 288 291 288 291 293 291 291 286 284 285 296 297 297 299 299 302 303 304
297 293 294 297 293 288 286 286 285 289 288 290 288 289 288 288 290 288 285 293 296 295 297 296 289 285 283 286 290 286 290 292 288 288 287 287 289 292 294 296 298 299 301 303 304
297 292 292 289 289 288 288 287 284 283 288 289 288 287 284 284 287 285 287 289 294 295 295 293 287 289 289 291 291 290 290 291 287 290 288 289 289 293 296 297 298 300 301 302 303
295 292 292 290 288 287 287 285 284 284 285 285 284 287 287 285 284 283 285 288 287 292 290 295 287 289 286 290 290 288 290 291 291 291 291 291 290 297 299 299 299 299 300 300 302
296 296 295 288 288 287 286 285 284 286 287 288 287 288 287 288 289 290 290 291 291 291 291 291 290 287 284 288 288 284 289 290 291 292 292 287 293 297 296 297 298 299 300 300 302

GFSSW_sfc_thetae_096.txt.gz
Theta_e
314 315 315 315 316 315 316 318 316 316 314 314 314 314 315 315 314 309 303 308 311 316 317 312 310 309 311 308 311 313 300 296 299 300 302 309 306 310 311 309 313 318 323 334 339
314 315 315 315 315 315 315 317 316 315 314 314 314 313 314 313 308 304 312 314 315 317 309 305 304 305 303 305 307 304 297 298 306 306 304 307 307 308 308 308 310 319 326 336 337
314 316 315 315 314 314 315 316 315 314 315 314 313 313 313 311 301 301 313 314 316 315 311 308 307 304 300 303 304 302 297 303 306 308 309 308 308 310 306 305 310 315 323 331 335
314 315 315 314 314 315 314 315 313 313 314 313 312 312 312 307 288 303 310 312 314 311 309 305 304 299 298 297 302 298 301 303 307 308 308 306 310 308 307 307 313 319 326 332 333
314 315 315 314 314 314 314 314 313 313 312 311 311 312 308 299 297 307 310 309 307 306 305 303 300 298 294 298 300 298 300 303 305 306 307 309 307 307 308 312 314 320 324 325 331
313 314 314 314 314 314 314 312 312 312 311 311 310 311 303 292 305 308 307 306 305 303 303 304 300 301 296 297 297 300 300 301 303 304 306 305 306 308 309 313 310 315 315 319 322
313 313 313 313 313 314 313 311 312 310 310 311 310 307 300 296 305 307 306 304 304 303 300 304 304 300 299 295 301 299 295 299 300 303 303 306 301 303 310 310 310 311 311 314 319
312 312 313 313 313 313 312 311 310 311 310 312 311 305 295 305 307 305 305 303 305 305 303 305 306 299 296 301 297 293 294 290 297 302 304 302 294 304 309 308 306 309 308 311 314
311 312 312 312 313 312 311 310 309 310 310 310 304 301 294 306 301 304 305 300 302 303 304 304 301 294 294 292 288 290 286 288 292 300 300 300 294 302 306 305 306 306 307 310 312
312 311 311 312 312 311 309 308 309 309 307 306 303 295 298 295 300 302 304 303 298 299 297 296 295 289 288 288 281 283 284 288 289 294 298 295 295 300 303 303 302 305 305 307 311
311 311 311 311 312 309 305 304 298 296 299 294 294 294 295 300 303 300 302 299 298 295 287 290 286 283 286 288 291 290 288 288 291 296 294 294 295 298 301 303 302 303 305 305 308
310 310 311 311 311 309 304 298 298 298 288 298 297 296 298 300 292 296 302 293 292 286 289 285 281 288 291 290 290 288 289 288 293 296 295 295 295 299 299 301 301 303 303 304 305
309 310 310 310 310 306 301 299 305 303 290 293 296 295 296 297 292 293 298 294 289 286 287 283 287 291 290 289 287 287 286 289 289 294 297 294 292 296 299 301 302 304 304 305 305
309 309 309 309 304 305 301 303 305 304 285 288 291 294 295 296 289 298 298 294 290 285 286 285 290 290 289 288 290 285 292 290 292 290 285 294 282 292 295 298 300 300 301 301 303
309 309 309 307 304 301 302 305 305 299 277 290 291 300 297 290 291 292 299 294 286 286 287 284 287 288 287 289 291 288 292 292 292 290 288 289 284 288 296 294 297 300 301 302 303
308 309 308 306 306 304 306 306 300 283 276 285 292 290 289 289 290 293 293 295 294 287 288 286 293 293 291 293 293 293 292 292 291 289 280 286 285 284 289 293 295 300 301 303 303
308 307 307 308 301 306 306 298 283 279 289 286 288 289 287 286 287 288 287 285 282 279 281 288 289 293 294 288 291 289 287 281 279 279 280 288 285 285 292 297 298 299 300 302 302
308 309 306 307 307 306 302 290 279 283 283 291 290 289 284 287 286 286 285 280 286 285 283 280 277 288 292 290 286 286 286 281 273 274 278 287 283 285 293 296 298 299 299 302 302
310 307 305 305 306 305 294 283 281 283 289 288 289 283 286 286 287 286 283 283 286 286 282 282 281 291 293 293 291 286 284 289 283 283 279 282 283 289 294 294 295 295 298 297 299
306 304 301 306 306 301 291 284 285 291 290 290 282 287 283 285 283 284 284 288 286 288 293 286 280 289 290 292 291 288 289 284 284 276 277 280 280 284 289 291 294 294 295 296 298
303 299 302 306 305 296 285 284 288 292 292 289 287 286 286 286 286 282 286 289 289 287 290 290 286 285 289 286 284 285 284 287 288 284 276 275 279 288 290 293 293 294 295 297 298
302 295 304 305 292 293 286 287 291 288 292 290 290 287 285 286 287 285 285 289 292 290 286 290 288 280 283 291 293 291 287 288 283 282 282 282 279 292 293 294 296 297 298 297 299
296 296 303 301 286 287 289 288 289 287 288 287 287 288 289 286 286 286 286 293 295 291 291 291 287 281 282 287 291 286 289 291 290 287 283 281 280 293 292 293 295 295 297 299 299
296 290 293 296 292 287 285 286 285 290 288 289 288 289 287 287 290 286 285 292 296 295 298 296 288 284 281 284 287 282 287 291 287 283 284 284 284 288 291 292 294 295 297 298 299
297 293 293 288 287 288 288 287 284 283 288 289 288 287 284 283 286 285 287 290 294 296 294 293 286 287 288 290 290 288 288 289 285 288 283 287 287 290 291 290 293 295 297 299 299
293 289 290 288 288 287 286 285 283 284 285 284 284 287 288 284 284 283 285 287 287 291 290 292 286 288 283 290 289 286 290 290 289 289 288 288 287 293 294 295 294 293 297 297 299
295 295 293 288 287 285 284 284 284 286 287 288 287 286 287 287 288 289 290 289 289 289 290 290 288 284 282 286 286 282 287 289 289 290 290 286 290 293 293 295 294 295 296 297 299

GFSSW_sfc_thetae_099.txt.gz
Theta_e
316 315 316 316 315 315 316 316 318 316 316 315 314 316 314 315 314 309 302 307 309 315 314 310 308 308 308 305 308 308 298 295 297 297 301 306 304 308 309 308 318 322 325 332 338
315 315 317 316 315 315 315 316 317 315 314 315 315 314 314 314 307 303 311 315 315 316 308 304 301 306 300 302 303 302 296 295 303 303 301 307 307 308 309 309 317 321 332 337 338
314 315 316 316 315 315 316 315 316 314 313 314 314 313 313 311 301 300 313 314 315 314 307 308 305 304 298 300 300 300 295 301 303 305 308 306 307 311 306 304 315 319 328 333 335
314 315 316 315 315 314 315 314 314 313 314 313 312 312 312 307 288 302 310 311 313 311 307 305 302 298 296 295 299 295 300 302 305 309 307 305 309 308 308 306 319 323 331 332 333
313 314 314 314 315 315 315 314 313 312 312 311 311 312 308 299 297 307 311 308 306 306 304 301 298 296 292 296 298 295 298 301 303 306 305 309 306 306 307 312 314 326 330 330 331
313 313 313 314 314 314 315 314 312 312 311 312 311 311 302 292 301 305 305 304 303 302 302 302 299 301 296 294 294 298 298 299 302 304 305 305 306 308 310 313 312 322 324 327 330
313 313 312 313 313 314 314 313 311 311 310 312 311 306 299 296 301 304 306 302 303 301 298 303 303 299 297 293 299 298 293 298 301 303 303 306 301 303 310 312 310 314 316 321 328
312 312 312 312 313 313 313 312 311 311 311 311 311 303 293 305 303 304 303 303 303 304 304 307 304 299 296 296 297 294 293 288 297 300 303 304 293 304 310 309 308 310 307 315 320
312 311 311 312 312 313 312 311 309 310 311 311 303 298 291 306 300 302 302 299 301 303 304 305 301 294 294 287 288 289 286 286 292 300 301 299 295 303 309 308 306 307 307 310 312
311 311 311 311 312 312 311 310 308 308 306 306 303 291 297 295 300 301 301 302 298 298 298 296 294 289 288 285 280 283 285 287 288 295 299 296 295 300 306 306 305 306 305 306 310
311 310 311 311 312 311 306 299 294 293 296 292 293 293 296 300 303 299 301 299 297 294 283 288 283 279 286 287 287 289 287 286 289 295 296 295 296 298 303 305 304 305 307 302 307
311 309 310 310 311 310 303 295 295 295 286 296 297 295 299 300 292 296 301 292 291 283 287 282 279 286 291 290 288 288 286 286 290 294 293 293 294 298 299 300 303 303 304 302 303
309 309 310 310 310 304 299 297 302 300 287 293 296 294 296 298 292 293 297 293 288 285 284 279 285 289 289 288 285 286 287 286 287 293 294 292 291 294 299 299 301 302 303 303 303
309 309 310 309 304 302 298 302 302 299 282 287 291 294 296 296 290 297 299 292 289 283 284 283 289 288 288 287 288 285 291 290 291 289 284 293 281 291 295 297 298 298 299 301 301
309 309 309 308 301 297 300 303 300 294 266 288 291 300 296 290 291 292 299 293 285 285 286 282 285 286 287 288 290 287 292 292 290 287 286 288 285 288 294 293 295 298 298 300 300
308 308 309 305 304 301 303 301 296 276 265 283 292 290 289 289 289 293 292 294 293 287 287 285 291 291 291 293 293 293 292 292 291 288 278 285 284 282 290 294 293 295 298 300 301
307 308 307 307 299 301 302 293 277 269 285 281 286 288 287 285 287 288 286 282 277 278 280 286 288 293 294 288 291 289 287 280 279 279 276 287 284 285 290 295 297 296 297 299 301
308 309 307 305 302 301 296 283 269 281 277 290 289 288 284 286 285 286 283 276 284 284 280 274 278 288 292 289 284 286 286 278 275 276 276 287 281 285 292 293 298 297 298 300 300
310 304 301 302 303 300 288 273 274 277 287 286 286 278 284 287 286 284 277 278 284 285 282 277 281 292 292 293 291 287 283 289 283 282 276 281 283 287 291 292 293 295 296 297 299
303 301 297 303 302 295 282 278 280 290 287 289 276 285 281 285 283 281 279 286 285 287 292 284 280 288 290 292 290 288 289 283 282 275 275 276 278 280 285 289 293 294 295 296 298
300 294 300 303 300 288 275 276 284 290 290 288 285 285 283 284 286 276 283 288 287 286 289 288 283 284 287 285 282 283 282 286 286 280 276 273 277 287 287 289 290 291 294 296 297
297 288 300 300 283 284 277 285 291 287 289 290 287 285 282 286 286 283 284 286 293 288 286 288 286 279 281 290 291 287 285 289 278 280 278 274 278 290 291 292 294 294 296 296 298
293 290 298 296 276 276 284 287 287 286 286 286 285 287 287 285 285 286 285 291 294 292 288 289 286 278 281 287 290 287 288 290 289 284 279 278 279 292 291 291 294 294 295 297 298
291 283 287 289 285 282 282 283 283 288 287 288 287 288 286 286 288 285 285 291 295 295 296 294 288 282 276 280 284 281 286 288 283 278 283 283 283 287 289 289 291 293 296 297 297
291 287 288 280 282 283 284 284 283 282 286 287 286 285 285 280 285 285 286 289 293 295 292 292 285 286 287 288 288 286 286 288 284 287 283 286 286 289 289 289 290 293 296 297 298
287 284 284 283 285 283 283 281 282 283 284 283 283 286 287 282 283 283 285 286 286 290 288 289 284 286 280 288 288 285 288 288 289 288 287 288 286 290 291 293 294 292 296 297 298
290 290 287 285 282 280 280 281 283 284 286 287 286 283 286 285 286 288 289 289 289 288 290 289 287 282 277 284 286 281 286 288 289 290 290 284 288 291 292 294 294 294 295 296 299

GFSSW_sfc_thetae_102.txt.gz
Theta_e
315 316 316 317 316 315 316 316 316 317 316 314 315 316 315 314 314 308 302 307 309 317 314 308 306 305 306 304 308 305 295 291 296 298 299 306 305 306 310 309 318 321 323 330 335
315 315 316 317 316 315 315 316 315 316 314 314 315 314 314 313 306 302 311 317 318 316 306 303 299 301 299 299 303 299 293 294 301 302 301 307 307 307 313 315 318 326 331 334 336
314 314 315 316 316 315 315 315 315 313 314 314 313 313 313 311 300 298 314 314 316 315 307 304 303 298 297 299 299 298 291 298 303 304 306 306 307 311 311 309 316 322 328 331 333
314 314 315 315 315 315 315 316 314 312 312 312 312 312 312 306 286 301 311 312 313 311 307 302 301 296 293 292 298 293 298 300 303 307 307 305 308 308 308 306 315 328 331 332 329
313 313 314 314 315 315 315 315 313 312 312 313 311 312 306 298 297 306 310 308 304 305 301 300 297 296 290 293 296 294 296 300 303 305 306 308 306 308 307 311 312 323 330 329 330
313 313 313 313 314 314 314 314 312 311 311 312 312 311 301 290 301 304 303 303 302 301 299 300 298 299 295 293 293 296 297 298 301 303 304 303 306 308 309 312 311 317 323 327 329
313 312 313 313 313 314 314 313 312 311 311 311 312 307 298 294 301 302 304 301 302 301 297 301 302 298 295 292 296 296 293 296 298 301 301 304 301 303 310 311 308 308 311 323 326
313 312 312 312 313 313 314 312 311 311 311 312 310 302 292 304 301 303 302 302 303 304 303 305 302 299 294 295 295 293 293 287 297 300 302 301 292 304 310 309 307 307 306 311 323
312 312 312 311 312 313 312 312 311 309 310 311 302 297 291 306 299 301 300 298 300 302 302 305 300 295 294 287 287 290 285 286 292 301 299 297 294 303 309 309 306 306 305 307 316
312 311 311 311 311 312 312 311 308 307 306 306 303 291 295 294 299 300 300 301 297 297 296 293 291 288 289 285 279 282 284 285 288 296 298 294 294 300 307 307 306 305 305 306 311
311 311 310 311 311 311 306 298 293 292 295 291 292 291 295 299 301 298 300 298 296 293 283 287 279 277 285 287 287 286 286 285 289 297 296 294 295 300 305 305 304 305 306 307 307
311 310 309 310 311 310 302 294 294 294 285 294 294 295 297 299 292 295 300 290 290 283 285 280 277 287 288 289 287 287 285 285 290 294 295 294 293 297 303 302 303 304 304 306 307
310 309 309 310 310 304 297 297 301 298 286 292 295 294 295 298 292 292 296 292 287 284 283 278 283 289 287 287 285 286 285 286 286 293 294 292 290 294 299 302 304 305 305 306 305
309 309 309 309 304 301 296 301 301 298 276 286 291 294 296 295 289 297 297 291 287 282 283 281 288 287 286 287 287 282 290 289 288 287 283 292 281 289 293 296 298 301 304 305 304
309 309 308 309 300 296 300 301 299 292 263 285 291 300 296 290 290 291 297 292 285 284 284 278 284 286 286 287 289 286 293 290 289 286 286 288 283 286 292 292 296 298 300 302 301
308 309 309 305 302 300 302 300 294 273 263 280 291 290 290 289 289 292 291 293 292 286 286 285 290 289 290 292 292 293 291 291 291 287 278 285 285 283 289 292 296 298 299 301 300
308 309 307 307 298 300 300 292 274 267 282 279 285 288 287 285 286 288 285 281 278 275 278 284 286 293 294 288 290 289 287 280 279 279 274 286 285 286 290 296 298 298 298 300 301
308 309 306 304 301 301 294 278 267 279 278 288 288 288 284 285 284 285 281 276 285 283 279 279 278 288 292 287 282 286 285 280 275 273 278 288 281 285 291 294 298 299 299 300 299
309 302 301 301 302 299 286 270 274 276 286 282 284 274 283 285 284 284 274 277 283 285 280 278 281 291 292 292 290 286 283 288 280 279 276 280 284 288 290 291 293 296 296 296 298
301 299 297 302 301 293 280 276 280 287 287 288 278 285 277 283 279 282 278 285 284 287 291 284 279 288 290 291 289 287 289 279 280 275 272 276 277 280 285 288 290 292 293 294 296
299 294 298 302 297 284 274 275 284 288 289 286 283 284 281 282 285 275 280 286 289 285 290 286 282 282 286 282 283 285 283 285 286 278 273 272 276 285 286 288 290 289 292 293 294
298 288 299 298 282 281 276 284 290 286 288 289 286 286 281 285 285 283 281 284 292 289 285 288 283 277 279 290 290 286 284 286 275 277 274 272 277 287 287 290 292 292 294 295 295
293 289 297 292 276 275 283 285 286 285 285 285 284 286 288 286 283 285 285 290 294 291 288 288 284 277 277 286 288 285 287 287 285 280 276 271 277 290 288 290 292 293 293 295 296
290 281 286 287 283 281 281 282 281 287 286 287 286 287 286 285 286 283 281 290 294 294 295 294 287 279 273 279 283 280 285 287 281 274 278 276 281 285 288 290 291 293 294 294 296
291 283 286 279 280 282 283 283 281 281 285 286 285 286 284 282 285 283 284 287 291 294 291 292 284 286 287 287 286 284 284 287 279 285 283 285 285 286 287 287 290 291 295 295 296
288 283 283 281 283 282 283 280 281 282 283 282 282 285 285 282 282 284 285 286 286 288 287 288 282 283 280 286 287 284 287 287 287 287 288 288 287 291 291 291 291 291 295 296 297
289 289 285 284 280 279 279 281 282 284 285 286 285 282 283 284 285 288 288 289 288 288 289 288 284 281 277 283 284 278 286 287 288 288 288 284 288 291 291 293 292 292 293 295 297

GFSSW_sfc_thetae_105.txt.gz
Theta_e
314 315 316 316 318 317 315 316 316 316 316 315 314 315 314 314 314 306 301 306 309 319 314 307 303 303 304 300 303 306 293 288 290 295 299 305 303 307 309 308 312 317 321 329 338
314 314 315 316 317 317 316 315 316 315 313 314 314 314 314 313 305 301 310 316 319 317 306 301 298 299 295 297 298 295 291 292 296 298 301 305 306 306 307 312 317 320 329 334 336
314 315 315 316 316 316 316 316 316 314 312 313 313 313 312 310 299 298 314 315 315 313 306 303 301 297 292 297 295 294 290 295 297 302 305 304 305 310 308 306 314 318 327 332 332
314 314 314 314 314 315 315 316 315 313 312 313 312 313 312 305 284 300 312 312 312 309 306 300 299 294 292 291 296 291 295 296 298 304 304 302 308 307 309 306 310 313 329 330 331
313 313 314 314 314 315 315 315 315 312 312 312 312 311 305 296 296 305 309 308 303 304 301 298 295 294 290 291 293 291 293 296 300 303 304 305 305 306 306 310 314 317 329 329 331
314 314 314 313 313 313 314 314 313 312 311 311 312 311 299 289 300 302 302 302 300 299 298 299 296 298 294 291 291 294 296 295 298 301 301 299 302 307 308 311 310 317 323 327 330
314 313 313 313 312 313 313 315 313 312 311 311 312 306 297 294 300 301 303 300 300 299 296 300 300 296 295 291 295 294 291 295 297 299 299 300 295 303 309 310 307 307 309 317 326
314 312 313 313 312 312 313 313 312 310 310 311 310 301 291 304 300 301 300 299 301 302 301 303 301 297 295 295 291 290 292 286 294 298 300 296 288 301 310 308 305 306 305 308 314
313 312 312 312 311 312 313 312 311 309 308 310 301 296 290 305 298 299 299 297 299 301 301 304 298 293 293 287 283 288 281 286 290 299 299 295 289 299 309 309 305 304 304 306 308
312 312 311 310 311 312 312 310 308 307 305 306 303 290 293 293 298 299 299 299 295 295 295 292 289 287 288 284 276 282 284 284 287 295 297 293 292 297 302 307 305 304 303 304 306
312 311 309 310 311 311 306 297 293 291 294 290 291 290 294 298 300 297 298 296 295 291 283 286 278 275 282 287 287 285 285 283 288 296 294 292 292 295 299 300 304 303 302 303 305
312 310 309 310 310 310 301 294 293 293 285 293 294 294 297 299 292 295 298 289 288 281 285 279 275 285 288 289 287 285 285 284 289 294 295 293 292 297 298 299 304 304 303 303 304
311 309 309 309 309 303 297 296 300 297 285 290 294 293 294 297 292 291 294 290 285 282 281 277 282 288 286 286 284 285 285 284 287 293 294 293 291 294 299 301 303 305 305 304 304
310 309 309 309 302 300 296 300 299 296 274 284 290 293 295 295 288 296 296 290 286 282 282 280 286 287 286 286 286 282 289 289 288 288 284 292 281 290 294 297 300 302 303 303 304
310 309 309 309 300 296 299 300 298 290 264 284 289 299 296 290 290 291 296 290 285 284 282 276 284 285 285 286 288 286 292 288 288 287 287 287 283 286 293 293 296 299 302 305 306
310 309 309 305 301 299 301 299 292 273 263 279 290 289 290 289 288 291 290 292 291 286 285 283 290 288 289 291 291 290 290 289 289 287 277 285 283 283 288 291 294 298 302 305 306
310 309 307 306 298 300 299 290 273 265 281 278 283 287 287 285 286 287 284 280 279 274 274 284 285 290 293 287 289 287 286 279 277 277 275 287 284 285 291 294 295 297 299 304 306
309 309 307 304 301 299 292 277 264 277 275 286 287 287 283 285 285 284 281 277 285 283 279 279 277 288 292 287 284 285 285 273 272 273 277 287 281 286 291 294 297 299 300 301 301
309 302 300 301 301 297 284 267 272 275 284 282 282 273 282 285 284 283 274 277 282 285 282 278 278 291 290 290 289 285 282 288 277 277 276 281 283 287 290 291 291 296 297 297 298
300 299 298 302 300 291 278 276 279 287 286 286 275 283 275 283 282 281 277 283 283 286 289 282 276 287 290 290 289 287 289 282 276 269 273 277 277 280 285 287 291 293 294 296 297
299 294 298 301 296 283 272 275 283 287 289 285 281 282 280 283 284 281 279 285 289 286 288 284 279 280 285 282 280 283 280 285 285 277 273 273 277 284 286 287 290 291 293 294 296
297 288 298 298 281 278 276 282 289 285 288 287 285 285 283 285 284 283 279 283 290 289 285 286 280 273 279 287 290 286 283 284 276 276 276 271 278 288 287 290 292 292 294 295 295
291 291 298 295 275 274 282 284 285 284 284 285 283 285 286 286 281 284 282 289 292 290 287 289 282 270 274 283 288 284 286 286 283 279 279 270 277 289 289 290 292 293 293 295 295
290 283 287 287 281 280 281 281 281 286 284 286 285 286 284 284 284 281 280 290 294 293 296 295 287 278 272 279 282 280 283 285 277 273 280 276 279 284 287 289 290 292 293 293 294
291 284 287 279 280 281 281 282 281 280 284 285 284 284 280 279 282 280 281 288 291 293 291 291 283 287 287 287 284 283 283 284 277 280 276 283 283 284 286 287 289 290 294 295 295
288 285 283 281 282 282 282 280 281 281 282 281 282 286 284 281 280 283 282 285 281 289 288 290 283 282 279 285 285 283 284 285 286 286 286 286 283 289 290 289 290 290 294 295 296
290 288 286 283 280 279 279 280 282 283 284 285 284 283 282 284 285 287 286 287 286 286 287 288 281 278 275 281 283 278 283 284 286 287 287 284 288 290 290 291 290 291 292 292 293

GFSSW_sfc_thetae_108.txt.gz
Theta_e
316 315 316 316 317 318 317 316 316 316 316 314 314 314 315 315 313 305 299 305 307 317 316 306 302 302 302 298 302 300 290 286 290 290 292 304 303 307 310 306 310 319 318 327 341
316 315 315 316 316 317 317 317 317 316 314 313 313 313 313 313 305 301 309 315 317 318 307 302 297 298 293 295 297 294 288 289 294 295 294 300 304 306 307 305 310 320 328 337 338
316 315 314 315 315 315 316 316 316 316 314 312 313 313 312 309 297 297 314 313 315 312 306 302 300 297 291 294 293 292 288 292 294 298 300 299 303 307 305 304 308 314 325 334 334
316 315 314 314 315 314 316 316 316 315 312 312 313 311 312 304 283 300 312 312 312 308 305 300 297 293 291 289 293 288 293 294 296 299 298 299 305 303 305 306 313 310 328 332 330
316 314 314 314 314 314 314 315 315 313 311 311 313 311 304 294 295 304 309 307 302 303 299 296 294 293 288 289 292 291 291 294 296 297 298 302 301 302 303 307 312 314 322 327 328
315 315 314 313 313 313 314 314 315 312 311 310 311 310 298 288 300 302 301 301 299 298 296 297 294 297 292 291 291 293 293 293 295 296 298 298 299 301 303 309 310 317 322 325 328
316 315 313 313 313 312 313 313 313 312 311 311 311 306 296 293 300 300 302 299 299 298 295 298 299 295 294 291 294 293 288 292 294 294 295 300 295 295 302 305 308 311 314 321 328
316 314 313 313 312 311 312 313 312 311 309 310 310 300 290 302 300 300 299 298 300 301 300 302 300 296 293 295 291 288 288 284 291 293 294 297 288 296 302 301 305 305 307 312 319
316 314 312 312 311 311 312 312 311 310 308 310 299 295 289 304 297 299 298 296 298 299 300 303 297 291 291 286 281 286 281 283 288 294 294 294 290 296 300 300 304 304 303 308 311
316 314 312 311 310 311 311 308 308 306 305 305 302 289 293 292 297 298 298 298 294 294 293 291 287 284 285 283 268 277 281 284 285 290 293 292 291 297 298 297 300 305 302 306 308
315 313 311 310 310 310 305 297 292 291 293 289 290 290 293 297 299 296 297 295 294 290 284 284 278 274 279 284 286 285 282 282 288 294 292 292 291 294 298 295 298 303 302 305 308
315 312 311 310 310 310 301 293 293 292 285 292 294 293 296 299 291 294 297 288 287 281 283 278 275 283 287 287 286 285 282 284 289 293 293 292 291 295 295 296 298 302 302 303 307
314 312 310 309 310 303 297 296 299 296 285 289 293 292 293 296 291 290 293 289 285 282 281 277 281 286 286 284 284 285 283 285 286 293 295 292 290 293 297 299 301 302 304 304 305
313 311 310 310 302 300 295 300 298 294 273 283 289 292 295 294 287 296 295 289 286 282 281 279 285 285 286 283 286 279 288 290 290 287 284 290 281 291 294 295 299 301 302 302 303
312 310 310 309 300 297 299 299 296 289 264 283 288 298 295 289 289 291 295 289 283 283 282 276 282 284 284 286 288 285 291 289 289 285 287 286 282 287 294 292 295 298 301 304 304
312 310 310 304 300 299 300 296 291 273 263 280 289 288 288 289 287 290 289 291 290 285 284 282 289 287 287 290 289 289 290 289 288 285 277 285 283 282 289 292 294 297 301 302 304
311 310 307 305 296 300 298 289 273 266 280 278 282 287 286 285 285 285 284 281 280 275 277 284 285 288 290 287 288 285 281 276 273 273 276 285 282 284 292 295 297 297 299 303 305
310 309 307 303 301 299 290 279 267 276 274 285 286 287 279 286 281 283 280 277 283 283 277 278 277 288 291 287 284 285 281 274 272 275 278 286 280 284 289 295 298 300 300 303 304
310 303 300 300 301 295 283 269 271 274 283 282 282 272 283 284 284 279 273 277 281 285 282 279 279 290 290 290 289 285 282 287 279 276 274 278 281 286 290 290 290 294 298 299 302
302 299 298 301 299 292 279 277 278 285 285 285 273 283 277 282 281 281 276 283 285 285 287 282 271 285 290 290 290 288 290 279 278 272 274 277 277 279 284 287 289 291 295 297 297
299 292 299 301 295 286 273 275 282 286 288 284 281 280 281 283 281 274 277 284 287 287 286 282 278 279 284 283 282 285 283 284 282 278 274 273 277 285 285 287 289 291 293 294 295
296 286 299 298 285 278 275 282 288 284 288 286 285 283 283 285 280 273 279 281 289 290 284 284 279 275 282 286 290 286 283 285 275 276 275 273 278 287 287 290 292 292 294 294 295
291 291 298 296 277 275 281 283 284 283 283 284 282 284 286 285 278 281 278 288 291 289 288 288 279 267 273 280 285 284 286 287 282 280 279 274 278 289 288 290 292 292 293 295 296
289 285 290 291 283 280 280 280 280 285 284 286 284 285 285 285 283 280 279 289 292 291 296 293 286 277 273 279 282 278 283 284 276 274 278 277 280 285 286 287 289 291 293 294 295
288 285 289 283 280 280 280 281 280 280 283 285 283 283 280 279 280 279 281 287 291 292 291 290 282 286 286 287 284 283 283 284 276 279 275 281 282 284 286 287 288 290 294 295 295
287 285 283 281 282 281 282 279 280 280 281 280 282 285 282 279 279 279 281 285 279 289 289 290 281 282 279 283 285 283 284 283 284 284 285 283 283 288 289 289 289 289 291 292 294
289 288 286 282 280 279 278 279 281 282 283 284 284 283 282 283 284 284 284 285 284 286 287 287 280 277 275 280 282 277 281 284 286 285 286 284 286 289 289 290 290 290 291 290 291

GFSSW_sfc_thetae_111.txt.gz
Theta_e
318 317 316 316 317 317 318 318 317 317 316 314 314 314 314 314 312 306 299 305 309 317 315 308 304 303 304 300 303 303 290 286 289 291 293 300 298 306 311 307 309 313 321 327 338
318 317 316 315 316 316 316 316 317 316 316 312 313 313 313 313 305 301 308 314 316 316 309 303 299 299 295 297 299 295 288 288 293 295 294 298 299 303 303 306 308 310 322 333 338
318 317 316 315 315 316 315 317 316 317 314 313 312 312 313 309 297 296 314 312 314 313 308 304 301 298 293 295 295 294 288 292 294 296 299 298 300 303 303 302 307 308 311 326 336
319 317 316 315 315 314 315 315 316 315 312 312 313 311 311 304 284 300 312 311 312 309 305 301 298 293 290 289 294 289 293 294 294 296 297 297 301 300 303 304 309 309 311 312 330
319 317 316 315 315 314 314 314 315 313 311 310 311 311 305 296 294 305 311 307 302 303 300 297 295 294 289 289 291 290 292 294 296 297 297 299 296 298 302 309 308 309 311 312 315
319 316 316 314 313 313 313 314 315 313 311 310 310 309 300 288 301 303 301 301 300 299 298 299 296 297 292 291 290 293 293 293 294 295 296 295 296 298 303 308 307 307 308 312 316
319 316 316 314 314 313 313 314 313 312 310 310 311 305 297 293 302 301 302 300 300 300 297 299 300 296 295 290 294 292 287 290 291 294 293 297 292 293 302 304 304 305 305 308 316
320 317 315 314 313 312 311 313 312 311 309 309 311 301 289 301 302 302 300 300 301 301 301 302 301 297 294 295 291 286 286 282 290 292 295 295 286 297 303 302 302 303 302 307 314
320 317 315 312 312 311 312 312 312 310 309 310 300 296 289 303 298 300 300 297 298 300 301 302 299 293 292 286 281 284 278 281 285 294 293 292 288 297 301 302 301 299 297 307 313
320 317 314 311 311 310 311 308 309 307 305 305 302 291 293 293 298 298 299 299 295 296 294 292 288 286 284 282 272 274 278 282 281 290 291 289 289 296 300 302 299 296 297 305 309
319 315 313 311 310 310 304 299 294 292 295 290 291 290 293 297 299 297 298 296 295 291 284 286 282 278 280 282 283 283 282 280 284 289 289 288 288 294 298 297 294 295 298 302 307
318 315 312 311 309 311 301 294 294 293 286 293 294 293 296 298 292 294 298 290 288 283 285 281 278 284 285 286 284 283 282 282 286 290 290 289 289 294 295 294 295 297 299 301 305
316 313 312 310 310 305 298 296 300 296 286 290 292 292 293 296 291 291 294 290 286 283 282 279 282 286 285 284 283 282 282 283 285 291 292 290 288 292 295 297 298 300 302 303 305
314 312 310 311 304 300 296 300 299 295 275 284 289 292 294 294 287 296 295 290 287 282 283 280 284 284 285 284 284 281 288 288 288 287 283 290 281 290 293 293 297 300 301 303 306
313 311 310 309 301 297 299 300 296 290 266 283 288 298 295 289 289 290 295 290 284 283 283 278 281 283 281 286 288 285 287 288 290 288 286 286 284 287 293 291 295 299 301 303 306
312 311 311 305 301 299 300 296 291 275 266 280 289 288 288 289 288 290 289 291 290 285 285 283 288 287 285 289 288 289 289 288 289 286 280 285 284 284 289 292 295 298 301 304 305
313 311 307 305 297 301 298 289 276 269 280 278 283 287 284 282 284 285 284 280 280 277 274 284 285 288 290 286 288 287 281 275 277 276 277 286 284 285 292 295 297 298 300 303 305
311 310 308 303 301 298 290 281 269 276 275 284 286 286 276 283 281 283 281 278 283 283 274 274 275 287 291 288 284 285 282 277 272 274 279 286 281 283 290 292 298 300 301 303 305
310 303 300 300 301 295 285 272 273 275 282 282 281 271 281 283 283 279 275 278 282 284 280 279 275 290 290 289 287 285 281 287 279 279 279 280 283 288 291 290 291 295 300 301 302
301 299 297 302 299 291 281 278 279 283 285 284 273 282 276 280 277 274 276 283 285 285 287 283 275 284 288 289 290 287 290 280 280 273 275 278 279 280 285 287 290 293 296 300 300
300 293 299 302 297 288 275 276 282 286 288 284 281 280 280 279 278 270 277 284 288 288 285 284 279 281 285 285 284 284 284 285 283 279 277 275 279 287 286 287 289 292 293 297 298
296 287 299 299 287 281 275 281 287 284 288 285 284 282 281 283 279 272 279 283 288 291 285 286 280 276 281 287 291 287 284 284 278 278 276 278 280 288 288 291 292 292 295 295 298
292 291 299 296 279 275 280 282 283 283 283 284 283 284 285 282 277 281 279 288 290 291 289 290 281 272 277 283 286 283 286 286 282 282 278 275 280 289 289 290 292 293 295 295 297
291 285 291 292 286 279 279 280 280 284 283 285 284 285 283 283 283 281 277 289 292 290 295 293 286 278 278 281 284 281 284 285 278 279 279 279 282 285 288 289 291 292 295 296 296
290 287 289 283 284 280 280 280 280 280 282 285 283 283 280 278 280 279 281 285 290 292 291 288 282 285 286 287 286 284 284 285 281 282 278 283 283 286 288 289 289 290 292 294 296
286 284 283 280 282 280 282 279 280 280 281 281 282 284 282 279 279 279 281 281 280 287 287 287 279 282 279 285 284 282 284 285 286 286 285 285 285 290 290 291 291 291 291 292 294
289 287 285 282 279 278 278 279 281 282 283 283 284 282 282 283 284 284 284 285 284 285 284 284 280 278 275 280 283 277 282 285 286 286 286 283 287 290 290 290 290 291 292 291 293

GFSSW_sfc_thetae_114.txt.gz
Theta_e
320 320 318 316 316 317 317 318 317 317 317 315 313 314 314 313 312 308 301 305 310 316 314 311 308 306 306 302 305 304 293 288 290 291 294 301 300 304 308 307 311 314 316 319 323
321 320 318 317 316 316 317 316 317 317 317 314 311 313 314 313 306 302 308 314 316 317 311 305 300 301 298 299 301 297 291 290 295 296 295 298 301 302 303 302 305 310 316 320 324
321 321 319 317 316 315 316 316 317 316 314 313 312 313 313 311 300 301 314 315 316 316 311 307 304 299 295 298 298 296 291 294 295 297 298 297 298 302 300 298 305 306 312 318 319
322 321 319 317 315 315 315 315 315 315 313 311 312 312 311 306 287 304 312 311 313 311 307 303 300 295 293 292 296 291 295 295 296 297 296 295 299 298 301 303 308 310 314 317 316
324 321 318 317 315 314 314 314 315 315 312 311 311 311 307 298 296 308 311 308 306 306 301 299 296 295 291 292 293 291 293 294 296 297 297 298 295 297 299 305 308 310 310 314 315
324 321 316 316 315 313 313 313 315 314 312 311 310 310 302 290 305 307 305 305 304 302 300 301 296 298 294 293 292 293 293 294 295 295 296 295 296 297 299 305 307 309 309 311 313
323 320 317 316 314 314 312 313 314 312 312 310 311 307 298 295 306 306 304 304 304 303 299 301 301 297 295 291 295 294 289 291 292 294 294 296 292 293 299 302 304 306 309 310 312
319 321 317 316 314 312 312 311 313 311 310 310 312 304 293 303 308 305 305 302 304 304 303 303 304 298 295 296 292 289 288 283 290 293 295 295 287 295 299 299 300 304 308 308 311
318 319 317 315 313 311 311 311 311 311 310 311 304 299 292 305 300 303 304 299 301 302 303 303 301 295 294 288 284 284 280 283 286 293 293 293 289 296 301 300 299 303 306 305 308
318 318 317 314 312 311 311 309 309 309 308 307 303 295 297 295 300 301 303 302 298 298 296 295 294 290 289 284 277 280 280 283 284 289 292 290 291 296 301 302 302 305 305 303 305
317 317 315 313 312 311 308 305 297 295 299 292 293 293 295 300 302 299 301 299 298 294 288 291 286 283 285 287 286 284 282 282 286 290 289 289 291 294 299 301 302 303 303 303 305
316 317 314 313 311 312 305 298 296 297 290 297 296 296 298 300 293 296 301 293 291 286 289 287 283 287 288 287 285 285 282 282 286 291 290 290 290 294 297 300 302 302 302 302 304
317 315 313 311 312 307 302 300 303 301 291 292 294 294 295 298 293 293 297 293 289 286 286 283 285 288 286 285 284 284 282 283 283 289 291 291 287 291 296 298 299 302 304 302 304
314 313 312 311 305 303 299 303 303 298 286 287 290 294 296 297 290 298 298 293 289 285 286 285 288 285 285 284 285 282 287 287 287 284 282 291 280 288 291 293 297 301 303 304 305
313 313 311 311 304 300 301 302 300 297 276 287 291 300 297 291 291 292 298 293 286 286 285 284 284 284 283 284 287 286 288 287 288 285 286 286 286 286 292 291 295 300 303 305 306
312 312 311 306 303 302 302 299 297 285 275 284 291 290 290 290 290 292 292 294 293 287 288 287 291 288 287 289 289 290 288 288 287 286 282 286 287 286 290 293 297 300 302 304 306
311 312 309 307 300 302 300 295 285 279 283 283 285 288 287 286 287 288 287 286 284 281 282 286 287 290 290 286 290 288 286 281 279 280 279 288 285 285 291 296 298 299 301 304 305
312 311 307 304 304 301 296 289 278 280 281 288 288 287 284 286 286 286 286 285 286 283 282 280 280 288 291 288 285 285 286 281 275 277 280 287 281 284 293 295 297 302 301 303 304
310 304 301 301 302 300 292 283 282 283 286 286 285 283 283 285 285 284 282 285 286 287 281 281 282 289 290 289 288 286 285 288 283 283 282 283 286 292 294 294 296 300 299 301 304
302 300 298 302 302 298 289 283 283 286 288 288 283 285 281 283 283 283 283 288 288 290 289 286 280 286 289 291 292 289 290 284 286 278 277 280 283 282 288 290 293 297 297 301 303
300 294 299 302 302 292 285 284 285 289 291 288 285 284 284 284 284 281 282 288 291 291 291 288 284 286 289 287 285 287 286 287 286 283 281 279 281 288 290 292 293 296 299 300 301
297 288 300 300 289 287 286 284 288 288 291 289 289 287 285 286 284 282 283 286 292 292 287 290 286 283 284 290 292 290 288 287 284 281 282 284 281 292 294 295 296 296 299 301 301
291 291 299 297 284 284 285 285 287 287 288 287 287 288 289 286 282 285 284 292 293 292 290 292 286 282 282 286 290 287 290 289 286 287 281 282 282 294 296 296 298 297 299 299 300
293 286 291 294 290 285 284 284 284 288 287 288 287 289 288 286 288 285 285 290 293 292 295 295 288 284 280 283 287 285 289 289 286 286 284 284 286 291 292 293 294 296 299 299 299
293 289 291 284 286 286 286 285 283 283 287 289 287 288 287 283 285 284 286 288 291 293 294 293 285 287 288 289 288 288 288 289 285 286 285 286 287 290 292 294 295 296 298 298 297
289 288 289 287 290 287 285 284 284 284 286 285 286 288 287 285 285 284 286 287 287 292 291 292 286 287 285 288 289 287 288 290 289 289 289 290 288 294 296 298 297 296 297 296 296
292 292 292 286 287 286 285 284 285 287 286 288 289 289 287 288 290 290 291 290 290 289 289 289 287 285 281 285 286 284 286 289 290 290 291 287 290 295 294 294 294 296 296 296 296

GFSSW_sfc_thetae_117.txt.gz
Theta_e
323 321 320 318 317 317 317 317 318 317 317 317 313 313 313 314 314 310 303 308 310 314 316 310 309 307 307 304 305 305 293 290 291 292 294 300 298 304 306 304 306 309 310 316 322
324 322 321 319 318 316 316 317 316 318 316 315 312 312 313 313 308 303 310 311 315 318 310 306 304 303 302 301 301 297 292 291 296 297 295 298 298 299 301 302 302 305 310 318 320
325 324 322 321 318 317 316 316 316 317 315 313 312 313 312 313 301 301 316 318 319 317 312 309 306 301 298 300 298 297 291 296 297 298 299 297 297 300 299 298 303 303 306 312 317
323 325 323 320 318 316 316 315 315 315 314 312 311 312 311 307 290 306 313 313 315 312 308 305 302 298 295 293 298 292 296 296 297 298 297 296 299 296 298 299 304 307 309 310 313
320 321 324 319 317 316 315 315 315 315 314 312 311 312 308 299 298 310 311 309 307 306 302 301 298 297 292 294 295 292 294 296 296 296 296 297 295 296 297 301 304 306 309 310 311
318 321 322 318 316 315 315 313 313 315 313 312 311 310 303 292 307 309 307 305 304 303 301 301 297 298 294 293 292 294 294 294 295 295 296 294 295 296 298 301 301 303 305 308 311
317 318 320 316 316 316 314 313 312 314 313 312 312 308 300 297 306 307 306 305 304 303 299 302 301 297 296 291 295 293 289 291 292 293 292 295 290 292 298 300 299 301 304 307 311
316 318 318 316 316 314 313 312 313 313 311 310 311 306 295 304 307 305 306 304 305 305 303 304 303 299 296 297 293 289 289 284 291 292 293 292 285 295 299 299 298 299 304 306 309
315 316 317 317 315 314 312 312 313 312 311 311 306 301 292 306 302 305 306 300 302 302 303 303 301 295 294 289 285 287 280 282 285 291 291 291 288 295 299 299 297 299 300 304 307
314 316 316 317 315 312 312 311 311 310 308 308 303 294 297 296 301 302 305 303 299 299 297 296 294 289 289 286 278 280 281 283 283 288 290 289 289 294 298 299 298 298 300 302 306
314 315 316 317 314 312 310 306 299 297 300 294 294 294 296 301 303 300 302 300 299 295 288 292 287 283 286 288 287 285 283 282 285 289 287 286 288 293 297 299 299 300 303 304 307
314 317 316 315 313 312 309 301 300 300 291 298 297 297 299 301 295 298 302 294 292 287 291 287 282 289 290 288 286 284 282 282 286 289 287 288 288 293 296 299 301 302 303 305 306
313 316 314 312 311 309 304 302 304 302 292 292 297 295 297 299 295 295 297 294 290 288 287 284 287 290 287 286 284 284 282 282 282 287 290 288 287 289 295 299 301 303 304 306 306
310 313 312 312 306 306 302 306 305 302 287 288 292 295 298 298 292 299 299 295 290 287 288 287 290 287 286 284 285 281 288 286 284 283 280 290 281 289 292 294 298 300 302 304 306
311 312 311 312 306 301 303 306 303 298 278 290 292 302 298 293 293 294 299 295 288 288 287 285 286 286 285 286 288 284 288 287 287 284 284 286 281 287 293 291 294 298 302 305 307
311 312 311 308 307 304 306 302 299 286 279 285 292 291 290 292 291 294 294 296 295 289 289 288 293 290 289 291 290 291 288 287 286 285 280 286 283 284 287 291 295 299 302 304 306
311 311 310 308 301 305 302 297 285 282 286 285 286 290 288 287 288 290 289 288 285 281 284 288 288 292 291 287 292 289 285 281 279 278 280 287 284 285 290 292 297 298 300 304 306
311 311 307 305 306 303 299 290 281 284 283 290 289 289 284 288 288 288 288 286 289 285 282 281 281 288 291 288 285 285 286 281 275 278 281 288 282 285 293 297 299 299 300 304 304
308 305 302 302 304 303 293 284 284 286 287 288 288 283 285 287 287 287 287 287 289 288 282 282 283 291 291 290 289 287 286 289 283 284 282 284 287 291 294 297 296 296 300 301 302
303 301 299 304 304 299 290 286 285 289 291 291 284 287 283 285 285 285 286 290 289 291 291 286 281 289 290 292 292 290 291 284 286 278 277 282 282 281 288 292 294 295 298 300 301
301 294 299 303 303 293 285 287 287 291 292 289 287 286 287 285 286 283 286 290 292 291 293 288 286 287 291 287 286 288 286 287 287 284 280 279 280 290 291 292 295 296 299 300 300
297 287 300 301 290 291 288 286 290 289 293 291 291 289 287 288 285 285 284 288 294 293 288 291 287 284 285 291 293 291 289 288 285 283 286 283 281 295 295 295 297 297 299 300 301
291 291 299 300 286 287 288 287 289 289 290 289 289 290 291 288 284 287 287 293 294 292 291 293 287 282 285 289 292 289 291 290 289 290 284 281 283 295 295 296 297 297 298 299 300
292 286 291 294 294 290 286 286 285 290 291 290 290 291 289 287 289 287 286 292 294 294 296 295 288 285 281 284 288 286 289 290 288 285 284 285 286 291 293 294 296 297 299 300 300
295 291 292 285 288 289 289 287 285 285 290 291 289 289 288 285 286 286 288 290 293 296 295 294 285 287 289 290 290 289 289 290 287 289 285 286 287 291 294 295 295 297 298 297 298
293 292 294 290 291 289 287 286 286 286 288 287 287 290 290 287 287 286 288 289 288 293 293 294 287 288 286 290 290 287 290 290 290 291 290 290 289 295 297 297 296 296 296 296 297
298 297 295 290 290 288 288 287 287 289 288 290 291 290 288 290 292 293 294 294 293 291 291 291 289 287 283 288 287 284 287 289 291 292 292 287 291 296 294 295 295 296 297 296 297